GFSNW_500_rhum_000.txt.gz
RH
69 11 16 78 57 56 57 56 51 54 72 77 85 76 75 82 68 79 79 90 96 96 98 96 96 92 90 72 46 39 38 32 28 24 22 23 28 33 38 40 40 47 46 47
76 8 5 39 71 57 54 45 39 45 49 70 67 75 83 92 79 76 87 90 93 95 95 98 98 96 96 96 95 89 68 44 36 30 30 33 42 50 52 54 52 50 46 39
71 22 4 21 63 65 54 51 43 58 58 58 64 62 65 90 97 81 86 90 91 89 94 92 93 89 90 94 93 92 82 71 64 59 68 66 63 63 60 53 40 33 32 29
70 26 5 10 41 54 49 50 41 66 46 72 78 76 64 66 71 91 95 94 85 83 86 87 96 96 96 96 95 96 92 88 83 81 77 70 64 48 36 34 25 29 26 22
51 38 5 4 24 52 54 45 52 56 57 69 74 79 80 74 75 78 78 78 80 82 77 73 75 79 83 82 73 68 61 57 57 51 48 45 39 28 27 25 25 23 29 43
49 62 13 2 12 34 54 44 32 59 68 67 69 74 78 76 74 65 63 59 48 42 42 42 42 40 41 40 36 32 30 29 28 27 26 26 26 32 38 46 59 53 48 39
53 58 25 6 4 21 36 44 38 30 42 72 73 73 72 60 48 39 35 35 34 30 27 26 25 26 27 28 28 28 29 28 26 25 24 23 36 58 43 24 17 16 16 13
71 52 81 20 7 14 22 29 30 28 25 39 65 66 60 48 33 26 30 26 22 20 17 14 11 10 12 13 12 12 13 15 20 35 41 53 38 18 19 20 17 12 10 12
60 63 51 83 22 10 14 27 30 21 23 25 56 50 52 35 34 31 12 10 13 23 28 37 70 74 83 91 95 92 89 82 58 52 47 36 23 17 13 11 12 12 14 14
44 68 64 55 78 24 13 26 23 14 17 22 30 48 43 40 26 12 8 16 42 60 63 51 93 95 92 77 66 47 36 25 24 19 20 20 16 16 18 19 18 18 18 19
38 50 67 66 56 75 45 19 18 14 11 12 18 32 36 18 10 5 6 24 36 73 92 89 94 86 47 32 29 27 27 25 24 22 21 20 21 23 23 23 25 26 26 24
38 45 51 65 66 56 58 76 80 55 16 9 9 10 11 11 9 7 14 47 51 74 74 53 46 32 30 31 30 30 30 27 24 23 23 27 26 26 26 30 30 26 25 24
31 44 56 50 59 65 55 56 59 80 87 85 63 38 26 28 50 59 65 63 51 42 40 38 36 34 33 32 32 32 31 30 29 28 32 34 33 34 32 31 29 27 27 27
36 34 51 51 54 52 69 59 53 48 56 79 80 71 70 65 60 57 49 48 44 44 41 38 38 36 33 32 32 38 35 32 30 30 36 31 35 35 35 33 33 34 32 26
39 39 36 33 32 52 51 63 68 60 52 45 50 60 63 65 61 56 50 48 44 40 38 36 36 37 36 34 38 46 40 39 37 38 43 44 42 42 40 39 36 28 27 26
40 41 42 42 39 44 62 62 55 72 70 58 50 45 44 48 49 48 45 43 38 35 34 34 33 36 40 40 45 47 44 49 54 54 55 51 48 43 38 33 31 30 23 19
47 46 48 41 48 47 53 82 80 70 74 71 59 47 40 36 32 32 33 32 32 32 31 34 41 45 43 46 64 66 65 59 56 53 48 43 40 36 33 32 29 25 22 20
61 41 60 68 64 43 64 84 98 81 74 71 68 56 53 50 43 36 34 30 32 36 39 47 53 56 63 72 75 70 64 58 50 46 43 40 35 32 30 27 25 21 19 17
66 65 50 64 72 72 72 82 97 79 68 69 62 64 69 71 64 63 61 56 56 58 59 62 60 60 66 86 86 86 70 58 49 44 40 36 34 32 30 26 22 20 17 13
74 76 75 77 86 92 86 88 94 90 63 54 59 68 78 79 75 73 68 65 66 57 51 54 53 53 79 95 96 86 72 56 49 44 42 41 38 34 30 26 22 17 14 28
91 95 99 99 100 99 96 91 87 91 89 73 50 76 93 88 88 84 74 70 68 66 63 66 64 69 95 94 89 82 67 58 54 51 50 45 38 36 33 24 17 16 29 48
100 100 100 99 100 98 98 93 97 96 97 94 86 84 87 87 92 84 81 90 90 89 80 75 62 86 88 81 72 68 62 60 59 55 50 43 39 36 28 18 14 28 49 59
100 98 99 97 96 96 91 91 94 100 99 96 96 97 98 98 99 97 100 97 92 87 81 72 80 82 76 72 66 62 61 59 57 52 44 41 36 27 16 17 37 53 59 74
98 98 97 100 86 83 94 100 100 97 98 99 93 93 97 100 99 92 88 81 76 70 66 82 85 73 72 69 66 65 64 58 51 47 43 36 24 18 34 49 58 66 82 90
100 99 100 82 88 96 94 100 100 98 94 90 85 86 90 91 87 82 77 74 65 64 97 92 79 72 68 69 72 65 57 51 44 40 31 20 21 42 55 59 69 82 87 87
100 91 80 88 89 96 100 100 98 95 91 95 100 94 82 75 75 68 74 74 86 100 94 88 75 73 76 76 70 62 54 47 40 29 18 27 52 64 71 82 88 88 89 83
89 79 82 93 100 100 100 100 100 97 98 100 96 86 84 71 69 69 84 100 100 95 88 83 80 78 77 73 67 57 47 37 24 23 44 63 73 85 93 95 98 92 79 58

GFSNW_500_rhum_003.txt.gz
RH
54 51 4 18 68 58 65 45 47 65 89 90 88 86 100 94 97 96 96 96 97 96 92 96 96 96 81 46 29 16 12 11 6 8 8 13 16 21 24 27 30 42 50 52
53 56 2 11 65 56 66 56 41 46 68 80 77 91 100 94 86 96 98 98 99 98 98 88 93 92 66 47 40 43 26 23 26 20 25 24 26 32 41 49 54 52 49 43
54 54 2 6 49 69 61 58 43 50 60 68 75 77 95 96 82 85 92 90 94 93 96 96 87 79 75 71 56 50 52 52 44 46 52 52 49 53 57 56 55 42 38 36
46 70 10 4 38 65 55 55 51 54 58 65 64 86 96 88 92 97 96 97 95 96 92 94 97 95 96 94 96 94 87 85 83 76 75 71 73 63 58 51 37 41 36 34
61 58 44 6 20 49 62 48 61 65 68 67 78 77 85 88 96 97 95 96 98 100 99 97 96 95 95 98 94 93 93 91 83 82 75 63 43 40 35 32 33 33 37 48
68 54 66 5 14 30 58 39 59 56 79 84 88 91 83 90 96 97 95 95 95 96 93 96 95 95 90 91 87 80 72 62 55 52 39 33 33 36 37 41 51 39 25 15
58 58 62 23 10 19 44 49 48 47 68 87 96 91 86 85 79 65 74 90 58 51 54 52 49 47 46 45 40 36 34 32 31 31 32 32 39 47 56 49 14 17 14 14
38 58 60 58 6 14 33 38 49 33 41 72 82 86 79 67 40 36 32 29 32 26 24 18 15 15 17 17 17 19 20 21 21 23 29 44 59 55 40 24 18 18 14 14
37 49 65 73 40 7 27 27 40 42 32 28 59 77 74 56 37 36 20 15 15 17 24 31 44 51 39 45 49 56 59 61 56 64 61 57 45 38 30 23 18 15 18 23
28 48 65 67 82 41 9 21 28 38 30 26 25 58 64 55 40 35 20 10 12 20 30 44 59 59 87 86 87 84 72 57 43 36 28 24 25 24 22 22 22 23 23 24
23 36 55 75 70 86 33 17 22 31 30 22 24 31 56 58 43 33 27 17 15 16 24 49 83 84 94 88 61 33 33 32 30 29 29 27 26 25 24 24 23 26 27 30
26 26 48 62 75 75 84 49 20 20 31 22 18 20 23 47 47 42 39 21 6 8 35 58 72 79 84 54 37 34 33 34 33 33 33 32 30 27 28 28 29 33 38 40
30 27 30 57 65 70 79 74 63 28 25 23 15 11 11 18 31 37 28 13 11 14 58 67 61 55 47 37 34 33 35 35 34 34 38 39 40 36 34 39 46 47 48 44
34 33 29 34 59 65 67 78 76 76 78 69 48 14 6 4 6 7 9 11 23 67 70 59 48 42 39 37 35 35 36 36 38 41 42 41 46 46 50 51 48 45 41 39
38 35 37 36 36 61 58 62 70 82 75 67 63 77 88 84 74 61 66 74 73 65 59 54 48 44 41 37 38 40 40 41 41 44 46 49 53 54 52 48 43 39 37 34
43 37 34 37 39 40 47 43 55 69 87 82 73 60 49 47 56 68 72 71 69 61 54 49 47 39 38 38 40 40 40 43 46 49 52 54 54 56 52 47 42 38 35 34
48 45 41 38 38 38 40 40 42 53 76 83 82 79 71 62 52 46 43 42 39 39 36 38 39 42 40 42 44 43 46 46 46 48 56 65 67 62 56 50 46 42 40 38
55 50 45 43 42 41 40 38 38 42 45 74 86 82 74 72 69 59 48 42 38 36 34 36 37 39 38 47 45 52 50 53 59 66 79 80 71 68 65 58 50 45 43 42
65 68 71 65 57 47 42 57 58 47 35 44 64 99 88 74 69 67 68 67 58 56 50 46 46 44 45 50 56 59 65 73 77 82 85 79 76 74 66 57 51 48 46 40
68 78 77 68 62 62 60 37 39 46 54 56 51 70 77 72 62 58 61 59 60 60 56 58 62 62 61 64 70 75 82 86 87 86 85 89 82 71 62 56 53 48 40 34
73 72 76 78 85 85 82 70 62 58 59 65 74 77 84 70 63 68 76 79 79 76 71 71 67 72 78 90 94 94 93 93 90 90 91 83 73 67 61 56 48 39 33 30
98 85 83 87 93 86 84 75 75 82 91 90 93 95 96 94 92 80 75 75 75 70 64 64 69 81 94 85 83 87 89 89 89 86 81 78 76 64 57 49 40 35 32 28
100 99 100 100 96 82 81 89 95 100 100 98 93 95 100 98 100 97 94 86 81 85 86 80 87 97 90 86 82 85 84 84 84 82 83 74 65 59 49 41 37 34 28 22
100 96 100 100 85 77 66 92 99 96 96 96 95 93 95 94 92 94 95 88 82 74 76 93 98 95 81 74 74 74 77 84 80 74 69 60 50 43 38 35 32 24 23 40
99 100 99 84 89 98 86 85 85 87 88 94 96 94 95 98 99 97 94 93 85 83 100 96 85 77 73 68 68 75 81 77 72 66 59 52 45 38 34 30 21 24 42 64
100 92 91 92 97 100 100 100 99 95 96 91 84 82 89 92 84 80 78 75 92 100 87 75 70 69 70 73 78 82 82 76 68 62 55 47 40 35 28 18 25 47 66 78
96 90 91 100 100 100 100 97 100 100 98 91 88 89 86 81 80 78 79 100 99 88 76 72 72 74 78 83 86 84 78 70 63 55 47 40 35 26 12 24 53 74 83 86

GFSNW_500_rhum_006.txt.gz
RH
27 45 56 20 12 51 75 54 72 72 85 90 95 98 97 91 95 93 70 72 90 72 88 92 87 80 82 94 94 97 93 90 51 38 19 10 4 3 4 5 10 15 24 34
32 49 53 13 8 40 62 67 61 62 72 77 97 95 97 97 96 89 92 92 78 72 84 95 93 90 96 91 85 81 49 22 8 10 14 5 4 5 11 18 26 32 48 55
46 45 57 27 4 19 59 61 72 67 71 75 82 100 92 97 97 96 96 97 96 96 97 96 97 97 95 73 47 31 24 17 8 14 14 14 16 25 32 37 47 62 52 42
63 43 62 35 3 13 56 56 81 70 64 71 84 94 96 97 96 97 97 97 97 94 93 98 95 96 84 67 48 42 33 38 38 36 41 41 39 37 48 60 60 53 40 39
62 51 62 40 8 10 48 56 77 75 70 62 89 89 99 98 97 98 96 98 97 98 93 96 95 88 91 73 69 68 73 69 80 76 68 70 77 75 66 55 42 34 35 44
31 60 62 60 15 8 26 52 60 89 79 74 76 87 92 97 100 96 95 96 98 98 99 97 97 94 90 85 85 92 88 92 88 91 95 94 90 72 59 47 38 38 40 34
21 64 60 71 20 7 15 35 43 71 86 87 83 90 93 91 97 97 99 96 94 94 97 98 97 97 97 96 96 96 93 86 86 89 91 72 53 45 46 41 37 42 32 11
24 43 62 73 40 5 10 25 50 52 68 88 100 96 95 77 81 57 64 54 51 41 43 42 47 53 53 46 44 44 42 39 36 33 32 32 32 33 36 47 43 26 19 22
28 31 58 68 80 7 8 20 36 45 38 68 91 98 88 82 44 33 30 47 35 26 25 23 23 21 16 16 17 17 18 19 20 21 20 22 31 36 47 39 30 27 26 26
31 29 46 69 74 70 8 14 21 34 47 40 54 88 86 68 40 36 19 16 23 23 24 25 38 53 64 64 62 64 71 77 74 76 65 58 49 42 29 30 28 28 27 26
34 30 43 59 71 82 71 10 15 28 33 42 40 50 74 76 47 34 26 18 17 18 24 30 38 51 68 64 76 82 76 71 57 51 37 34 34 30 31 31 31 31 34 33
39 34 31 52 66 73 84 79 14 14 24 32 34 34 40 64 65 46 33 37 31 19 14 14 24 57 77 81 86 83 72 54 37 37 36 35 35 35 35 35 36 37 36 37
45 39 31 43 55 70 71 84 94 31 16 21 32 32 27 36 58 64 53 41 41 43 34 17 15 29 61 72 73 76 61 47 41 34 36 37 36 38 38 40 40 42 46 48
53 45 36 35 58 62 70 71 79 88 66 26 21 26 28 21 22 37 51 56 50 47 42 23 15 32 57 63 54 46 39 37 35 36 40 41 43 42 42 44 49 53 55 56
61 51 40 38 45 60 66 64 70 75 79 82 80 56 44 32 23 15 12 14 20 26 20 12 40 75 72 61 49 43 39 37 39 42 45 45 44 45 46 49 58 63 66 64
65 57 46 39 42 48 54 66 66 64 73 72 75 73 76 76 87 95 75 43 33 30 34 54 77 70 57 52 45 41 40 40 42 43 43 45 48 49 54 63 66 66 68 66
71 62 52 42 41 46 49 48 54 61 56 58 73 81 78 74 64 55 49 49 56 65 66 63 55 51 49 44 40 44 40 41 42 44 44 50 54 56 60 60 57 60 68 71
86 70 59 50 46 45 48 48 48 47 46 49 47 54 76 81 79 78 76 71 63 55 49 44 39 35 32 32 36 37 39 41 44 47 49 49 54 62 62 64 71 77 80 82
100 96 75 58 54 50 52 50 49 46 42 40 41 43 50 61 77 79 74 70 69 65 60 56 54 44 43 45 46 47 48 49 51 56 65 70 69 70 78 82 84 91 91 80
100 99 95 73 64 61 54 52 45 43 39 42 52 54 48 42 52 67 74 76 68 65 58 56 59 51 48 49 50 52 59 69 77 79 76 79 80 85 90 90 92 90 83 80
98 100 100 100 95 74 73 67 59 54 47 39 41 47 53 58 60 59 58 57 57 57 53 55 57 60 66 78 88 93 94 90 85 85 82 82 90 93 94 93 88 84 78 66
100 100 100 98 98 97 88 71 63 64 66 66 67 74 72 72 75 74 66 62 66 66 64 64 65 64 78 91 89 91 90 84 79 78 80 88 91 89 87 84 80 73 59 46
100 100 100 99 96 83 67 58 57 66 79 92 97 95 96 100 96 97 99 98 93 92 91 95 99 98 93 88 85 82 79 76 77 83 85 83 80 84 82 76 70 60 50 43
100 100 99 100 82 75 65 70 70 73 88 100 97 100 100 97 99 98 95 93 92 92 96 100 95 94 94 85 78 74 71 74 75 76 79 80 81 80 77 73 66 56 49 38
100 100 97 78 70 71 71 76 76 77 91 100 100 100 100 93 88 89 92 98 96 97 98 96 88 73 67 65 65 70 72 69 71 74 79 80 81 79 77 71 62 53 40 33
100 95 87 79 79 74 75 74 74 74 83 96 100 100 100 100 100 96 98 100 100 98 93 80 71 67 64 68 69 66 66 68 71 76 81 82 80 77 74 67 54 42 35 26
98 86 87 87 90 89 83 82 80 78 76 83 87 90 93 98 100 97 100 100 96 92 89 80 73 67 70 67 65 64 67 66 67 72 76 76 74 72 64 52 42 35 26 18

GFSNW_500_rhum_009.txt.gz
RH
16 31 40 52 24 11 47 66 69 77 95 97 99 98 97 95 96 86 92 97 84 93 98 98 97 94 87 77 75 62 66 96 89 68 70 64 61 76 50 30 16 8 5 9
17 40 45 49 31 8 40 59 69 72 88 93 91 98 98 97 96 91 74 78 92 90 88 97 86 84 84 94 85 80 84 87 100 99 95 85 80 64 34 18 4 5 14 25
18 45 54 48 31 5 38 54 72 67 70 88 85 96 97 96 95 98 81 76 76 72 72 81 84 90 96 83 98 99 96 98 96 82 68 70 45 19 6 5 10 19 31 57
19 47 62 53 35 7 14 48 77 76 76 82 93 90 97 94 96 96 95 73 73 74 77 70 89 86 84 84 90 89 97 97 96 77 29 20 18 11 13 19 28 38 60 70
21 45 63 62 45 7 11 51 76 82 74 61 90 89 100 95 86 98 97 97 88 96 97 96 90 91 94 93 94 70 34 26 24 12 11 25 22 28 25 31 42 58 69 60
24 29 63 69 59 11 12 47 65 80 82 75 70 90 84 98 98 97 97 97 96 96 98 98 94 94 96 97 87 65 51 54 47 43 39 40 43 45 53 72 75 58 46 36
26 23 52 75 64 13 10 21 46 77 94 91 81 76 87 91 97 97 95 91 96 96 95 94 98 96 88 86 81 81 88 72 69 84 89 78 72 93 92 89 79 67 76 65
28 24 33 68 73 26 8 14 32 51 93 100 97 89 92 97 93 96 98 98 98 99 98 97 96 98 96 97 96 94 88 98 86 100 94 75 90 91 71 58 52 46 46 61
30 28 25 56 82 43 7 9 21 44 66 100 100 94 88 84 96 91 96 93 82 80 67 62 77 80 88 66 60 61 66 76 78 92 78 77 68 56 46 40 32 46 52 33
32 32 26 46 86 82 9 6 11 32 47 83 98 100 88 76 61 41 45 44 34 30 27 28 26 27 22 24 22 22 22 19 22 26 30 26 23 26 34 45 42 36 32 31
41 36 29 34 78 93 70 8 8 19 34 44 65 96 98 83 59 37 26 36 42 33 29 26 31 38 45 48 58 64 75 72 70 72 73 73 61 53 41 34 33 33 34 36
47 40 33 29 58 91 96 66 10 11 16 28 39 48 87 94 77 43 29 19 21 26 26 31 28 24 40 54 55 71 78 75 74 61 49 38 34 34 34 35 37 38 40 40
50 43 39 34 35 76 92 96 94 28 11 16 27 38 40 57 82 76 52 39 29 25 24 26 27 25 27 24 38 62 74 76 76 59 48 39 35 36 37 39 39 39 41 41
56 50 45 41 32 50 82 93 97 96 62 15 16 25 30 34 35 53 72 67 54 45 45 51 49 39 35 28 24 36 58 62 61 60 56 48 39 36 37 40 43 42 43 46
66 61 55 49 39 34 66 82 93 96 91 74 34 18 19 23 30 30 26 42 63 63 57 55 54 49 44 34 23 34 67 60 51 41 37 38 39 40 41 41 42 45 47 48
76 73 65 57 47 36 41 75 80 82 93 88 84 60 33 26 23 26 26 22 19 22 35 42 36 28 18 11 28 59 67 61 49 42 42 42 43 43 44 46 48 49 50 53
90 86 76 64 53 44 38 50 75 78 75 83 93 88 81 80 84 86 88 84 73 59 41 32 38 51 60 64 70 58 56 53 48 45 45 46 45 48 50 49 48 50 64 65
100 98 86 69 58 52 48 44 51 61 68 69 70 76 86 91 87 82 78 70 60 56 57 55 50 44 42 47 46 42 40 36 35 34 38 43 48 48 48 50 66 72 66 67
100 100 95 78 63 58 57 53 53 53 54 54 55 60 60 65 74 87 93 95 93 86 79 74 72 64 57 55 50 48 45 41 40 41 45 48 49 50 69 79 73 70 69 69
100 100 100 87 71 66 62 62 57 56 56 54 51 50 49 51 54 55 57 70 79 76 76 75 72 66 74 81 77 74 68 61 55 54 58 66 81 86 79 76 75 71 67 64
100 97 100 100 99 93 72 65 59 58 51 52 55 54 54 61 61 60 54 48 48 49 54 55 56 58 55 55 52 54 56 60 68 80 83 80 83 85 80 76 72 66 67 70
100 100 100 100 100 99 94 74 54 48 50 49 55 64 62 57 51 54 60 62 61 56 54 53 51 47 46 48 52 55 63 76 82 82 84 90 88 82 74 69 68 71 74 76
100 100 100 100 97 82 77 78 76 69 64 74 75 77 85 86 85 86 92 79 67 64 67 72 85 93 93 90 87 85 82 80 84 88 82 72 69 67 66 66 67 72 75 74
100 100 99 100 86 62 56 69 80 95 96 98 97 91 78 96 100 100 99 94 96 89 84 88 90 84 79 78 76 74 76 75 67 66 65 62 61 61 63 62 63 63 63 66
100 100 99 90 80 70 72 76 80 95 100 100 92 84 79 84 96 99 100 100 92 80 77 76 74 73 74 73 74 73 70 68 68 68 67 64 62 60 58 58 63 63 65 66
100 98 87 83 84 82 82 88 88 86 96 98 92 87 80 82 91 92 100 97 88 83 78 79 84 80 77 77 77 71 67 67 66 62 58 58 58 58 61 63 63 62 61 58
97 84 90 90 88 87 85 84 90 94 90 87 87 85 84 87 90 80 87 90 84 80 81 84 83 78 72 67 66 66 63 62 62 62 59 57 59 64 67 65 60 57 54 49

GFSNW_500_rhum_012.txt.gz
RH
15 22 18 59 45 42 39 56 60 84 96 97 97 97 98 98 98 95 99 99 99 69 57 78 73 92 75 91 79 72 63 65 64 58 52 58 60 56 58 50 50 52 39 29
15 22 19 63 50 41 23 53 52 82 92 98 98 99 97 97 97 100 99 84 93 69 86 84 96 94 85 86 67 62 61 54 55 53 55 58 54 53 60 55 68 50 33 15
16 22 20 58 56 37 16 47 52 76 90 96 99 100 98 98 100 94 86 86 65 95 96 99 95 99 100 90 79 79 70 65 58 52 54 57 59 71 70 77 68 39 23 8
16 23 21 43 59 40 10 47 46 71 96 94 96 100 97 98 99 80 81 91 95 85 90 81 96 83 95 100 100 99 95 85 86 100 83 81 96 100 98 92 28 13 14 19
16 23 22 26 65 51 5 58 46 68 95 68 98 100 98 97 99 89 87 94 86 79 77 86 95 100 99 86 88 95 96 96 96 98 98 97 82 82 50 20 8 5 12 35
17 23 24 24 70 68 11 64 50 67 92 71 86 97 98 97 97 98 84 91 84 92 79 93 94 95 98 100 98 98 99 99 98 99 97 87 40 27 21 15 18 35 34 56
18 23 25 25 61 74 11 40 55 67 86 75 86 94 99 94 90 97 98 92 92 97 98 85 86 97 96 95 96 98 83 69 74 43 34 25 17 30 29 32 41 52 69 67
18 24 26 26 46 76 20 30 50 50 81 81 87 84 96 97 90 100 98 98 97 96 97 97 97 99 98 90 99 96 97 84 76 72 48 41 29 38 59 69 79 91 91 89
20 26 28 28 36 74 57 17 48 41 66 89 93 89 96 96 95 91 94 96 96 97 99 97 96 97 98 95 95 92 89 88 82 78 98 94 97 98 96 97 89 93 94 83
24 29 30 29 32 64 89 11 44 45 47 88 97 95 94 99 99 98 98 98 93 98 98 99 97 98 92 94 88 89 86 90 89 93 92 84 82 88 95 90 72 61 47 48
31 31 32 31 31 51 94 21 32 48 44 60 99 92 91 77 69 76 96 91 81 77 74 70 63 64 54 65 68 72 73 60 59 54 53 49 43 38 37 39 45 55 51 44
40 33 35 34 33 43 85 89 14 39 42 42 73 99 95 83 81 56 39 39 38 34 34 35 36 42 47 53 58 65 73 72 88 90 88 92 89 80 66 56 46 37 34 34
41 36 38 38 34 34 71 96 57 18 35 35 39 55 84 95 88 73 52 29 31 34 35 32 33 29 28 25 32 46 51 65 76 82 76 65 52 42 36 34 35 36 38 40
42 40 43 43 36 35 47 87 98 61 16 26 33 38 42 51 80 90 80 59 33 25 27 28 29 31 39 43 40 36 33 33 39 52 66 71 61 50 42 38 38 38 39 41
48 46 48 46 43 38 38 55 92 98 87 20 15 23 35 40 43 43 53 80 78 52 38 34 38 44 45 44 46 48 44 35 24 35 60 60 55 48 41 38 39 41 42 44
56 56 55 53 50 43 41 39 60 94 96 100 64 16 15 24 29 32 35 35 37 49 65 66 62 63 60 56 54 47 34 21 18 33 63 65 54 44 42 43 44 46 48 50
99 72 65 73 73 52 46 43 50 72 98 98 98 98 64 20 18 22 22 25 29 31 31 28 25 27 31 32 22 18 20 27 50 64 60 54 48 44 44 45 45 44 43 45
99 95 94 92 83 67 54 48 51 61 86 96 91 85 96 96 74 44 32 30 28 27 31 32 34 33 30 28 45 86 76 69 62 53 49 44 39 37 37 39 42 49 53 57
100 100 99 94 90 80 65 55 50 57 64 81 89 89 99 97 96 96 97 96 93 86 78 72 67 64 61 57 45 42 40 38 36 35 36 42 50 56 56 55 56 60 72 80
100 98 96 97 95 94 79 62 54 50 58 59 65 81 90 92 94 94 95 97 96 90 90 89 84 83 91 96 91 89 81 77 77 78 74 67 61 58 58 62 75 79 77 77
98 96 100 100 100 100 90 72 60 54 50 52 57 60 62 66 69 69 68 65 66 68 72 79 75 78 88 90 82 75 70 63 57 54 54 58 59 60 79 83 81 79 71 66
100 100 100 100 99 97 91 78 66 55 52 50 51 56 60 60 57 56 56 59 59 56 49 47 45 48 48 49 50 50 52 54 61 68 74 85 92 89 86 72 61 57 53 49
100 100 100 100 98 91 76 71 72 75 64 56 63 66 64 61 57 53 51 50 49 49 47 45 47 50 53 56 64 75 81 90 94 97 99 98 84 70 61 55 50 48 46 46
100 100 100 100 92 78 69 78 86 91 100 100 97 87 84 91 86 79 75 69 66 54 53 67 90 93 90 90 91 94 98 100 100 99 89 74 64 58 54 50 48 48 49 48
100 100 99 88 70 67 75 85 91 100 100 100 100 100 98 97 84 80 78 71 68 71 81 93 100 100 96 90 89 91 92 90 86 78 70 62 55 50 49 50 51 49 48 47
100 98 90 81 72 72 82 90 100 100 100 100 99 97 95 97 98 90 84 74 67 73 72 88 95 86 80 84 86 84 81 77 72 69 62 54 51 53 56 54 50 50 48 44
96 89 89 86 84 83 88 100 100 100 100 100 100 100 99 93 94 94 92 80 78 74 72 76 80 78 72 69 69 70 69 66 62 59 56 55 52 54 55 54 52 50 46 41

GFSNW_500_rhum_015.txt.gz
RH
47 36 18 15 22 21 47 17 56 66 82 88 99 100 99 97 97 97 98 42 37 32 38 35 41 64 98 93 78 74 81 76 90 76 83 77 65 91 82 75 54 47 46 52
47 36 17 16 22 22 51 11 56 61 78 89 93 98 97 96 98 95 99 86 35 37 40 43 46 67 87 83 81 77 84 78 77 90 84 70 62 53 55 58 66 43 42 39
46 34 17 16 22 23 55 9 53 59 77 93 95 98 98 97 98 100 100 100 84 73 55 44 53 65 86 91 93 93 88 90 81 73 62 66 63 53 51 59 58 50 45 63
44 33 17 17 23 24 60 9 51 67 76 96 98 97 98 98 98 94 89 86 86 66 61 60 69 77 92 91 96 86 80 73 72 70 61 60 56 58 65 66 68 68 78 77
41 30 18 18 24 24 65 10 54 76 80 94 98 96 98 98 98 82 88 72 67 69 72 92 72 64 78 90 80 75 76 89 80 78 69 70 62 63 65 64 67 72 84 46
41 27 19 18 25 24 65 23 56 92 85 84 94 98 97 97 99 91 96 99 88 87 88 84 91 96 97 99 99 94 96 92 89 85 87 97 72 75 84 90 95 82 56 16
41 28 20 18 26 25 62 54 48 92 100 80 86 96 97 98 96 96 95 90 94 96 87 91 98 98 95 99 94 99 99 100 96 99 95 86 92 81 72 65 57 28 16 19
40 31 20 19 26 28 51 65 32 97 100 80 83 94 98 98 98 98 98 89 99 86 78 87 96 98 95 91 99 93 98 96 93 94 93 79 74 55 26 24 29 24 29 41
40 31 20 21 28 29 45 80 21 93 100 90 87 92 98 96 97 99 98 95 98 98 97 97 94 87 96 95 94 96 96 96 98 74 82 71 91 77 53 36 36 56 86 87
47 28 20 22 29 31 44 90 19 66 100 100 93 97 94 98 98 96 98 97 97 99 98 99 99 98 98 96 95 98 98 99 89 91 89 82 96 98 97 98 95 96 87 80
56 30 21 22 30 33 38 84 43 34 99 100 98 98 93 97 99 98 96 98 98 98 99 99 96 91 88 97 98 95 97 93 100 88 86 88 91 94 86 83 78 73 73 67
77 38 23 24 31 35 36 72 84 20 84 100 100 94 96 96 94 94 100 96 97 96 97 98 100 100 98 83 78 89 92 75 73 64 52 57 56 56 65 58 56 75 62 64
96 63 29 27 32 37 34 57 94 22 50 100 100 98 97 95 86 88 92 95 89 83 70 74 79 75 72 69 73 66 69 83 90 89 89 87 83 80 80 74 71 42 35 34
97 88 44 31 32 38 37 49 77 76 20 63 100 90 91 97 94 85 79 53 38 38 39 40 40 45 50 56 65 56 41 44 36 31 33 50 69 76 74 57 45 40 39 38
100 93 58 34 34 40 40 40 61 91 36 24 66 95 80 76 93 95 86 68 46 34 34 34 34 36 39 33 37 45 46 45 45 44 38 23 23 38 61 65 61 55 49 42
100 91 84 38 38 43 42 38 42 70 92 34 22 47 86 80 60 61 79 81 71 64 53 35 26 26 27 30 38 49 54 56 53 49 31 18 15 31 64 67 57 49 45 43
100 99 74 47 46 47 46 44 42 46 72 94 68 26 25 51 58 54 47 45 43 47 55 58 58 58 47 44 46 50 49 50 45 27 15 18 35 62 68 62 49 43 41 41
100 98 78 56 56 52 50 50 46 44 53 64 86 89 59 23 19 27 38 40 39 37 34 32 33 33 32 26 27 26 24 22 21 24 43 67 71 63 49 43 38 36 36 45
91 99 97 77 74 67 58 58 53 50 47 48 42 69 99 99 87 47 23 22 22 24 24 24 24 25 25 27 39 69 93 74 75 77 71 59 46 34 32 38 62 69 65 59
100 94 92 88 94 86 86 87 68 62 55 48 39 69 96 94 97 97 94 83 64 36 30 23 22 19 59 68 63 59 59 56 54 55 53 64 79 87 87 77 59 57 63 75
96 96 100 100 100 100 98 96 87 72 65 56 48 51 82 94 92 94 95 94 95 94 89 91 79 78 93 95 90 88 92 96 97 98 96 87 71 56 54 56 65 78 80 75
95 100 100 100 100 98 94 87 82 75 72 65 54 55 59 71 79 84 87 87 86 79 71 70 64 62 67 70 68 63 62 61 58 55 53 52 54 63 75 82 83 79 63 58
100 100 99 100 98 96 84 73 66 66 67 69 63 62 62 65 62 60 64 66 62 59 54 49 50 54 53 52 52 51 51 52 52 54 62 74 84 88 89 87 73 64 60 59
100 99 98 100 92 82 70 75 83 90 94 98 99 95 73 69 65 63 62 57 54 48 48 50 50 54 59 58 56 56 64 76 90 93 86 83 85 90 89 81 70 62 56 50
100 100 100 89 75 71 78 87 97 100 100 97 98 99 91 79 65 62 57 54 48 51 67 66 64 71 82 92 98 95 92 88 84 87 91 93 89 80 70 62 55 51 48 44
100 100 95 86 90 84 85 97 100 100 99 100 96 97 96 90 84 78 74 66 64 69 81 79 80 88 95 97 96 90 81 73 73 73 74 73 69 63 59 57 55 51 46 43
100 96 90 88 91 93 94 98 100 100 99 98 99 99 98 92 87 79 75 80 94 96 92 88 95 99 100 100 94 85 80 78 75 72 70 67 64 60 56 54 51 46 43 43

GFSNW_500_rhum_018.txt.gz
RH
59 59 50 48 47 26 15 22 53 32 54 89 97 99 98 98 98 98 77 36 26 38 40 42 43 60 70 78 74 70 75 72 81 73 93 99 98 97 80 67 61 52 50 52
60 55 53 50 46 22 16 23 58 28 58 95 97 99 98 96 98 91 97 44 26 24 30 38 50 98 97 80 70 56 68 70 70 77 73 83 84 85 76 69 59 71 72 49
67 62 55 51 44 19 17 24 61 23 65 97 92 91 98 97 98 94 100 96 29 22 33 36 40 77 96 96 94 88 79 74 71 62 57 65 60 73 72 82 76 58 54 66
89 68 55 50 39 17 18 29 64 24 67 97 99 94 99 98 98 99 100 92 62 32 31 37 37 48 79 90 95 95 91 77 76 71 75 69 72 93 90 72 66 60 66 82
92 60 54 48 34 17 20 30 64 22 64 98 99 97 98 98 97 96 100 99 94 54 50 46 42 49 80 84 80 80 88 86 87 85 74 73 69 73 73 66 58 46 45 43
96 68 51 42 30 19 23 36 67 18 66 98 93 96 99 98 97 94 79 73 67 54 63 73 88 81 92 98 97 96 91 94 97 93 83 76 71 65 62 59 55 52 48 79
98 98 82 37 21 20 25 37 71 22 73 98 90 98 98 97 97 97 85 80 65 58 60 62 61 77 90 93 88 98 97 98 89 93 79 61 70 70 67 59 57 57 64 77
97 82 46 31 20 20 26 34 72 34 78 99 94 93 98 98 97 94 98 100 100 95 98 100 97 74 86 98 98 97 96 92 88 86 77 76 74 75 82 78 76 77 77 71
99 66 42 27 20 22 27 38 72 45 71 99 95 82 98 98 98 99 90 94 98 95 83 91 86 83 81 86 97 88 74 98 87 82 83 85 95 84 78 76 53 34 31 27
94 61 44 27 21 22 28 37 76 48 57 98 97 83 98 98 96 98 98 96 97 95 94 91 95 96 95 93 86 77 79 85 99 96 98 87 93 82 76 74 85 82 68 57
98 87 56 28 21 24 30 38 81 71 40 94 99 92 96 98 97 95 91 98 97 98 97 95 98 95 87 96 96 97 95 97 98 95 85 84 95 100 99 90 90 93 90 90
97 67 34 25 22 25 34 32 68 97 26 69 98 98 89 97 98 98 97 100 97 97 97 95 97 97 98 99 99 98 99 98 97 92 93 90 96 96 89 71 68 70 71 69
100 96 58 24 24 27 38 36 57 100 34 38 93 99 97 92 97 96 98 98 98 99 100 99 96 96 96 94 98 97 92 87 78 71 69 81 97 98 99 98 97 100 96 91
100 100 75 25 24 33 36 37 58 92 85 27 72 99 100 100 99 96 96 97 98 97 98 97 99 99 98 91 88 85 81 70 81 84 74 61 55 62 74 80 80 77 62 46
100 99 56 29 25 32 37 38 46 72 100 36 41 84 98 100 100 99 96 95 97 97 94 74 84 86 78 77 80 76 77 65 46 40 40 43 41 29 18 17 25 44 62 67
99 98 85 45 29 31 36 39 39 56 91 94 26 50 86 99 100 99 99 96 87 50 41 41 42 42 45 50 55 62 49 46 47 48 52 54 54 46 24 18 19 34 68 75
100 100 99 94 44 32 38 44 41 43 74 97 85 28 40 77 97 100 100 98 92 76 57 44 44 37 39 43 42 42 38 40 50 57 51 47 44 27 19 21 41 61 69 67
100 99 100 100 81 40 38 48 46 49 66 77 89 92 48 25 48 84 99 100 99 89 78 60 47 46 35 28 36 47 50 44 34 27 25 24 22 22 29 49 68 69 56 45
100 100 100 99 96 82 44 45 50 50 58 62 43 50 88 80 38 29 37 63 77 70 56 48 50 47 42 42 42 34 30 29 28 28 29 37 51 70 78 71 51 37 35 48
100 99 98 92 93 97 66 55 60 74 69 55 44 43 52 90 98 87 45 30 25 27 30 37 35 26 28 27 27 27 26 28 41 68 75 62 51 48 46 51 72 90 94 82
97 92 87 99 96 82 72 68 69 68 65 56 49 47 47 54 68 89 97 88 82 66 41 35 19 18 22 25 26 26 46 69 67 66 72 80 89 95 92 86 76 62 53 56
91 98 99 100 99 98 92 82 78 69 68 64 60 58 53 48 51 57 72 90 96 90 86 89 76 84 86 92 84 85 87 92 91 87 80 70 63 59 56 54 52 55 75 89
100 100 96 97 96 90 70 63 61 59 61 72 76 71 64 57 51 56 67 67 64 69 71 70 76 91 88 79 72 67 59 52 49 49 51 54 54 54 52 58 82 96 87 83
100 100 94 100 91 84 70 78 81 83 93 100 98 98 96 79 67 66 67 63 61 60 53 53 56 57 55 53 52 51 53 54 53 53 53 53 56 71 93 95 86 79 70 66
100 98 100 94 85 81 86 87 96 100 100 100 97 95 99 100 90 76 65 63 62 58 58 58 55 55 53 51 51 54 59 64 67 70 76 89 93 86 79 73 67 67 67 63
100 100 91 86 90 88 96 100 100 100 100 100 93 97 99 97 91 84 79 70 63 62 63 68 68 66 68 68 64 66 74 83 92 98 91 82 75 74 74 71 68 64 64 66
99 90 79 90 91 93 100 100 100 100 96 98 99 100 99 95 93 88 89 92 98 99 96 88 82 79 84 85 82 80 84 93 100 99 89 82 77 72 69 67 68 70 65 54

GFSNW_500_rhum_021.txt.gz
RH
100 100 97 96 34 30 39 39 37 22 35 40 45 91 98 97 98 98 100 42 36 43 56 58 54 92 99 78 94 95 99 98 97 85 86 76 57 73 77 68 58 60 52 57
100 100 100 99 67 40 40 38 28 18 43 36 54 96 98 98 98 98 100 44 31 33 42 45 72 77 83 97 97 94 99 94 97 98 97 87 78 82 77 72 55 64 74 63
100 100 98 94 65 51 44 37 20 21 49 28 63 97 98 98 98 98 98 88 32 27 35 42 88 64 72 94 98 98 93 87 98 99 97 98 79 68 71 67 62 66 64 78
100 100 98 99 92 63 41 34 18 34 51 30 72 97 98 98 98 100 94 94 32 27 33 40 60 65 68 79 96 95 84 79 79 71 73 78 95 96 96 95 84 78 84 84
100 100 99 94 81 52 41 22 19 44 40 36 84 98 98 97 98 100 100 100 91 29 34 43 81 96 70 66 72 70 74 82 84 85 80 83 78 73 65 66 76 68 83 71
100 100 100 93 86 47 30 20 20 53 30 40 87 98 98 98 97 98 100 100 100 41 36 42 74 98 96 87 92 95 84 78 83 88 76 69 68 61 61 57 52 67 60 70
100 88 90 94 68 38 26 22 26 64 26 45 95 98 97 97 97 97 94 95 100 86 52 38 45 44 56 64 78 87 93 96 87 85 81 62 52 61 60 59 62 65 62 63
100 100 100 92 54 34 23 22 34 80 25 54 99 98 98 98 97 99 91 72 60 89 61 50 46 45 51 60 73 94 97 90 90 87 91 83 86 74 71 69 70 65 59 53
100 100 100 66 43 31 21 27 40 82 38 52 95 100 96 98 98 98 95 78 63 66 69 72 61 54 57 65 70 84 96 99 91 89 87 86 85 77 71 67 80 78 76 76
100 91 86 86 85 28 23 30 41 81 56 49 93 99 98 98 97 98 98 99 95 91 78 87 84 65 70 88 84 80 91 85 84 86 83 86 94 92 90 85 82 76 66 46
100 100 98 99 80 25 23 34 46 80 66 39 83 96 91 98 97 99 98 98 90 96 100 100 96 90 74 80 96 98 96 96 85 92 94 95 94 98 97 94 92 90 90 96
100 100 94 89 36 24 25 36 52 78 83 34 66 93 95 97 98 95 96 98 97 99 96 88 99 93 96 86 91 94 94 84 95 97 100 98 97 100 96 96 94 92 84 82
100 97 99 84 33 24 29 45 56 70 90 41 49 88 96 95 98 98 98 96 98 98 97 98 98 97 92 97 96 99 95 99 95 97 97 98 98 93 83 77 76 76 90 90
100 100 99 90 46 26 38 42 58 63 78 90 40 75 90 96 96 98 98 98 99 97 98 97 98 98 98 98 96 97 93 97 99 94 91 79 88 95 91 88 85 82 80 78
100 100 100 99 66 30 43 45 50 55 60 99 44 45 95 96 93 94 98 95 87 98 98 94 97 97 96 96 91 96 96 98 78 88 91 63 42 42 41 37 28 20 16 16
100 100 100 72 36 35 44 44 45 49 46 88 88 36 94 100 98 92 95 96 99 100 100 99 98 97 97 97 100 96 95 78 69 50 39 45 48 51 52 53 53 38 18 15
100 100 100 100 93 36 36 38 48 50 48 66 99 62 33 89 100 99 94 94 96 96 98 93 75 80 86 95 96 95 92 85 59 46 48 45 48 48 40 35 30 22 20 22
100 100 100 99 98 47 38 43 53 59 59 54 84 99 60 31 55 90 100 100 98 93 92 70 60 59 44 43 56 64 65 60 46 42 37 44 42 31 26 27 27 28 32 61
100 100 100 100 88 56 47 45 54 60 76 64 56 75 99 74 37 34 53 85 93 97 96 90 79 59 50 53 66 69 59 56 46 41 43 43 34 29 28 28 36 66 74 58
100 100 100 93 84 79 55 56 61 66 56 58 58 68 77 100 100 87 44 30 36 59 75 90 85 69 81 78 82 92 82 62 54 47 41 31 27 26 26 52 65 55 55 67
100 97 99 100 100 100 95 68 57 62 60 61 53 54 62 64 73 83 93 76 48 28 27 35 41 42 40 38 38 37 34 30 26 25 24 22 20 36 61 64 81 95 96 90
94 88 99 100 100 99 97 85 65 58 57 59 58 59 63 59 55 56 58 70 85 82 64 57 27 42 46 35 26 22 20 20 21 23 23 33 61 81 90 88 75 61 56 55
100 100 100 100 96 90 74 60 57 63 59 61 66 71 67 61 56 56 62 68 58 63 69 69 74 79 76 78 81 79 79 80 82 80 77 71 65 57 54 55 55 55 54 62
100 99 95 99 81 64 55 57 64 78 76 82 95 100 98 91 84 78 70 62 53 52 48 56 70 74 77 82 84 81 77 70 64 61 57 55 55 55 55 55 55 67 91 85
100 98 98 87 73 68 68 69 75 86 97 100 100 98 100 100 94 85 76 72 61 52 50 57 60 58 56 55 53 52 50 50 50 50 51 53 58 65 70 85 98 89 78 74
100 99 80 80 82 78 85 86 96 100 100 100 96 98 98 97 97 90 86 76 68 63 61 61 59 57 54 52 52 55 57 59 60 63 72 88 100 100 100 96 84 76 73 69
100 95 87 82 85 91 100 100 100 100 98 100 100 100 98 97 97 91 94 93 96 96 92 82 71 67 64 63 65 67 69 71 74 80 94 100 100 100 100 93 83 78 77 80

GFSNW_500_rhum_024.txt.gz
RH
100 100 100 100 100 100 100 30 20 26 32 36 24 49 40 94 99 98 98 66 31 45 25 46 71 79 78 83 100 96 100 100 100 93 98 98 99 96 78 78 78 94 81 59
100 100 100 100 99 100 82 24 25 32 36 33 29 53 40 98 98 98 98 98 30 42 41 46 52 95 97 98 98 99 100 100 81 62 96 98 98 93 83 65 88 92 70 62
100 100 100 100 100 100 38 30 30 36 35 24 39 44 53 98 98 97 98 91 34 31 43 49 43 94 90 95 99 98 96 98 98 96 62 71 74 82 94 82 89 74 63 55
100 100 100 99 98 94 41 30 34 36 28 24 48 35 85 98 98 97 97 87 31 28 39 44 61 84 81 94 99 97 98 98 98 98 97 96 78 80 91 74 69 68 80 68
100 100 99 100 93 89 58 47 52 32 31 50 51 45 98 98 98 98 96 89 38 28 35 43 87 77 98 99 91 100 100 100 97 90 95 96 91 88 81 80 71 62 74 85
100 100 100 100 100 94 64 73 40 28 30 70 41 50 98 98 97 98 99 89 91 29 34 41 72 71 85 92 97 100 100 100 85 88 87 87 79 82 75 86 82 82 78 88
100 93 99 85 88 96 84 73 33 25 47 71 31 83 98 98 96 98 99 94 98 33 31 38 49 80 79 76 72 81 80 82 91 92 87 86 83 74 72 70 65 62 76 81
98 96 100 95 94 99 98 45 28 25 54 76 39 96 98 98 98 97 95 90 100 93 32 37 57 75 74 83 86 93 97 93 88 98 88 87 80 72 70 67 59 52 53 71
98 100 100 98 94 84 98 32 25 31 75 58 60 100 98 98 97 98 91 86 91 91 45 39 35 38 41 56 60 56 54 74 80 84 83 94 94 87 75 62 70 66 67 64
97 100 100 97 93 92 66 30 29 38 87 61 63 100 99 94 98 98 98 81 64 77 58 38 40 40 41 44 47 52 62 77 80 83 80 81 99 97 82 77 81 80 79 71
99 100 98 98 94 96 37 29 29 46 90 68 58 100 100 98 98 98 98 91 86 64 66 63 51 49 51 52 64 79 78 82 85 90 80 96 93 96 100 99 93 80 78 79
96 100 100 100 100 87 38 29 32 48 93 96 46 95 98 96 98 98 98 98 95 93 77 81 86 84 77 64 76 81 85 86 94 98 98 97 98 98 95 96 98 97 96 91
98 100 100 100 100 97 56 32 38 52 98 98 43 65 92 98 98 98 98 96 98 96 98 99 90 98 99 90 76 89 92 92 92 95 95 94 100 95 90 89 90 90 88 93
98 100 100 99 100 99 99 34 46 64 96 100 53 52 82 93 92 99 98 96 97 98 99 98 97 96 96 95 98 94 97 97 93 91 95 98 99 97 93 84 95 96 91 86
96 100 100 100 100 100 54 32 50 69 94 99 87 50 63 83 82 98 99 100 99 99 98 98 97 96 96 97 94 89 95 96 94 96 95 96 81 84 84 63 44 34 32 31
100 100 100 100 100 75 33 33 49 60 74 91 98 73 54 60 84 94 98 98 96 95 93 97 100 98 94 93 99 94 97 99 98 97 84 94 71 47 48 52 54 55 52 46
97 100 100 100 100 77 33 36 53 60 73 79 94 98 58 51 88 94 91 97 98 96 95 99 97 96 94 99 98 97 96 97 95 92 93 72 49 49 50 47 42 29 24 25
96 100 100 100 100 91 63 44 56 61 65 73 70 89 98 45 81 100 98 87 88 98 97 98 100 100 100 98 96 98 98 95 90 86 60 50 50 44 38 40 36 31 28 27
99 100 100 100 100 98 64 48 52 57 70 75 66 73 95 86 41 52 87 93 88 86 92 98 94 84 74 88 91 87 87 83 89 81 73 52 41 34 37 38 37 32 26 22
100 100 95 94 94 75 64 60 55 54 59 69 85 64 74 99 100 60 37 36 53 71 79 82 74 86 96 96 93 82 73 66 61 62 61 58 52 45 42 42 31 23 23 45
100 96 87 94 100 100 99 90 51 47 51 57 62 68 78 78 90 100 100 93 61 42 40 48 58 70 88 95 85 82 85 83 78 75 70 71 63 53 30 23 22 28 47 71
94 96 93 100 100 99 99 89 76 57 49 50 52 73 78 85 91 92 89 92 86 71 68 47 33 43 36 40 43 42 41 36 30 27 24 24 23 22 23 33 54 82 99 100
100 100 100 100 97 90 77 60 59 53 46 49 62 72 88 91 88 80 68 58 52 55 57 62 83 93 80 59 54 52 52 51 53 52 46 47 52 74 90 92 96 84 63 57
100 98 92 100 94 74 66 75 84 77 65 64 76 96 99 98 90 83 72 61 57 54 51 54 72 81 85 84 83 80 83 86 89 92 93 94 85 76 66 61 58 58 57 55
100 91 91 94 75 76 79 91 100 100 100 100 100 95 98 99 87 84 76 68 62 60 61 61 58 61 71 76 77 77 78 78 76 70 67 65 62 59 57 59 64 70 74 83
100 94 86 96 88 81 88 100 100 100 100 100 94 92 87 85 86 82 82 74 72 75 72 68 64 59 58 58 59 58 57 55 54 54 55 57 60 63 71 85 95 99 100 100
100 91 80 79 86 89 99 100 100 100 98 98 95 95 91 85 90 88 82 83 90 90 89 85 80 72 64 61 57 55 56 57 58 62 65 68 71 75 83 98 100 100 100 100

GFSNW_500_rhum_027.txt.gz
RH
50 24 40 100 100 100 100 96 79 88 92 66 41 24 40 41 47 92 99 98 99 37 28 36 32 26 40 58 100 100 71 61 68 94 85 96 94 98 99 94 98 96 87 48
18 32 98 100 100 98 100 93 91 82 91 52 31 28 36 46 59 100 98 99 100 39 34 31 46 44 40 92 100 100 98 98 100 99 96 98 95 98 98 98 100 96 77 67
83 99 100 98 98 100 99 100 88 100 74 25 24 38 34 52 93 99 98 100 71 34 38 31 43 61 40 79 98 99 99 98 98 99 97 99 97 97 91 99 93 96 92 75
100 100 95 100 100 100 98 78 90 92 28 26 42 37 48 43 96 100 98 99 93 35 35 42 42 47 63 94 99 98 96 99 100 51 98 97 98 88 94 98 98 95 94 88
87 80 99 100 100 100 90 81 100 38 34 49 35 26 54 57 99 98 97 99 87 27 36 43 46 71 90 99 97 98 99 99 100 74 62 95 96 91 94 98 95 90 97 92
100 100 99 100 100 100 82 90 64 92 45 54 48 76 50 95 97 98 98 100 70 29 32 34 54 71 70 88 98 93 96 98 98 98 96 85 75 76 77 92 100 98 92 84
100 99 100 100 92 75 95 88 47 49 55 44 63 88 59 98 98 98 96 89 58 27 25 36 47 63 88 78 77 84 91 87 88 94 96 96 90 93 84 97 97 93 95 95
96 100 100 100 100 100 100 85 62 95 63 49 84 59 85 98 98 98 97 91 63 49 34 33 45 55 68 71 84 80 83 82 82 86 95 93 87 83 88 85 82 86 85 97
100 97 99 100 100 92 97 99 95 88 45 74 100 45 98 99 100 100 98 94 73 86 42 40 37 42 58 55 64 63 76 83 87 93 94 91 81 81 74 80 72 57 64 68
98 81 98 100 100 100 100 89 96 45 49 100 86 64 99 100 99 98 98 98 86 80 88 46 50 49 48 63 70 68 72 84 79 84 88 87 93 91 93 89 71 64 61 65
82 79 100 100 97 99 98 96 63 38 60 100 67 85 100 99 99 98 98 98 76 93 83 51 45 54 71 72 67 60 55 54 69 87 95 94 89 86 92 89 80 70 68 73
82 100 97 100 100 100 100 92 46 47 83 100 63 77 98 99 97 96 97 98 91 87 74 55 42 39 45 48 50 52 57 74 87 93 97 95 90 90 88 87 87 84 84 81
93 93 100 100 100 96 99 85 47 52 92 100 85 55 99 99 96 97 99 98 98 97 100 74 78 70 70 76 74 73 84 84 94 94 96 97 98 91 92 95 92 88 91 95
68 99 100 100 100 100 100 72 44 56 90 100 97 64 94 99 97 98 98 98 96 99 96 96 100 99 92 98 97 84 84 82 97 100 96 92 97 88 93 95 90 86 84 90
87 100 100 100 100 100 100 82 45 54 78 100 97 76 65 98 98 98 99 92 96 98 94 96 97 96 95 98 94 98 99 99 100 95 90 90 88 97 97 96 93 94 61 43
90 100 97 100 100 100 99 77 40 55 80 99 100 84 66 73 98 97 100 90 98 99 100 100 100 100 98 93 89 87 92 93 96 97 95 96 97 93 91 55 46 50 55 59
100 100 100 96 97 99 96 100 88 58 78 94 100 98 85 69 82 97 98 99 98 97 89 93 99 93 89 94 95 95 93 97 99 100 100 98 96 86 51 53 56 55 47 35
97 100 100 98 100 100 99 100 73 61 69 76 94 100 96 82 69 91 98 97 98 98 98 97 97 97 95 95 92 95 94 100 100 98 94 97 92 65 54 50 45 45 40 36
87 100 100 100 92 98 100 85 60 62 60 59 77 92 99 96 62 70 96 97 96 94 96 100 98 96 98 98 98 95 98 100 99 100 97 96 81 57 53 47 46 44 41 40
89 100 100 87 82 100 100 96 67 53 56 50 61 80 73 95 95 49 55 88 88 84 88 81 89 98 97 95 93 94 93 92 94 98 99 97 88 71 74 60 49 50 53 38
100 100 99 87 100 100 98 94 70 45 39 39 52 75 69 82 99 100 79 44 37 42 56 69 68 97 94 87 86 79 78 71 79 77 67 66 70 67 70 66 62 45 28 25
100 100 99 97 100 100 92 80 80 60 49 41 48 65 94 74 77 95 100 100 86 58 55 46 54 53 67 69 76 82 84 82 73 74 78 76 52 40 33 30 28 29 34 61
100 100 100 100 98 91 71 57 56 55 52 42 54 62 95 98 100 100 94 95 88 82 75 75 94 88 67 46 38 34 34 39 42 40 35 32 34 39 39 43 57 84 98 92
100 100 97 99 88 72 63 65 75 78 68 60 58 67 86 96 96 84 75 80 77 68 57 58 61 70 84 88 87 85 72 63 64 71 77 81 87 91 94 95 89 81 78 74
100 100 83 59 58 67 75 79 82 92 100 100 100 98 93 97 87 76 73 70 64 62 63 62 63 62 59 64 74 86 90 90 89 88 89 90 91 90 86 82 72 63 61 65
100 96 59 49 60 76 93 100 99 100 100 99 93 91 87 84 82 74 72 69 69 76 89 79 74 71 66 60 55 58 64 69 72 72 71 66 62 59 58 58 66 75 84 92
100 88 62 54 64 94 100 100 100 100 94 98 99 95 93 91 93 76 72 76 85 85 90 87 85 81 77 72 66 60 57 56 55 55 54 56 60 65 71 75 77 82 90 97

GFSNW_500_rhum_030.txt.gz
RH
100 100 100 69 14 81 100 85 100 100 100 90 56 64 54 46 30 32 38 44 84 98 91 36 28 21 25 46 64 92 95 100 96 100 99 89 61 92 57 54 59 51 34 46
100 100 99 86 27 76 96 88 100 100 100 82 60 63 72 31 36 47 49 76 98 97 88 32 30 30 30 58 81 97 100 100 100 91 92 73 98 64 52 56 57 96 100 90
68 75 100 15 24 52 96 100 100 100 99 89 84 83 53 30 46 49 80 97 98 96 44 31 26 31 47 59 98 97 98 98 98 99 100 98 96 98 87 94 94 100 98 94
16 81 87 95 100 100 100 100 94 68 53 73 71 84 39 42 51 60 95 99 98 78 33 33 29 40 51 89 97 95 98 100 100 97 96 100 88 98 97 99 99 97 97 96
100 85 100 100 100 100 100 100 100 90 63 70 100 44 38 54 73 57 94 99 98 86 29 34 35 42 38 97 99 98 99 99 99 98 98 98 89 99 97 97 100 100 97 98
98 100 100 100 100 100 100 100 100 93 69 100 65 42 62 65 66 78 99 99 94 65 33 31 34 30 72 94 95 100 99 99 100 74 99 94 98 100 98 97 98 98 97 94
89 100 100 96 99 100 100 100 98 85 94 95 64 88 85 100 83 98 99 97 98 46 31 17 25 30 53 71 72 84 98 97 98 92 74 77 74 80 84 78 81 82 91 92
68 80 91 98 100 100 100 100 87 94 89 100 86 80 100 87 96 99 99 99 97 37 29 27 29 47 65 53 70 68 79 83 82 95 94 96 95 85 75 78 94 97 67 62
55 64 82 99 100 100 100 100 96 91 100 78 78 80 100 97 99 98 99 97 82 45 31 29 32 46 54 43 54 68 62 71 87 70 82 84 89 95 96 95 96 90 80 73
62 84 100 100 100 99 100 100 100 64 77 92 69 95 98 99 98 98 100 98 92 74 39 33 36 38 47 50 54 59 75 62 61 77 78 77 84 81 78 89 87 86 82 72
61 76 91 92 94 100 100 100 100 74 95 76 97 99 99 99 98 99 100 100 96 92 76 48 35 34 41 52 56 70 81 64 66 84 79 83 87 96 95 77 75 74 66 61
72 76 93 96 100 100 100 100 100 97 78 73 100 99 99 98 99 99 96 88 97 99 95 77 48 41 55 62 85 79 72 59 57 67 80 87 95 97 98 95 92 81 84 87
49 61 84 100 98 100 100 100 98 94 60 96 100 96 98 99 99 99 99 98 98 94 100 99 83 58 47 51 60 52 50 56 81 86 86 90 93 97 97 98 99 99 99 99
60 68 79 100 100 100 100 99 100 56 64 100 100 98 97 100 100 95 97 98 99 99 89 89 84 75 54 67 80 65 60 84 86 94 90 100 95 95 95 99 100 100 100 99
64 67 94 100 100 100 100 100 92 53 76 99 100 98 93 99 99 96 95 99 97 98 97 82 89 89 84 97 96 98 88 85 90 85 90 97 95 92 94 97 98 98 96 94
74 88 95 92 100 100 99 98 69 56 72 100 100 98 90 96 99 100 93 100 100 98 97 96 99 99 98 94 98 100 96 98 95 93 97 94 99 96 97 97 97 96 70 45
76 88 91 94 99 98 96 95 88 58 71 94 100 100 96 86 94 99 92 82 94 97 97 94 97 94 89 87 98 98 92 98 95 95 96 94 97 98 97 89 61 55 62 60
73 86 96 99 99 100 100 100 96 53 66 80 99 100 98 93 84 92 99 100 100 100 99 97 97 94 95 97 97 97 97 97 97 100 96 100 98 97 94 81 68 61 52 47
79 76 99 100 98 100 100 100 100 70 44 56 84 99 100 98 94 78 96 99 100 99 100 97 97 93 97 97 96 96 95 97 98 98 100 98 98 97 94 80 62 54 50 49
76 87 92 95 89 100 100 98 98 94 76 40 60 83 97 96 97 87 86 99 100 100 95 93 96 100 100 98 96 98 92 94 97 97 96 95 98 94 90 88 70 57 53 57
92 94 100 93 100 100 98 98 92 76 68 33 50 74 85 86 98 98 81 84 92 97 99 92 96 96 91 96 94 94 98 100 98 97 100 98 97 96 90 78 73 72 70 67
100 100 100 100 100 100 94 82 68 65 60 36 45 70 80 89 89 100 100 95 65 49 48 50 84 88 84 83 85 88 89 83 84 86 82 86 86 81 84 86 81 71 48 34
100 100 100 100 98 90 68 58 52 54 65 50 50 64 92 95 95 90 96 99 99 93 94 90 77 68 66 65 66 65 67 84 89 92 92 87 82 89 84 54 35 30 32 39
100 100 100 100 87 67 52 52 69 94 96 93 68 59 64 81 100 100 90 94 88 88 94 92 81 77 74 80 76 68 57 48 45 43 46 47 45 44 50 63 76 86 94 96
100 100 98 77 64 65 63 71 94 98 98 100 100 98 86 83 83 87 91 93 82 79 96 94 91 76 64 60 63 74 84 87 88 87 85 86 89 94 93 95 98 94 80 70
100 100 79 66 59 58 70 84 100 100 100 98 90 90 83 74 69 65 68 73 75 80 93 91 93 87 78 69 66 62 55 54 64 75 82 86 89 91 91 89 76 69 65 66
100 99 73 56 53 60 72 88 100 98 98 91 85 88 94 95 95 82 74 86 94 86 88 86 85 84 83 78 75 70 65 59 55 55 57 58 58 58 57 59 61 66 70 74

GFSNW_500_rhum_033.txt.gz
RH
99 100 100 100 73 99 11 100 100 100 76 100 98 45 38 60 64 48 70 58 31 40 50 84 86 51 18 16 25 59 75 45 93 98 100 82 84 100 100 87 52 59 41 23
72 98 97 99 99 100 48 84 100 100 100 99 99 59 53 64 59 58 66 34 48 59 70 72 89 40 20 25 44 70 92 93 93 99 100 100 100 97 95 100 84 60 47 28
75 68 100 97 94 100 100 78 100 100 100 100 97 93 72 62 60 69 37 56 66 76 73 77 56 26 20 37 49 60 96 97 99 98 100 100 100 100 86 72 90 44 28 48
34 64 99 100 56 95 98 100 100 100 96 100 100 81 69 65 90 53 45 81 98 80 78 73 31 22 26 32 46 68 96 97 100 100 99 98 94 96 99 80 85 83 96 78
40 92 100 56 30 97 100 100 95 94 100 100 100 100 88 82 78 48 65 100 99 85 87 46 26 13 22 35 61 92 98 98 100 100 100 100 95 94 100 99 99 97 98 96
79 100 100 29 77 98 96 100 100 100 100 100 99 99 100 100 68 59 78 98 74 95 89 30 22 17 24 36 92 97 100 100 97 98 100 100 98 98 89 96 97 94 99 96
99 100 94 38 54 71 66 76 82 93 99 94 86 87 97 78 57 97 100 84 97 98 75 33 33 26 25 90 97 98 98 100 100 100 99 98 100 96 96 98 98 98 96 98
64 77 74 85 60 86 98 90 78 91 97 100 82 92 89 70 99 100 95 99 100 91 79 36 27 18 32 47 87 95 94 96 100 99 100 97 90 88 89 90 98 98 99 79
69 71 78 81 82 78 87 96 100 93 99 86 99 99 100 100 99 100 99 100 99 84 40 33 24 25 29 36 56 66 74 85 76 75 72 93 95 82 68 89 99 93 94 97
70 66 67 77 90 97 94 100 100 100 82 100 100 99 98 99 100 100 99 99 100 75 34 31 44 46 35 47 49 62 83 71 76 76 78 82 88 93 93 83 98 96 95 87
72 75 94 100 98 100 96 100 100 94 98 100 97 99 98 100 100 100 99 99 98 80 45 32 36 34 45 55 50 59 73 69 83 84 75 87 89 87 89 90 84 90 85 86
52 65 74 80 79 91 93 100 100 100 100 99 99 99 100 100 100 100 99 100 100 100 76 61 34 34 48 53 57 54 61 70 66 59 89 81 80 91 98 96 84 92 96 86
48 64 73 77 83 81 83 96 100 100 93 93 97 100 100 100 100 99 98 98 100 100 99 92 70 41 36 41 46 46 50 66 64 54 63 90 88 88 88 97 98 90 85 75
42 60 73 73 83 74 81 99 100 95 97 98 98 100 99 100 99 99 98 98 98 96 97 99 91 52 41 48 56 50 54 49 52 64 82 96 90 87 93 96 95 95 94 94
45 58 78 77 86 97 95 96 100 97 97 99 100 100 98 99 99 99 99 99 98 94 98 79 71 64 54 42 41 57 64 58 71 82 83 86 79 86 90 95 96 98 98 98
51 57 70 75 95 93 84 97 96 99 89 98 100 100 98 100 100 100 98 98 98 98 99 100 79 81 71 74 92 92 86 84 80 82 88 94 96 89 93 96 98 98 98 97
52 48 65 78 84 80 91 100 100 96 77 99 100 100 99 98 100 100 99 98 99 98 98 99 93 95 86 96 100 98 96 94 98 95 94 98 100 100 98 98 98 98 93 65
39 43 61 77 87 89 100 100 100 89 68 98 100 100 99 96 98 100 100 95 88 86 91 92 98 93 88 96 92 94 96 96 97 96 96 96 96 98 96 99 98 69 63 66
36 51 71 99 92 87 99 100 100 78 60 84 100 100 100 100 98 98 100 98 94 92 90 97 96 96 97 95 93 94 97 97 98 98 94 95 97 100 99 96 90 88 77 56
46 68 91 97 93 100 100 100 92 95 56 68 96 100 100 100 99 97 97 100 98 100 92 84 84 85 79 83 89 94 96 96 95 98 97 95 99 98 99 96 90 86 66 64
60 79 94 98 100 100 100 94 88 78 67 49 71 87 95 99 100 99 94 97 100 100 95 94 90 86 79 72 82 100 96 91 84 93 100 99 100 98 94 97 92 84 78 77
68 83 87 100 100 100 95 86 79 70 70 58 64 68 82 98 100 100 97 94 91 94 93 92 100 83 85 91 93 100 100 99 98 99 100 100 100 100 100 99 96 93 89 89
82 100 99 100 99 93 68 60 59 64 77 93 85 67 84 98 99 100 100 100 98 86 78 66 61 55 64 69 73 75 80 86 92 95 95 95 90 87 91 93 93 99 99 78
95 100 100 100 97 76 57 57 79 100 100 100 98 77 67 80 99 95 91 96 98 95 99 96 84 77 71 69 63 61 63 61 57 64 81 92 99 100 98 95 84 56 50 75
100 100 100 92 67 61 59 68 84 97 100 100 100 92 74 69 85 88 85 88 88 94 98 91 90 89 83 78 73 73 76 79 81 79 70 63 60 56 55 59 71 93 99 99
100 100 100 81 74 64 61 76 97 100 100 98 92 90 82 66 65 67 74 79 100 100 96 87 82 84 83 80 74 69 64 61 58 60 70 81 88 91 93 96 98 96 93 91
97 100 97 75 68 68 66 83 100 99 94 99 96 91 83 77 71 68 68 76 95 92 86 88 89 87 87 85 84 76 70 67 65 60 56 55 60 65 66 68 69 67 67 71

GFSNW_500_rhum_036.txt.gz
RH
49 97 100 79 100 100 84 15 8 73 100 100 100 96 85 97 97 60 38 40 38 28 30 38 35 57 91 66 25 21 23 22 33 58 91 99 99 100 100 100 89 100 98 41
14 71 71 98 100 100 98 30 77 100 100 99 85 67 90 100 98 70 59 54 43 40 42 37 42 95 85 41 27 24 33 35 44 58 86 100 96 100 100 100 100 77 93 38
12 32 91 94 100 88 87 68 100 100 96 100 96 83 100 100 92 76 66 53 47 56 42 41 80 88 60 20 21 25 27 44 68 89 98 100 99 96 100 100 100 94 61 38
16 74 100 87 91 64 76 63 98 100 79 95 88 100 100 100 83 74 64 55 60 54 42 94 97 70 24 18 19 28 32 48 93 97 100 99 98 94 96 100 82 32 39 52
20 77 92 98 66 63 100 100 100 99 89 94 100 99 100 82 79 87 81 69 56 41 85 100 100 37 17 16 22 30 45 94 98 99 97 97 100 93 100 95 34 28 46 88
12 57 86 100 71 90 95 100 100 100 100 87 94 99 92 94 83 83 80 59 44 79 100 100 97 27 22 28 31 44 96 97 96 97 99 96 99 96 86 92 100 71 92 100
40 75 89 48 83 100 82 100 99 100 98 100 100 100 100 99 100 100 78 52 62 91 82 100 81 26 26 34 67 99 100 98 97 92 95 90 96 97 98 62 60 52 97 76
71 90 75 46 85 91 92 98 100 86 98 100 99 100 99 100 100 75 66 96 98 100 99 88 58 25 30 78 90 90 99 100 79 91 79 79 86 80 94 86 68 76 77 96
86 63 24 64 76 96 95 74 84 88 96 98 92 89 91 92 96 81 95 100 100 100 86 78 33 24 29 50 46 81 94 96 87 92 77 73 82 69 80 80 97 92 98 95
75 46 42 76 66 81 98 92 90 80 89 100 94 90 95 100 92 97 100 100 100 98 95 80 33 21 33 37 57 77 92 92 100 100 100 85 72 79 68 76 76 94 98 98
40 34 51 54 46 57 71 78 89 82 98 100 94 96 100 97 97 100 100 100 99 100 91 45 25 23 30 39 59 64 80 82 83 96 100 100 98 82 85 80 83 90 93 96
42 48 52 52 58 68 78 85 87 97 100 97 100 98 98 98 98 100 100 100 100 100 52 30 26 35 39 34 57 68 75 75 73 64 66 96 100 100 98 90 86 80 80 78
45 52 59 66 70 79 80 98 97 100 96 91 100 92 98 98 100 100 100 99 99 100 99 60 37 33 40 46 45 64 62 70 66 53 54 59 90 96 98 100 98 95 92 90
44 59 77 84 81 79 94 98 94 86 94 100 97 97 100 100 100 100 99 99 98 100 96 92 70 42 34 40 43 49 55 56 50 45 51 61 88 83 96 97 98 99 96 96
32 58 68 71 74 72 91 83 87 96 94 94 91 100 99 100 100 100 99 97 97 100 100 91 96 79 54 35 34 42 45 44 43 45 58 82 91 96 95 97 95 98 100 100
35 53 58 69 77 77 76 71 89 92 88 86 94 100 99 100 99 100 99 100 100 100 95 98 88 82 58 52 43 44 40 49 57 60 79 91 94 96 97 95 99 98 100 100
36 45 61 74 70 68 70 90 100 96 97 81 99 100 99 100 100 100 100 98 96 96 92 92 100 93 60 52 52 44 66 86 92 85 85 89 95 98 98 98 98 99 100 99
39 52 64 78 73 89 93 99 91 96 90 82 99 99 96 99 100 100 100 100 98 97 96 96 98 84 74 94 96 96 97 99 91 96 92 96 95 98 99 100 100 98 98 95
38 49 66 74 82 87 100 100 94 96 82 76 98 99 98 98 99 100 100 100 99 97 96 92 88 85 83 96 92 93 91 93 94 92 94 95 97 97 97 98 99 100 95 78
41 53 61 65 86 94 100 100 99 97 92 71 86 100 100 96 97 98 100 98 93 82 84 87 95 96 80 88 90 95 93 95 97 100 100 98 98 97 97 98 98 97 96 96
38 43 51 64 84 95 100 100 94 92 78 67 68 89 100 100 100 99 93 97 97 83 84 78 81 76 77 81 87 86 89 91 96 97 99 100 99 99 100 100 100 100 99 98
28 37 50 70 86 98 97 75 74 85 88 72 63 77 96 99 100 100 98 94 90 96 94 96 92 81 83 80 78 76 85 93 98 95 93 99 100 100 99 100 100 99 97 95
36 44 58 79 95 99 78 64 66 85 99 97 80 72 93 93 96 96 97 93 94 95 96 94 91 84 79 78 78 79 87 90 92 95 97 98 100 100 100 100 100 100 99 98
34 52 66 93 97 85 70 67 84 100 100 98 95 90 84 78 77 93 93 92 95 100 100 92 85 73 66 62 62 61 64 70 72 78 91 95 95 97 97 98 95 96 96 96
14 56 91 81 68 65 72 83 90 100 100 99 93 86 82 77 63 67 81 84 90 97 95 100 100 100 95 91 86 76 74 76 77 73 66 60 61 65 73 77 71 62 62 77
8 62 100 91 71 65 70 85 98 100 100 97 95 95 85 74 63 56 61 67 79 96 91 92 91 92 90 87 86 78 69 64 65 69 74 76 80 86 90 92 95 98 98 100
3 58 99 100 84 69 67 80 93 100 98 100 95 92 99 92 75 62 56 66 84 91 82 86 94 90 82 77 77 77 76 74 71 68 66 61 57 59 70 81 90 90 88 81

GFSNW_500_rhum_039.txt.gz
RH
3 38 82 84 98 77 100 78 92 8 11 98 92 100 100 100 100 100 55 35 35 32 29 26 30 34 25 30 29 52 61 14 31 39 44 63 75 90 100 100 100 100 100 52
3 15 34 100 87 100 93 91 99 46 66 97 98 100 99 99 100 100 76 35 23 22 24 25 29 28 31 30 47 74 22 31 35 40 62 76 77 98 100 100 100 98 100 51
4 14 74 100 88 100 98 65 82 48 65 99 96 86 85 88 98 100 99 57 37 25 26 24 24 36 34 43 80 44 28 41 35 62 69 95 92 99 99 82 46 74 96 44
6 34 89 100 91 100 54 100 97 63 93 100 100 83 82 98 100 100 88 71 57 44 40 35 32 36 47 83 47 30 32 35 69 84 88 98 99 98 98 78 20 23 52 35
9 31 87 85 100 100 61 98 100 100 100 95 92 75 98 98 93 99 90 74 66 54 42 43 41 70 87 42 31 38 35 65 84 96 98 96 99 96 93 37 32 37 36 66
10 30 71 71 97 99 78 95 97 100 100 97 81 96 100 100 100 88 85 71 60 52 53 42 59 92 89 34 44 56 51 75 86 86 91 94 88 99 96 74 21 41 81 97
14 40 53 32 100 79 95 98 100 100 100 94 100 99 99 100 89 84 87 81 64 52 42 47 83 96 85 33 60 66 81 89 76 75 81 76 77 100 85 66 29 28 45 40
40 22 24 89 99 100 100 100 100 100 85 96 95 79 65 72 80 99 100 79 64 50 45 68 79 94 41 78 64 84 85 83 68 77 82 90 89 81 98 83 62 89 67 29
68 30 12 70 96 95 100 100 94 92 100 100 100 90 96 90 100 98 83 69 82 74 72 81 87 91 38 79 67 68 84 85 76 74 76 84 89 82 100 88 78 95 94 94
71 43 19 67 68 100 97 100 90 83 88 97 100 100 98 96 93 91 85 99 85 80 80 90 84 59 40 57 47 52 87 88 84 76 80 86 87 86 93 99 99 95 96 97
33 47 67 72 69 88 83 83 76 71 72 72 71 72 69 67 76 89 92 93 96 96 93 89 89 44 35 46 41 65 86 73 80 79 80 82 90 92 98 99 100 100 98 96
29 46 56 71 97 100 77 78 76 83 81 90 80 80 88 88 91 97 97 99 98 100 100 96 78 35 36 45 45 64 88 78 75 74 59 55 87 90 96 98 98 98 100 96
37 50 43 48 66 76 80 56 70 72 91 99 83 81 93 96 98 99 100 100 100 100 99 67 47 34 38 40 48 57 68 70 55 60 64 50 50 88 90 98 97 97 95 93
30 34 45 44 44 47 54 64 75 82 96 87 84 88 96 98 100 100 100 100 100 100 100 56 44 30 30 39 35 38 53 58 55 54 54 50 52 88 91 95 100 95 95 91
23 35 44 51 50 60 66 71 74 83 99 84 88 94 100 100 100 99 100 100 99 100 100 86 47 33 33 28 33 35 34 45 53 54 48 48 72 91 98 91 94 96 94 93
13 30 54 63 61 68 61 74 72 86 94 92 94 99 100 100 100 100 100 100 99 100 100 99 82 66 43 34 30 34 31 37 43 47 53 57 87 96 88 90 94 93 94 91
13 36 60 77 75 69 70 81 86 83 87 93 98 100 100 100 100 100 100 100 99 98 100 98 94 81 63 64 69 45 37 40 48 72 76 73 83 92 97 92 97 98 96 97
13 37 57 62 64 77 83 92 83 80 87 88 97 99 100 100 100 99 99 99 99 97 97 94 94 86 68 85 67 50 54 58 81 88 91 93 99 98 99 97 99 91 98 99
20 29 46 69 82 88 88 89 91 86 92 86 93 100 100 100 100 100 98 99 100 99 97 95 90 96 89 96 87 100 81 81 84 90 91 96 93 98 98 98 99 92 91 98
26 39 49 78 84 95 97 94 82 87 89 90 98 100 100 99 99 100 100 99 100 100 98 97 98 94 86 92 86 88 86 85 86 98 97 98 97 98 98 98 99 100 99 98
32 43 62 79 88 86 93 81 77 92 95 92 87 97 100 100 100 99 99 98 95 93 91 95 98 98 97 95 94 94 96 100 99 97 97 100 100 100 99 98 94 100 99 98
32 48 65 76 76 80 87 75 73 86 100 100 87 75 92 99 100 95 97 86 80 87 93 98 97 98 94 87 83 85 95 97 99 99 99 97 98 96 96 95 97 98 98 97
27 45 56 61 69 71 71 63 66 82 100 100 92 72 70 79 88 92 91 87 84 82 91 92 98 98 97 95 86 86 89 90 93 96 99 98 98 97 98 100 100 100 99 100
18 37 47 51 55 55 49 58 81 90 97 98 96 88 68 65 72 78 80 82 82 84 92 94 92 88 78 68 65 76 81 85 91 95 97 95 95 97 98 100 99 98 98 96
4 24 40 46 42 38 44 62 88 100 98 94 84 90 87 72 66 70 70 78 89 94 98 99 94 89 86 80 77 71 67 67 67 70 71 70 70 73 80 87 98 99 95 86
2 3 20 42 57 44 50 57 84 100 96 95 89 95 99 90 73 72 69 62 83 97 94 94 93 89 89 90 89 86 82 77 75 78 82 86 88 88 88 88 88 94 98 98
5 3 4 18 53 66 64 67 83 87 97 97 93 92 100 94 89 83 85 79 80 100 95 94 90 87 88 89 85 84 82 77 72 68 65 64 64 63 65 71 78 82 85 84

GFSNW_500_rhum_042.txt.gz
RH
5 7 21 87 80 70 64 100 100 6 5 88 100 100 100 100 100 100 96 90 77 62 39 34 33 35 35 36 33 26 29 31 54 23 29 41 43 67 89 100 100 98 94 22
10 8 24 56 78 58 93 99 71 34 73 100 100 100 100 100 100 100 95 68 69 70 56 36 34 36 32 30 27 27 33 49 26 38 52 51 85 100 98 99 99 87 86 32
14 8 35 62 79 86 100 100 96 76 99 100 98 97 100 99 100 100 98 70 55 52 65 55 36 33 28 27 25 30 48 30 37 46 64 88 99 95 100 98 91 84 32 24
15 12 32 43 72 88 100 100 79 42 99 100 100 99 100 98 100 100 97 80 46 37 37 38 30 24 24 27 35 39 32 38 57 71 100 98 97 96 90 100 85 26 30 48
15 14 30 55 65 95 100 100 77 65 98 97 99 85 82 92 100 97 100 95 62 36 24 24 30 25 26 30 39 47 31 71 79 95 93 88 82 99 92 86 77 43 48 72
21 14 23 50 42 85 100 100 99 84 98 79 79 74 97 99 100 95 90 82 64 52 44 40 30 38 37 40 55 21 60 68 93 82 80 72 87 99 96 78 33 45 68 80
22 12 42 65 63 98 100 94 49 74 85 72 86 81 87 80 74 78 77 72 63 59 52 43 38 44 52 70 20 82 96 73 80 77 72 83 72 100 94 79 49 41 64 63
21 17 100 84 90 100 100 99 100 95 89 72 87 67 86 60 64 77 77 80 70 67 53 48 44 42 78 41 28 100 77 84 88 73 69 70 77 93 98 83 90 54 35 49
18 38 70 76 83 100 100 96 100 98 89 92 77 83 94 84 68 74 89 81 91 100 68 58 55 58 70 31 90 89 87 94 72 65 77 74 72 78 94 94 93 91 29 26
20 32 64 78 92 96 100 100 98 73 67 83 83 65 70 71 83 83 88 82 100 100 90 66 66 72 58 68 82 65 77 81 68 70 70 78 75 75 91 91 97 98 94 61
26 70 69 75 98 100 92 79 72 75 87 95 76 63 68 66 76 86 82 80 100 100 90 66 61 75 44 66 58 52 76 77 68 57 64 76 82 91 80 94 98 94 100 98
26 62 74 70 86 82 81 64 62 68 76 75 79 80 71 72 69 74 86 92 100 100 90 69 67 69 38 54 50 62 73 70 64 63 62 58 79 89 95 90 89 98 99 98
32 21 44 54 65 65 74 74 65 65 68 67 56 53 61 60 59 76 100 97 100 93 100 91 84 63 39 45 44 56 59 64 66 66 78 75 56 74 81 96 89 82 95 96
40 30 31 48 65 62 62 56 62 61 84 91 75 61 68 79 94 100 100 99 90 95 96 96 89 72 36 44 46 43 47 52 65 71 69 57 50 76 87 86 96 90 81 86
25 50 62 80 72 78 76 50 51 55 74 75 76 72 90 100 100 99 92 92 96 92 91 82 60 50 39 48 43 40 39 43 53 61 57 48 52 92 95 88 97 96 93 95
7 43 43 45 50 47 43 41 55 70 72 81 85 100 100 100 100 99 99 99 98 92 92 81 62 47 46 39 37 34 26 30 36 37 48 51 63 81 96 88 95 96 98 94
3 33 40 42 48 48 42 51 68 80 75 92 100 100 100 100 99 100 100 100 99 92 98 100 100 89 46 36 36 29 16 25 31 43 55 65 59 76 94 96 95 98 95 96
3 32 32 39 58 58 57 57 64 72 70 96 100 100 100 100 100 100 100 100 100 99 100 100 97 87 69 70 44 33 42 45 39 73 87 80 80 85 95 100 98 100 96 92
5 33 43 54 64 66 68 61 73 74 77 98 100 100 100 100 100 100 100 100 100 100 100 100 99 100 96 74 62 53 53 47 76 100 89 90 84 89 98 99 95 95 96 98
11 34 46 61 70 63 59 61 68 72 87 98 100 100 100 100 100 100 100 100 100 100 99 98 100 90 88 92 75 81 89 98 100 88 87 94 90 88 92 94 100 94 98 98
17 39 52 58 62 62 62 63 66 93 96 98 97 100 100 100 100 100 99 100 99 99 97 98 96 95 95 95 95 92 96 100 97 89 97 96 99 100 96 95 98 98 94 97
16 29 38 47 63 70 66 56 75 88 96 99 89 94 98 100 100 100 100 97 95 95 94 95 95 97 98 99 97 97 97 95 93 94 97 99 98 98 95 95 98 98 97 98
14 34 45 51 57 66 58 48 65 91 93 98 93 80 81 90 96 100 100 98 89 79 80 89 95 99 98 96 92 87 87 93 90 98 100 100 98 99 98 96 100 99 100 99
7 32 50 56 56 53 50 48 65 79 84 87 94 90 79 68 73 78 82 85 84 85 87 97 95 96 95 96 94 93 90 93 98 97 97 98 98 98 97 98 98 98 99 99
4 7 29 54 49 49 52 57 62 64 76 76 81 82 85 82 66 64 67 73 81 87 92 96 100 100 96 89 78 66 66 70 73 77 81 82 83 83 86 92 97 99 99 98
13 5 4 25 50 56 53 53 53 54 73 74 78 82 83 91 89 87 68 72 80 86 97 97 95 97 98 98 99 95 89 85 82 82 83 83 83 85 86 88 86 83 85 91
28 16 7 3 9 40 44 46 46 55 68 72 83 82 87 82 86 100 100 93 94 86 84 94 100 98 96 93 92 92 92 92 88 81 78 78 78 75 74 73 72 80 87 89

GFSNW_500_rhum_045.txt.gz
RH
4 17 8 37 62 70 98 100 100 88 75 80 99 100 100 100 100 100 100 98 65 45 40 45 70 63 57 51 43 32 30 32 29 35 41 40 21 32 47 67 89 90 82 28
5 17 12 41 58 96 100 92 86 46 61 78 100 100 100 99 100 100 96 97 80 54 42 38 38 38 38 35 34 35 35 30 35 47 35 24 36 71 82 80 87 78 90 50
8 13 26 70 87 98 100 99 63 51 91 100 100 99 93 92 100 100 96 95 94 76 49 42 39 38 35 34 35 33 28 23 43 32 30 44 77 85 86 97 85 69 56 30
12 9 27 62 98 100 100 94 86 66 89 96 100 98 100 100 100 100 95 88 78 78 75 62 42 36 32 33 34 27 19 45 37 25 72 80 84 94 100 99 98 57 34 48
12 9 25 61 94 100 100 64 100 100 89 93 98 97 100 100 100 100 90 83 67 63 65 64 62 61 49 39 27 18 29 44 27 57 77 77 94 100 100 100 73 32 41 56
11 10 49 70 87 100 100 94 89 97 94 97 99 100 100 93 92 99 85 83 72 48 47 47 50 54 48 30 17 24 46 27 41 84 76 75 88 92 96 80 44 34 42 53
14 11 41 50 60 79 100 65 95 99 99 100 98 92 82 89 87 72 66 65 71 58 43 29 25 22 20 26 31 50 33 26 72 95 79 82 84 76 86 78 69 30 39 52
14 12 33 89 81 98 100 60 92 87 80 69 71 82 64 59 65 64 61 56 64 58 50 40 34 32 40 42 64 55 29 85 87 83 81 77 79 75 76 90 89 87 42 35
17 30 79 86 88 100 80 75 76 55 52 63 62 47 49 52 50 54 60 61 61 57 50 49 43 45 44 56 59 27 58 94 85 78 81 73 70 79 76 88 97 80 47 42
34 37 52 72 66 70 88 90 88 65 50 67 61 61 65 51 57 55 64 70 69 64 66 59 59 56 49 62 41 33 94 89 76 76 72 79 78 83 90 96 91 90 89 78
8 28 33 72 78 83 73 79 84 76 72 66 79 84 83 68 59 63 73 77 79 82 83 76 74 59 53 54 39 76 74 84 74 74 74 64 72 83 86 93 98 98 99 86
3 28 28 55 70 86 84 77 72 54 53 51 62 63 60 70 76 74 79 83 75 82 97 82 63 53 54 52 55 75 67 81 78 55 51 57 53 78 86 87 92 98 98 97
3 32 57 58 60 69 66 74 79 78 80 82 72 68 73 65 65 56 59 73 74 88 97 85 63 48 53 51 62 62 67 68 62 56 62 62 59 52 90 91 98 89 92 97
2 42 49 56 77 75 57 57 53 46 61 70 64 60 64 59 54 62 66 75 84 83 92 87 70 54 54 48 54 53 58 67 65 62 65 66 57 51 74 94 96 94 94 92
3 19 70 54 58 76 66 57 50 55 84 89 90 64 54 54 71 93 98 94 93 95 87 85 87 74 64 47 47 48 51 48 53 51 52 61 54 54 96 98 95 98 98 98
3 12 52 62 55 71 54 41 42 57 75 91 97 80 77 90 100 100 100 100 100 93 88 86 73 70 57 39 41 46 36 35 33 40 38 45 50 65 96 91 94 93 94 95
3 10 34 37 42 78 61 46 52 61 73 96 98 100 100 100 100 100 100 100 100 91 81 72 73 48 43 43 40 46 34 27 27 32 33 43 57 58 87 100 90 94 98 97
3 15 46 85 66 48 38 40 47 51 69 87 99 100 100 100 100 100 100 100 100 94 87 87 75 56 41 39 39 35 25 25 34 38 35 47 98 85 78 95 91 92 90 90
3 26 76 90 47 43 44 39 50 48 66 83 95 100 100 100 100 99 100 100 100 97 98 95 92 88 71 63 40 32 40 53 50 45 45 90 100 100 97 98 95 89 90 90
4 29 47 50 55 50 47 38 41 44 60 75 94 100 100 100 100 100 100 100 100 100 98 90 95 96 91 94 70 61 62 59 52 65 90 99 100 98 95 97 97 100 99 96
6 24 34 37 48 58 59 53 45 55 61 76 86 100 100 100 100 100 100 99 99 100 99 96 97 96 96 91 85 80 79 91 91 95 93 94 97 99 99 100 98 100 96 99
9 20 31 42 56 63 56 48 49 53 70 79 87 99 100 100 100 100 100 100 99 99 99 99 100 98 98 99 99 92 86 92 94 98 99 97 98 95 94 92 99 100 99 98
6 18 33 52 61 57 52 45 51 63 78 87 95 98 99 100 100 100 100 100 100 99 99 100 99 100 100 100 98 100 100 98 98 98 96 98 99 97 98 99 98 98 99 100
6 11 31 52 56 44 36 45 59 62 67 76 86 94 91 86 93 96 100 100 100 100 100 100 100 100 100 100 100 99 99 99 99 97 98 100 100 100 99 97 95 97 100 99
18 5 11 30 38 55 44 47 56 61 68 72 76 75 84 86 78 76 85 92 96 98 99 96 100 100 99 95 88 75 71 82 91 96 98 98 98 98 96 96 97 99 99 99
31 20 8 4 22 44 61 64 63 59 62 64 63 68 72 78 80 80 78 72 75 80 88 95 100 100 100 100 100 99 92 86 82 80 82 83 84 86 85 83 82 79 77 77
31 32 24 10 4 5 27 46 65 74 69 65 61 62 74 68 75 81 86 91 88 75 78 81 99 100 100 100 100 100 100 99 98 93 87 88 96 100 100 96 93 88 83 83

GFSNW_500_rhum_048.txt.gz
RH
11 10 16 47 68 93 100 100 100 98 61 22 90 100 100 100 97 100 98 88 89 66 85 92 67 50 31 28 33 41 45 51 50 35 28 26 23 31 32 22 33 39 58 24
8 10 47 78 89 100 99 84 45 52 58 97 100 100 100 100 100 100 100 96 71 51 69 92 70 63 59 59 58 57 55 47 32 32 29 21 28 29 24 36 61 76 63 67
7 11 52 79 91 84 91 82 61 70 89 100 100 100 100 100 100 100 100 100 72 48 60 83 65 69 70 67 59 49 40 36 34 29 19 29 28 46 60 71 67 69 70 36
7 13 52 71 83 97 95 75 67 71 98 100 100 100 100 100 100 99 98 95 83 50 45 47 50 52 48 45 41 37 37 30 25 17 34 37 48 86 90 79 75 66 54 31
8 20 64 66 80 88 100 100 100 99 97 100 100 100 100 100 100 100 95 97 96 65 51 41 43 41 40 38 34 33 34 19 16 49 33 31 81 82 83 78 83 65 36 37
7 12 42 53 82 100 99 64 96 98 90 98 100 100 100 100 89 96 95 80 69 77 79 74 62 49 41 42 42 43 33 10 34 37 34 73 87 78 74 76 100 74 65 48
8 8 25 43 79 93 72 69 86 89 98 89 77 78 87 80 75 69 68 69 66 53 54 63 62 63 61 58 55 54 13 18 44 29 43 71 77 76 79 80 91 86 85 52
8 10 17 46 74 66 69 77 82 84 79 76 69 68 68 60 52 51 49 55 54 55 47 37 36 33 35 36 28 13 13 45 24 40 69 77 75 88 86 82 86 85 71 60
9 24 49 54 75 49 80 82 92 80 71 62 58 62 57 57 55 50 45 39 41 47 51 44 34 28 22 16 12 31 54 32 57 75 76 76 87 96 86 98 90 84 92 88
9 21 41 51 62 45 55 62 58 56 52 42 40 44 56 47 41 37 38 34 41 52 53 50 47 44 38 27 29 59 45 27 70 71 74 78 90 95 88 97 96 86 89 90
12 16 34 30 37 53 53 45 44 34 46 50 52 47 46 40 36 48 54 54 60 58 62 65 75 58 46 34 42 63 30 59 82 74 79 88 89 84 88 89 99 100 93 83
20 5 29 29 29 45 63 65 49 29 32 48 54 54 46 47 60 45 62 77 78 72 80 91 81 67 59 44 52 49 38 73 87 79 75 59 55 53 70 83 95 100 92 93
21 8 12 46 33 64 69 75 68 65 56 56 77 64 57 56 58 62 75 77 81 77 75 86 80 62 49 48 51 46 54 72 83 80 67 59 51 50 49 77 86 99 98 77
20 7 6 39 62 63 68 74 73 75 87 84 76 72 66 59 67 68 60 63 60 67 70 81 82 67 52 48 49 48 62 65 77 74 64 57 58 62 51 74 92 94 100 91
19 6 5 43 72 71 64 66 67 80 88 89 89 78 68 69 68 62 56 60 55 71 64 72 82 78 44 44 50 50 60 59 69 62 78 53 61 57 50 93 97 91 100 96
15 7 4 57 80 78 67 65 60 56 56 76 89 97 82 59 50 64 83 93 85 72 69 83 80 80 56 48 54 50 55 52 58 54 52 44 47 53 59 99 96 98 90 87
12 4 4 76 86 90 76 63 54 55 63 81 96 100 96 80 84 91 99 98 99 95 89 79 82 78 69 65 66 51 51 45 41 33 39 39 43 45 62 93 97 97 100 99
7 4 5 79 78 68 70 60 48 49 59 69 82 100 100 100 100 100 100 100 98 95 94 88 74 68 60 52 62 43 45 41 38 42 35 30 34 46 82 78 95 100 94 90
5 6 20 48 70 60 67 68 44 38 45 64 74 91 98 100 100 100 100 100 100 100 100 92 82 79 68 67 49 44 38 39 37 36 43 42 40 72 89 94 91 99 96 87
6 14 27 55 58 46 65 44 40 31 38 51 69 87 98 100 100 100 100 100 100 100 100 100 100 100 100 69 60 41 35 32 29 48 52 48 83 95 97 98 96 94 94 96
6 20 30 40 48 53 42 40 40 36 41 48 56 93 97 100 100 100 100 100 100 100 100 100 100 100 100 100 84 52 49 51 53 59 62 94 97 94 97 99 97 90 92 98
6 21 41 56 48 41 51 48 41 38 46 50 58 85 98 100 100 100 100 100 100 100 100 100 100 99 100 100 94 86 86 80 80 97 100 95 90 97 98 100 99 93 95 95
6 11 33 42 38 40 50 50 49 50 57 61 76 88 100 100 100 100 100 100 100 100 100 100 100 100 100 100 95 91 90 94 97 97 98 97 95 95 99 100 100 100 100 100
16 5 16 32 37 36 44 59 60 62 62 71 84 88 98 100 100 98 98 100 100 100 100 100 99 100 100 100 99 100 100 100 99 100 100 98 99 100 99 99 99 99 99 98
31 15 6 11 23 36 46 54 55 58 62 66 72 77 79 85 97 97 94 97 98 99 100 100 100 100 100 99 97 98 98 100 100 100 99 99 99 99 99 100 97 93 94 94
35 31 18 6 6 23 43 59 63 71 75 70 70 70 73 71 71 79 90 92 97 98 96 98 100 100 100 100 99 96 91 86 84 83 82 82 84 88 92 94 96 97 97 97
38 36 34 23 10 5 7 30 43 57 73 78 74 70 69 62 60 68 78 85 90 92 86 83 81 90 100 100 100 100 100 100 100 97 94 92 91 98 100 100 100 100 100 97

GFSNW_500_rhum_051.txt.gz
RH
23 9 14 55 68 57 77 24 20 10 69 95 100 100 100 100 100 100 100 100 94 73 84 94 51 29 30 29 26 24 25 24 28 29 34 38 35 26 21 18 22 25 20 26
21 9 17 52 68 36 19 10 29 74 98 100 100 100 100 100 100 100 90 83 76 70 96 96 76 30 27 26 25 24 27 28 39 43 45 34 27 23 26 26 24 29 30 73
18 8 24 49 75 25 66 18 44 96 100 100 100 100 96 100 100 96 87 86 77 78 85 88 70 45 30 27 28 35 41 52 50 43 34 28 21 27 34 27 54 62 71 64
18 9 17 52 82 39 66 60 93 99 99 99 99 99 99 100 100 94 91 73 64 58 76 94 77 67 61 59 59 60 57 47 37 32 31 19 30 41 30 65 80 64 65 74
18 9 16 47 86 24 55 90 94 83 97 100 100 100 100 100 99 95 90 95 52 56 78 90 73 67 69 69 64 54 41 36 32 28 16 22 29 32 89 81 74 61 79 76
19 10 14 32 76 26 54 59 63 75 92 97 100 100 100 96 92 92 99 98 93 59 55 68 69 62 59 50 44 37 32 36 23 14 27 32 46 81 78 84 76 77 77 62
21 10 14 30 53 53 54 56 60 68 90 80 83 74 84 73 74 68 68 64 72 86 72 60 51 46 45 42 38 40 41 45 16 20 36 31 57 87 90 80 67 84 82 64
24 11 13 22 46 58 60 61 60 54 65 68 70 79 65 51 48 49 47 48 47 44 41 60 69 67 63 59 55 48 47 46 12 42 29 40 85 85 84 82 87 92 84 75
28 10 18 24 37 53 42 43 47 56 58 64 72 68 48 52 44 34 33 28 30 36 44 38 32 35 36 37 44 47 42 12 46 35 72 84 82 84 90 94 96 90 83 83
35 12 20 32 46 54 45 49 52 52 44 47 60 65 52 50 40 34 27 27 28 30 42 48 40 27 21 21 17 14 16 42 45 45 92 84 80 89 94 98 87 83 76 75
46 22 7 29 39 52 56 69 62 55 48 51 55 54 48 36 48 52 45 37 36 36 41 50 48 38 31 23 26 25 38 56 35 79 90 79 75 77 72 88 94 83 74 79
53 29 8 15 31 37 42 48 48 43 42 35 39 43 50 48 49 43 37 48 50 55 56 64 71 69 51 29 34 38 58 48 75 84 84 78 62 69 53 54 72 87 78 70
53 35 18 3 27 33 38 39 38 32 29 52 53 54 58 49 48 48 49 65 72 69 63 71 84 83 70 50 43 51 61 48 80 79 78 64 74 74 65 56 58 83 89 91
50 37 20 5 11 39 59 66 50 59 57 54 53 66 65 57 66 45 51 62 63 62 71 71 66 79 69 53 44 52 58 60 76 78 83 75 74 71 72 58 60 84 86 90
54 32 18 5 9 47 75 73 70 63 66 62 77 72 74 67 54 48 54 62 64 59 52 59 60 75 70 55 39 55 55 68 67 68 79 72 73 71 55 50 74 94 92 92
51 25 11 4 12 64 86 76 71 66 71 77 84 87 82 65 56 56 57 53 58 67 78 73 58 70 64 46 58 55 51 57 60 62 68 64 67 58 40 46 78 98 100 98
38 16 7 4 18 81 91 82 77 88 79 79 88 100 98 80 61 51 46 50 69 94 90 73 77 84 61 58 77 77 55 48 56 56 59 58 40 36 35 43 58 92 97 98
26 9 7 5 36 80 99 74 69 68 68 64 87 99 100 99 86 85 81 92 95 97 96 94 95 77 66 77 94 68 58 51 53 50 45 40 38 30 33 40 69 76 96 97
17 8 10 21 67 97 98 84 65 54 52 67 82 92 100 100 100 100 100 100 100 100 100 100 96 92 81 90 66 60 55 51 50 48 42 40 41 31 40 56 86 87 87 98
10 14 15 42 82 100 100 92 80 56 44 56 58 69 96 98 100 100 100 100 100 100 100 97 100 98 80 67 62 55 54 48 43 42 40 38 37 43 50 90 100 92 96 99
8 19 30 46 93 93 63 65 76 50 36 47 49 65 72 98 100 100 100 99 99 100 100 99 100 98 91 94 89 69 49 41 38 38 37 35 44 46 88 96 96 95 98 94
14 13 28 37 45 48 57 55 58 40 34 52 59 66 64 96 100 100 100 100 100 100 100 100 100 100 93 100 100 98 85 65 44 41 45 51 56 82 95 93 96 98 98 93
25 7 25 31 41 53 56 46 45 35 54 73 64 68 80 98 100 100 100 100 100 99 100 100 100 100 100 100 98 99 100 93 81 70 66 77 90 99 96 97 99 100 100 100
33 13 10 35 40 33 41 43 42 49 71 64 63 75 86 96 97 99 100 100 100 100 100 100 100 100 100 100 100 100 100 100 96 93 94 98 99 99 98 99 98 98 99 100
40 29 12 8 27 48 47 43 43 54 69 68 66 64 76 86 88 94 98 96 98 100 100 100 100 100 100 99 100 100 100 100 100 100 100 99 100 99 98 99 99 100 100 100
55 36 30 16 6 11 25 37 43 52 64 69 70 68 67 77 80 81 87 92 90 88 92 98 99 100 100 100 99 99 100 100 100 100 100 100 100 100 99 100 100 100 100 100
87 44 35 34 27 9 4 13 24 33 51 62 67 69 71 59 64 70 72 76 78 79 81 82 85 96 100 100 100 100 100 100 99 99 98 97 97 98 98 100 98 99 99 99

GFSNW_500_rhum_054.txt.gz
RH
37 22 8 17 9 23 42 51 57 94 100 100 100 100 100 100 90 72 74 67 98 92 79 77 94 67 37 32 26 30 32 28 28 25 23 25 30 35 34 27 23 20 22 34
35 20 8 18 14 39 69 73 100 100 100 98 99 100 100 92 73 74 96 90 92 95 96 100 72 36 34 28 25 27 27 26 27 26 32 42 43 32 27 22 22 29 25 68
37 18 9 20 22 53 69 78 85 98 82 89 100 100 98 93 85 88 89 80 69 85 99 98 64 31 29 27 26 28 27 28 31 41 44 41 32 29 24 21 34 26 79 69
40 19 9 20 33 55 56 80 86 61 59 76 95 96 100 100 95 98 87 82 85 86 85 78 55 31 28 27 26 26 31 47 53 52 40 32 30 24 18 33 34 61 78 63
44 22 10 23 21 42 68 65 58 58 64 72 77 88 100 98 82 78 71 72 73 91 100 93 82 71 49 42 48 58 61 56 46 36 32 31 22 26 29 35 74 62 54 72
46 25 10 23 16 40 34 46 58 66 59 65 67 62 72 79 82 85 77 58 70 81 100 94 76 70 67 67 67 67 58 41 34 32 26 17 31 31 45 77 67 62 70 81
51 33 11 15 29 43 36 25 34 30 63 71 70 50 66 69 60 73 81 75 59 67 81 98 81 72 71 68 60 47 36 33 40 36 14 21 31 40 69 73 70 81 94 79
54 42 12 17 21 35 36 50 69 70 64 59 63 63 63 54 51 52 53 55 78 90 72 57 65 72 64 47 41 39 33 39 51 38 19 35 33 72 85 80 83 93 90 92
62 52 22 19 40 33 40 40 45 52 59 64 60 55 58 49 40 33 35 28 31 47 54 82 76 69 61 59 54 49 44 45 41 31 39 34 77 93 92 91 91 95 83 89
73 63 38 10 26 42 44 41 42 49 45 58 67 51 48 42 34 32 29 28 28 30 40 45 37 38 46 43 42 46 46 40 21 53 43 71 90 94 93 82 85 82 83 80
74 69 53 21 14 32 42 35 38 37 34 35 55 62 54 46 37 40 38 33 34 34 34 40 45 37 29 25 25 25 28 20 40 46 54 88 88 90 70 65 75 74 78 80
66 67 64 37 13 33 46 57 53 61 60 43 49 64 62 54 48 43 42 35 36 45 46 47 50 46 42 36 32 28 31 39 58 43 90 94 85 64 64 58 53 61 76 76
69 64 66 52 28 7 39 58 61 53 50 56 58 62 64 55 44 49 57 43 55 61 58 61 66 67 66 53 50 41 43 45 59 66 98 100 72 68 65 67 49 62 87 81
78 65 60 53 31 12 20 37 50 48 46 36 55 50 55 57 56 56 64 47 59 62 71 70 62 70 72 69 56 61 50 53 62 73 96 95 72 72 68 56 42 48 88 85
88 67 56 46 25 7 6 31 45 50 63 49 49 58 64 75 68 61 66 45 43 50 58 58 63 58 56 63 61 65 39 52 54 73 81 92 81 66 69 47 42 56 88 86
95 71 53 34 9 6 10 40 49 85 75 73 73 84 87 85 71 64 52 40 42 49 49 44 48 60 48 47 65 57 41 45 59 71 75 75 76 71 59 40 38 53 89 89
93 74 49 14 9 4 31 57 100 100 93 80 73 77 78 60 48 44 40 41 45 44 55 75 92 80 45 54 68 68 37 36 55 71 67 65 69 66 44 34 33 51 69 95
88 69 36 10 6 16 66 100 100 88 72 69 87 95 98 98 90 70 53 52 59 66 79 91 95 76 55 57 86 64 36 34 52 61 61 58 57 53 38 36 35 46 66 76
90 59 13 10 12 51 91 97 85 78 82 84 89 92 100 100 100 99 100 91 91 91 92 92 89 81 64 67 89 64 45 38 53 51 57 54 50 42 40 36 41 44 82 80
87 37 16 12 32 74 88 100 88 76 63 64 75 77 89 100 100 100 100 100 100 100 100 100 100 98 81 77 81 69 63 62 62 59 55 52 46 40 39 36 44 81 100 95
76 21 20 24 46 75 90 97 92 61 60 50 61 68 79 92 99 100 100 100 100 100 100 100 100 100 88 88 82 73 58 50 54 54 50 48 44 40 37 40 65 97 93 93
71 14 24 27 45 71 80 85 93 81 62 48 47 58 71 76 92 100 100 100 100 100 100 100 100 100 96 98 98 92 75 62 58 52 47 44 41 40 40 51 85 94 94 97
64 21 18 30 40 44 49 79 69 48 48 47 45 58 68 84 98 100 100 100 100 100 100 98 100 100 100 99 100 100 100 99 88 82 70 52 44 49 59 72 88 91 94 99
69 33 11 25 36 38 64 76 58 55 54 52 47 54 69 81 95 100 100 100 100 100 100 100 100 100 100 100 100 100 100 100 100 100 99 81 73 82 86 90 88 96 99 100
82 44 25 8 19 43 46 48 52 58 55 50 52 67 68 75 83 91 99 100 100 100 100 100 100 100 100 100 100 99 100 100 100 100 100 100 98 95 91 93 96 100 98 98
98 77 42 28 8 15 43 52 48 52 57 52 52 64 69 70 69 75 88 90 93 93 95 100 100 100 99 100 100 100 100 100 100 98 100 100 100 100 100 99 100 99 100 100
100 98 75 42 31 19 7 13 41 56 54 47 42 50 63 62 61 62 73 80 75 73 77 82 87 92 97 99 99 99 100 100 100 100 100 100 100 100 100 100 100 100 100 100

GFSNW_500_rhum_057.txt.gz
RH
77 29 14 17 33 38 57 66 75 78 74 50 59 80 87 96 100 98 100 100 100 93 70 65 76 96 66 48 37 44 45 48 44 39 30 26 24 24 26 31 31 27 26 28
75 30 14 20 30 29 32 59 64 88 97 74 44 52 57 88 100 100 99 100 100 100 89 76 86 98 63 38 37 41 40 38 34 29 28 28 32 40 38 33 28 25 27 29
79 32 14 21 43 32 33 52 80 76 76 100 68 29 47 58 76 82 91 98 93 84 81 80 96 79 40 36 31 34 33 31 30 28 31 37 43 43 35 29 27 26 33 37
76 34 19 17 27 44 23 25 48 50 72 93 79 56 53 56 80 64 71 82 80 92 96 97 67 38 34 32 30 31 30 30 30 33 43 46 42 35 30 28 18 32 50 73
74 39 25 12 24 28 41 29 44 41 45 56 75 100 80 80 75 73 73 66 78 96 100 96 72 39 32 33 31 30 29 33 40 50 51 41 34 32 27 23 29 67 75 71
77 44 30 14 17 32 39 49 64 56 53 46 49 62 64 72 70 71 74 73 84 88 100 94 62 34 30 29 31 28 41 51 55 47 37 35 29 23 33 31 49 72 68 65
79 49 38 16 14 27 41 36 44 42 68 42 49 46 52 60 67 68 59 68 80 99 100 93 72 62 60 51 56 63 65 59 42 35 34 25 22 34 41 55 72 73 76 77
77 54 45 28 13 23 27 26 27 28 39 56 38 43 53 59 59 72 79 73 64 72 100 96 87 75 72 70 70 64 50 38 34 38 47 30 32 33 57 83 77 83 88 88
72 59 55 42 21 17 35 43 43 39 57 61 66 51 54 61 58 52 50 53 70 87 84 68 78 87 81 67 54 46 42 38 35 46 44 28 34 57 84 88 94 91 94 88
86 69 62 55 34 12 26 35 46 49 55 60 64 64 60 54 48 44 35 39 48 50 60 80 84 68 58 58 53 45 42 37 41 46 30 33 67 90 89 94 93 93 90 88
97 85 70 62 55 24 15 31 32 39 47 48 60 65 59 47 38 36 31 27 25 28 38 42 45 43 50 57 54 49 49 49 46 33 37 45 87 94 90 77 73 80 75 74
99 97 79 70 67 53 19 15 27 29 34 36 38 46 61 49 47 41 37 32 29 26 25 31 39 46 44 38 34 31 33 34 35 38 47 63 99 100 70 57 55 50 55 67
100 100 91 72 71 67 42 14 29 35 38 37 33 33 43 62 58 53 40 40 36 35 36 44 49 47 54 50 44 36 33 32 40 56 52 92 97 94 66 67 64 47 67 74
86 88 96 86 65 59 52 25 16 41 57 66 58 50 49 62 72 57 48 55 47 53 58 59 55 53 57 64 57 56 42 37 43 59 64 90 96 73 72 64 53 46 56 73
71 72 82 86 72 54 46 14 8 44 66 62 52 49 62 71 74 59 57 53 57 47 49 54 58 65 50 54 62 71 38 47 48 66 51 86 96 73 70 67 55 43 67 83
60 58 87 82 65 53 19 10 6 48 65 65 67 45 64 67 71 65 56 52 56 55 42 40 44 48 48 41 48 53 48 42 40 53 50 82 95 87 78 69 56 42 50 81
54 67 89 73 58 25 8 4 30 69 84 73 70 70 71 78 73 70 64 58 56 48 38 32 44 55 50 37 38 46 37 40 37 41 51 74 84 83 73 62 40 33 39 65
50 72 80 76 31 9 5 62 100 98 92 90 86 80 78 78 65 49 40 40 36 33 32 36 56 69 63 38 50 48 54 47 36 35 50 68 71 69 67 57 36 35 35 54
60 83 91 41 11 10 60 100 100 100 100 95 83 84 83 83 94 88 64 52 49 59 76 88 92 86 71 58 58 61 65 48 41 35 51 62 68 63 60 54 38 38 40 43
76 90 91 16 13 26 84 100 100 100 95 90 97 90 95 96 100 100 94 89 94 89 96 85 81 92 92 75 76 62 63 52 46 39 53 57 66 60 54 45 40 37 40 59
82 95 58 16 25 47 92 97 97 86 88 89 80 67 67 88 99 100 100 100 99 98 100 99 86 92 93 100 100 81 68 65 66 61 60 60 58 58 53 45 42 37 53 88
77 100 46 22 30 55 82 92 80 70 70 75 64 58 59 73 91 100 100 100 100 100 100 99 93 96 99 95 99 100 83 71 61 57 57 63 59 54 48 45 44 40 68 93
89 99 46 25 35 57 72 70 65 65 74 85 75 63 55 61 90 99 100 100 100 100 100 100 100 100 100 98 91 91 97 94 79 70 65 64 57 51 50 46 42 46 78 89
100 100 74 19 34 37 55 60 65 71 94 85 55 64 58 45 60 92 100 100 100 100 100 100 100 100 98 100 100 83 90 100 100 100 91 81 82 79 66 63 70 85 89 89
100 100 88 16 20 45 53 62 62 71 85 67 52 53 57 47 52 68 85 96 100 100 100 100 100 100 100 96 100 99 100 100 100 100 100 100 100 100 100 100 98 94 96 94
100 100 98 24 11 16 37 50 52 74 91 87 66 55 51 48 53 60 67 76 96 98 100 100 99 100 100 100 100 100 100 100 100 100 100 100 100 100 98 97 94 93 96 99
100 100 100 88 40 13 10 24 42 45 50 56 55 52 50 44 49 57 64 70 81 78 76 84 93 92 90 88 97 100 100 100 100 100 100 100 100 100 100 99 100 100 100 100

GFSNW_500_rhum_060.txt.gz
RH
100 61 22 13 19 33 50 53 62 97 54 43 69 81 52 83 82 87 87 98 98 64 74 70 69 63 62 69 80 82 67 57 62 68 72 72 68 54 41 31 26 25 33 31
98 57 23 13 22 22 39 55 76 90 65 36 48 86 72 68 71 79 77 99 98 87 89 82 71 77 94 95 72 50 55 54 59 58 56 50 40 32 28 29 35 38 35 29
94 62 25 14 18 22 28 40 49 93 60 27 38 61 69 64 89 82 88 100 93 85 71 72 89 92 74 58 44 49 48 48 45 39 36 33 30 28 31 32 37 34 31 26
92 67 27 15 16 36 31 22 31 67 77 41 35 46 61 75 66 82 85 86 86 81 78 75 95 96 64 42 41 43 43 38 34 32 32 35 37 40 43 39 32 30 25 33
91 64 31 20 14 21 26 34 32 39 77 76 63 66 71 83 55 62 76 77 82 76 82 88 96 49 39 40 37 37 35 31 28 29 38 43 47 45 40 33 28 26 31 50
88 70 36 27 14 23 25 48 49 39 46 56 66 58 62 70 72 74 68 62 75 98 97 81 48 35 34 31 31 29 29 29 34 48 54 52 43 36 31 26 28 33 68 74
88 65 44 35 15 19 25 41 47 36 48 49 56 68 72 70 64 67 71 76 79 92 98 90 52 42 32 30 29 29 28 36 53 55 46 37 32 28 24 31 41 67 75 67
91 68 53 41 27 16 23 30 30 31 30 51 56 65 76 89 87 62 66 81 94 96 100 95 77 67 52 36 40 49 56 61 58 43 37 42 35 24 33 38 75 79 73 85
93 80 63 48 46 23 18 23 25 26 33 28 42 50 74 71 82 86 82 84 93 100 100 97 87 76 69 69 69 67 66 59 44 36 39 44 38 33 37 74 87 81 91 84
97 87 81 61 54 47 21 20 25 37 36 34 35 59 67 70 68 67 67 70 85 95 96 93 95 92 78 72 69 62 53 45 42 39 37 43 39 44 81 93 90 96 90 82
100 96 88 80 70 59 51 25 18 28 37 50 50 56 67 62 56 47 36 39 37 41 46 57 78 79 70 68 69 63 56 53 53 41 42 42 44 72 90 87 86 79 80 74
100 100 97 84 83 80 71 51 27 16 31 34 50 55 61 62 56 46 41 33 28 26 23 28 34 42 46 51 60 57 54 48 45 44 40 40 40 82 90 75 56 55 55 53
100 100 100 91 91 94 96 80 52 31 13 21 34 43 45 44 60 64 54 39 31 28 26 28 33 32 39 45 42 40 37 34 35 37 42 40 51 88 84 58 64 63 49 49
100 100 95 98 89 98 98 99 71 52 29 15 22 24 28 36 36 50 66 54 41 36 30 36 40 37 37 40 53 56 51 40 36 41 40 44 54 85 76 64 63 66 48 51
100 98 91 82 91 89 90 88 72 38 18 12 32 32 33 33 35 35 54 67 45 47 43 41 43 51 46 46 40 57 55 57 48 49 29 53 75 93 83 74 67 62 48 71
87 66 68 57 60 77 81 78 45 29 15 6 58 66 63 55 56 54 66 68 53 51 50 48 39 41 36 35 41 47 39 53 52 50 39 59 66 84 78 65 65 66 49 50
68 53 52 58 48 60 76 42 22 9 6 36 86 74 66 58 66 67 73 63 55 46 44 46 47 40 29 25 30 52 34 36 46 45 40 49 56 79 85 69 69 65 44 40
68 56 46 46 51 75 38 11 6 22 100 100 99 84 78 70 88 87 74 61 52 44 41 41 38 27 24 26 47 47 48 38 33 44 40 36 50 68 79 82 72 61 39 41
60 52 47 70 76 37 11 26 91 100 100 100 100 100 99 96 94 88 71 54 48 39 35 30 27 28 31 67 77 64 62 45 33 43 42 32 44 54 74 75 71 64 41 40
37 32 47 84 56 16 42 94 100 96 100 100 100 100 100 97 96 100 93 80 70 52 56 38 41 60 87 83 76 72 64 58 54 52 46 32 34 46 67 66 66 58 42 38
50 36 52 100 50 53 79 94 94 96 100 100 100 100 100 99 98 100 100 100 98 97 98 93 86 92 92 96 100 98 77 66 55 53 50 37 34 44 54 64 60 50 42 40
47 42 64 100 57 47 78 79 82 97 100 100 100 92 69 67 69 92 100 100 100 99 100 99 87 96 96 95 99 100 94 91 75 76 73 55 46 47 49 59 60 50 46 41
46 57 67 100 70 34 78 81 86 96 100 92 82 72 63 62 67 85 100 100 100 100 98 99 100 100 99 100 100 100 97 89 81 79 73 64 61 59 57 55 57 50 48 45
54 61 92 100 94 42 62 79 96 93 97 94 90 78 70 68 57 55 64 97 100 100 100 100 100 100 100 100 100 100 94 91 97 96 94 84 77 68 62 58 54 49 50 52
68 77 93 100 100 74 44 83 100 100 84 83 81 82 72 55 56 55 47 58 83 100 100 100 100 100 100 100 100 100 97 98 100 100 100 100 100 98 93 78 65 66 76 94
81 91 100 100 100 55 28 58 76 96 97 85 84 82 76 60 47 46 45 48 66 89 97 100 100 100 100 100 100 100 100 94 100 100 100 100 100 100 100 100 100 100 99 100
96 100 100 100 100 66 14 22 46 63 83 90 78 69 71 62 61 44 44 47 59 67 72 88 89 95 98 99 100 100 100 100 100 100 100 100 100 100 100 100 100 100 100 99

GFSNW_500_rhum_063.txt.gz
RH
77 81 37 16 13 18 25 44 68 44 66 65 41 48 65 72 68 64 51 46 67 61 66 73 69 62 79 73 76 90 81 95 97 87 83 83 82 84 68 61 52 41 32 26
78 83 45 19 13 19 20 34 45 37 32 61 52 33 36 48 59 90 52 32 38 73 76 72 69 64 64 68 86 99 78 66 70 75 74 73 83 83 73 57 43 29 26 28
77 79 47 23 14 16 22 29 37 58 40 40 64 44 53 38 44 64 78 81 81 86 70 71 64 67 76 91 91 83 85 67 67 74 76 76 78 84 79 49 30 38 35 31
80 76 51 29 15 15 23 26 30 90 32 48 50 75 48 70 53 50 75 85 70 61 58 65 78 89 91 91 56 56 62 61 66 60 45 42 35 32 30 38 43 37 30 28
78 75 55 36 19 15 20 30 30 46 84 81 74 88 81 68 83 84 93 88 78 70 63 74 92 85 74 50 45 46 51 49 37 35 35 37 38 42 47 47 39 34 30 25
84 72 59 44 30 16 20 30 32 32 30 56 72 76 87 80 60 70 82 84 88 90 82 84 90 69 45 38 36 36 35 33 32 32 38 44 48 49 45 38 32 29 25 25
96 83 64 55 42 21 17 24 41 36 38 49 62 67 76 74 70 76 79 70 75 92 95 83 63 38 36 34 33 32 30 31 36 47 55 55 44 39 34 30 27 27 28 44
100 94 72 64 45 43 16 20 25 31 30 34 40 54 72 81 78 65 78 87 95 95 100 80 52 36 33 32 31 29 29 33 53 58 49 40 37 32 26 24 33 42 63 77
94 100 93 73 62 45 44 15 21 27 28 30 34 34 55 71 83 83 81 93 97 100 100 98 74 65 53 34 35 40 46 56 60 55 39 38 45 40 27 33 46 77 83 77
100 100 100 92 78 64 53 47 18 21 25 28 32 31 50 64 70 75 86 95 98 100 100 100 92 80 73 67 63 62 63 64 60 45 39 38 40 41 33 40 69 96 92 91
93 100 99 94 90 87 64 56 49 19 25 29 29 31 42 60 72 70 59 55 57 76 94 98 100 99 89 78 71 69 66 60 53 47 45 37 34 42 45 64 87 93 88 86
42 81 96 93 87 92 93 75 62 54 20 22 26 36 33 56 66 65 59 50 40 37 34 39 50 69 79 76 72 74 71 65 58 55 54 43 36 42 54 90 97 86 70 70
90 100 100 96 85 92 100 95 89 73 62 24 19 32 33 47 55 60 64 57 47 35 30 29 30 28 33 41 46 52 57 55 52 46 41 39 38 39 54 92 88 64 68 50
94 95 98 100 99 84 92 100 94 98 81 64 39 23 28 42 50 48 45 49 61 47 36 34 31 31 32 33 37 43 42 42 42 33 33 36 37 38 62 91 71 69 64 48
79 96 100 92 99 84 78 94 93 97 100 92 74 44 27 30 45 42 36 42 42 60 50 39 39 38 44 44 42 46 40 51 47 52 30 37 44 46 62 87 73 70 67 49
99 100 93 71 57 50 54 54 52 76 87 83 64 36 19 19 31 34 32 34 30 39 58 52 42 50 43 33 35 41 36 36 43 49 50 38 45 48 66 90 80 73 72 61
100 86 71 69 44 41 43 38 47 58 60 49 18 15 14 23 57 58 44 41 41 41 55 49 44 48 44 31 23 40 42 32 34 38 45 42 41 44 57 94 79 68 71 69
96 74 67 56 45 44 45 57 54 21 8 6 15 33 40 72 73 75 73 74 71 64 57 48 42 40 36 26 29 30 36 40 34 36 34 34 31 37 46 74 81 65 67 72
100 75 55 39 37 37 56 40 14 11 40 89 100 100 100 95 96 99 99 97 92 60 53 42 33 30 26 27 27 26 43 60 55 36 30 28 30 26 37 49 76 70 72 71
100 88 58 47 45 48 65 23 36 71 90 100 100 100 100 100 100 100 98 93 73 54 48 35 28 22 28 25 42 64 73 70 66 46 34 32 39 32 25 42 62 75 78 72
99 100 62 59 55 75 60 62 71 74 95 100 100 100 100 100 100 100 100 100 92 82 85 60 36 57 52 57 81 77 73 78 73 59 49 41 42 35 25 30 44 68 71 68
86 99 72 61 58 80 80 76 63 70 93 96 100 100 100 100 92 95 98 100 98 97 100 98 99 95 96 88 86 85 88 84 90 83 64 50 47 42 31 27 39 54 67 63
97 100 73 62 72 78 95 84 79 99 98 100 100 100 97 78 67 77 97 100 100 100 100 100 100 100 99 96 96 98 99 92 97 100 87 70 67 66 49 33 38 44 59 63
100 88 59 61 62 81 100 81 99 100 100 100 100 100 78 68 67 56 56 74 84 98 100 100 100 100 100 100 100 100 100 99 97 99 99 92 83 70 64 58 47 50 50 59
88 70 56 63 72 86 100 81 95 100 100 100 100 96 98 86 71 63 61 54 56 73 93 100 100 100 100 100 100 100 100 100 99 100 100 100 95 86 82 73 66 64 60 58
57 54 55 60 64 83 100 95 63 98 100 100 100 100 97 86 73 58 51 50 54 62 69 74 96 100 100 100 100 100 100 100 100 100 100 100 100 100 100 100 100 99 89 72
21 26 83 92 90 100 100 100 44 52 90 100 100 98 98 79 75 67 61 66 62 53 49 58 66 85 96 99 100 100 100 100 100 100 100 100 100 100 100 100 100 100 100 100

GFSNW_500_rhum_066.txt.gz
RH
65 77 56 39 17 13 37 42 34 42 34 49 39 41 44 56 69 61 57 84 92 93 68 49 59 45 58 92 92 90 96 93 100 94 92 92 96 90 73 62 50 42 39 34
60 75 55 42 21 12 33 42 36 30 60 37 45 31 36 34 30 33 44 44 62 77 74 70 43 70 68 77 84 94 90 96 99 87 80 77 79 77 68 65 62 56 43 35
66 76 55 48 28 14 25 37 71 28 39 59 49 47 33 33 40 33 33 37 35 52 48 45 44 47 57 65 79 93 78 75 82 79 76 74 73 75 78 69 64 52 37 31
76 78 59 52 38 19 15 30 46 62 69 39 72 50 57 37 42 72 80 72 72 64 48 42 48 55 61 76 90 87 82 76 76 81 80 76 75 79 82 78 50 42 33 33
56 92 73 58 49 31 15 21 29 29 28 76 86 77 62 61 64 73 80 84 72 58 57 56 58 65 80 82 58 57 76 68 83 91 63 75 73 78 70 75 66 54 43 36
54 94 84 63 59 45 22 14 26 30 27 40 70 74 76 65 69 77 77 85 86 73 66 73 85 83 74 60 44 50 66 64 52 50 46 50 41 39 39 43 41 40 37 32
36 96 98 76 69 58 47 19 18 28 30 31 40 55 76 77 75 79 78 75 83 92 95 90 89 80 55 40 39 42 48 45 38 37 38 42 46 48 46 44 40 34 31 29
13 82 100 100 80 79 61 47 16 20 28 29 29 35 43 66 81 68 78 83 80 89 100 97 80 48 41 36 35 33 35 35 36 48 56 50 47 42 37 34 31 27 27 28
4 18 83 100 100 95 89 69 47 17 19 27 28 32 35 46 66 88 75 90 98 100 100 86 62 46 38 33 33 32 32 32 47 55 55 44 41 42 35 26 24 29 40 48
6 6 14 89 96 99 92 100 77 54 17 22 26 31 35 35 53 69 81 92 92 98 100 96 90 75 56 41 35 40 41 52 61 60 54 41 40 41 41 29 28 45 79 85
15 14 19 69 80 95 87 85 99 81 58 20 21 30 38 41 46 64 67 61 72 92 98 100 99 84 80 72 61 61 60 64 64 61 50 43 41 36 40 43 43 82 96 98
22 38 78 61 100 97 80 91 95 100 87 63 24 22 29 34 36 58 66 62 50 45 46 68 92 99 95 87 80 71 70 66 62 58 53 51 51 40 36 41 61 92 100 93
52 60 72 91 90 92 100 100 92 100 100 95 70 31 20 26 39 38 59 60 56 49 41 34 31 30 42 66 80 78 73 71 69 64 59 54 52 45 37 41 65 96 99 70
68 86 64 88 97 93 100 100 100 100 99 99 98 74 52 20 28 36 47 54 53 58 52 41 36 34 29 28 32 42 49 52 56 56 53 46 43 40 39 37 59 100 82 77
54 100 74 97 100 90 94 97 96 93 91 89 97 94 89 56 25 26 35 47 50 46 52 53 45 40 37 35 38 38 33 43 45 49 44 40 34 36 38 38 54 100 82 79
42 100 98 100 100 91 74 64 56 46 44 48 52 68 96 100 92 67 28 29 44 42 44 49 52 57 49 38 36 41 38 38 37 41 48 36 29 32 39 40 48 96 83 73
40 99 100 100 91 79 63 48 48 39 35 44 46 52 63 74 76 78 30 25 36 42 34 45 46 51 50 37 34 64 42 29 28 34 32 41 36 30 33 44 47 86 84 71
54 100 100 100 89 79 64 48 37 33 42 44 31 28 31 35 26 18 21 61 56 41 32 31 38 40 42 27 27 49 44 30 21 32 29 32 34 34 33 38 49 74 79 74
98 100 100 100 97 72 54 46 42 37 18 10 8 25 58 52 59 66 91 93 82 68 46 48 40 41 34 32 29 30 30 21 19 29 43 29 29 29 30 31 38 52 76 74
100 100 100 100 100 78 53 58 33 29 45 84 100 100 100 99 97 100 100 99 100 100 100 79 60 41 34 27 24 24 23 17 22 53 62 50 29 25 25 26 26 32 50 73
100 100 98 96 100 77 61 76 37 65 84 94 100 100 100 100 100 100 100 100 98 89 89 69 47 43 34 28 24 21 20 27 58 64 63 55 49 28 24 27 24 21 30 54
100 100 93 71 99 79 62 91 58 67 77 90 100 100 100 100 100 100 100 94 93 99 100 94 96 76 53 38 37 38 60 75 73 72 76 70 52 45 37 34 28 23 22 36
100 94 68 79 99 73 58 91 85 88 100 100 100 100 100 100 92 94 98 92 99 100 100 100 100 99 99 100 99 97 95 93 86 81 83 91 79 58 47 44 40 32 25 30
100 89 83 87 89 65 66 97 98 93 100 100 100 100 100 100 84 86 95 88 94 98 100 100 100 100 100 100 100 100 100 98 94 92 92 96 96 89 77 67 61 52 37 30
100 100 92 98 71 62 56 70 99 86 100 100 100 100 100 99 76 73 64 61 62 76 90 99 100 100 100 100 100 100 100 100 98 96 100 96 97 99 95 84 75 67 62 47
82 80 87 81 63 59 52 65 100 84 84 100 100 100 100 100 82 69 68 60 66 66 64 65 90 98 100 100 100 100 100 100 100 100 100 100 100 100 100 100 100 98 80 70
75 65 55 48 41 40 56 83 100 100 73 82 100 97 100 89 93 84 90 99 87 74 60 52 49 61 91 100 100 100 99 100 100 100 100 100 100 100 100 100 100 100 100 100

GFSNW_500_rhum_069.txt.gz
RH
4 28 70 52 41 21 21 26 28 48 29 32 44 39 44 51 50 72 54 46 51 64 66 44 43 37 40 84 84 98 91 84 79 79 86 95 100 97 98 92 93 95 92 64
4 25 73 60 49 32 17 30 22 36 51 44 39 29 29 33 34 42 57 56 62 60 50 46 43 47 37 68 94 80 77 74 74 80 81 78 95 100 92 79 78 65 60 42
3 7 67 73 57 47 20 26 32 45 38 61 48 31 26 24 24 28 31 45 41 31 28 31 33 29 61 74 72 86 90 78 86 81 78 80 84 92 94 82 77 74 54 46
3 6 32 87 66 59 35 15 30 35 52 74 82 45 26 37 61 74 73 65 56 54 43 30 30 42 45 57 63 78 88 75 83 91 81 75 73 73 75 74 68 65 59 54
5 3 28 79 76 67 58 23 20 27 28 48 68 79 59 32 55 76 78 74 60 61 55 47 42 40 43 54 72 83 84 74 74 77 73 72 70 68 75 76 75 65 58 51
6 4 6 45 91 81 82 55 20 22 25 27 48 61 74 66 56 68 70 73 72 58 56 60 62 67 81 86 78 63 70 72 77 84 81 68 80 79 80 82 76 54 46 45
8 5 4 10 60 93 100 96 52 19 24 26 27 35 51 73 71 72 73 71 72 80 74 67 78 86 80 79 55 48 56 68 68 57 57 70 56 55 50 50 58 64 56 50
7 7 5 10 13 50 97 100 95 54 20 24 29 27 36 44 70 74 65 74 64 74 88 94 90 92 79 53 41 41 50 57 47 40 40 48 51 53 51 50 47 46 42 38
7 7 6 10 15 31 94 100 100 97 63 25 23 27 29 34 44 71 79 81 90 84 89 96 95 74 54 43 38 36 38 40 37 39 53 56 52 47 44 41 38 35 32 30
8 7 7 9 34 25 50 96 100 100 100 69 24 25 27 36 36 54 72 86 90 94 98 99 85 75 54 44 36 37 34 34 35 54 59 53 44 44 46 38 32 30 29 36
9 8 7 9 15 37 48 100 97 100 100 95 76 27 24 34 35 44 73 70 64 88 99 100 100 90 74 60 45 40 45 42 45 57 60 53 46 43 43 45 38 34 36 58
9 9 10 7 15 50 58 79 100 97 100 100 100 85 32 24 35 37 47 70 60 52 65 98 100 99 92 78 74 68 64 60 64 61 61 55 48 45 43 37 40 43 65 90
13 11 8 9 12 70 65 98 95 100 100 100 100 100 93 52 24 32 36 57 67 53 45 42 44 63 88 95 89 82 78 72 70 64 62 59 56 54 54 48 36 44 69 95
16 10 9 9 8 65 80 81 100 89 91 100 100 99 100 100 77 24 31 36 57 59 53 46 39 31 30 28 34 56 70 73 70 68 66 63 59 56 51 50 38 41 69 99
17 12 8 8 8 43 93 94 100 99 96 92 100 94 99 100 100 98 31 26 38 54 52 53 54 44 36 30 30 31 29 36 46 50 52 55 55 50 44 41 37 39 51 98
13 7 9 8 12 76 98 100 97 84 77 71 56 58 72 90 100 100 99 47 25 33 52 49 49 56 49 39 36 33 34 39 36 38 45 43 40 43 40 36 38 40 43 94
6 10 28 27 44 99 98 100 88 84 64 56 49 37 36 47 55 64 94 100 79 78 43 38 47 47 49 43 40 43 33 35 30 31 32 34 35 34 34 34 37 42 45 76
49 85 100 84 86 100 100 100 86 73 52 45 38 33 32 33 52 56 66 89 91 99 55 32 30 42 46 45 43 55 43 32 30 26 21 22 26 26 29 33 36 37 44 54
40 100 100 100 89 100 100 100 77 49 46 46 40 26 21 42 28 36 48 52 40 64 61 42 44 38 40 44 46 44 37 28 25 26 22 17 24 27 25 30 32 31 36 48
100 100 100 99 100 100 100 89 61 53 33 20 57 84 100 99 73 41 91 56 52 100 100 84 52 39 46 42 41 34 32 23 22 23 18 15 21 42 38 24 27 29 27 35
100 100 94 77 100 100 88 74 58 66 93 100 100 100 100 94 96 100 98 99 98 94 100 93 71 80 92 51 42 37 31 25 23 19 19 16 37 44 47 34 21 23 27 26
100 100 86 97 100 98 63 74 60 72 94 100 100 100 100 100 100 100 100 100 100 100 95 77 78 84 69 56 46 37 32 26 19 17 19 40 60 58 51 44 31 21 22 26
100 100 100 100 98 79 84 73 66 80 89 100 100 100 100 100 100 100 100 100 99 92 94 94 100 90 86 73 53 38 32 29 40 58 68 73 72 71 67 59 45 33 28 30
100 94 100 100 93 90 88 68 60 91 81 100 100 100 100 100 100 100 97 92 100 100 100 100 100 100 100 100 100 100 100 100 100 98 93 89 86 80 84 88 68 52 46 45
98 91 100 100 99 80 69 61 53 60 96 94 100 100 100 100 100 98 90 100 100 100 99 100 100 100 100 100 100 100 100 100 100 100 89 86 94 93 91 93 89 80 70 65
87 93 96 80 74 78 91 69 54 54 92 99 100 98 100 100 100 100 96 82 88 85 74 90 95 100 100 100 100 100 100 100 100 100 97 100 100 100 100 100 100 96 86 78
92 99 91 70 55 48 48 46 45 48 68 100 100 96 93 90 98 100 99 99 97 82 67 65 62 57 64 84 97 100 100 100 100 100 100 100 100 100 100 100 100 100 98 100

GFSNW_500_rhum_072.txt.gz
RH
4 4 4 4 31 65 48 22 24 29 35 28 28 34 38 42 41 31 35 48 58 56 56 61 53 42 54 78 50 51 92 99 100 98 98 100 100 100 98 96 95 90 99 85
4 6 5 4 14 73 61 30 22 32 33 48 25 25 27 26 38 49 44 40 42 35 36 33 35 31 44 54 74 88 76 76 72 69 71 89 95 97 98 95 99 98 99 84
4 4 5 5 6 36 74 56 22 29 36 62 38 28 25 22 27 29 40 42 37 37 32 32 30 28 28 70 79 72 67 64 58 54 69 81 90 96 99 99 99 96 86 86
4 4 4 6 4 12 85 87 44 22 30 39 60 49 30 41 63 76 65 40 32 26 23 27 26 21 28 46 59 49 57 62 60 61 66 74 79 83 93 98 91 79 68 84
4 4 4 4 5 5 42 97 95 43 22 28 38 52 67 48 32 73 82 78 60 36 28 25 24 33 31 50 47 50 68 75 68 77 80 71 70 73 77 86 94 84 77 71
5 5 5 5 5 6 9 55 100 95 42 27 28 33 48 67 62 49 63 70 75 58 46 34 35 41 48 52 60 71 84 81 71 72 73 72 70 68 68 69 73 78 71 68
6 6 5 6 5 5 7 12 66 100 95 42 30 32 27 43 63 68 68 70 67 73 60 58 64 71 73 73 77 75 60 68 73 76 84 80 70 73 77 77 78 83 76 66
7 6 6 7 6 5 8 13 32 98 100 92 42 29 32 28 42 61 71 64 74 63 77 79 72 72 79 81 80 61 47 55 68 65 66 65 78 60 67 65 64 71 81 68
8 8 6 8 9 6 6 14 20 59 95 100 94 46 25 29 34 42 66 76 76 86 70 67 76 89 89 83 64 44 40 53 62 49 40 42 64 72 72 56 52 50 48 47
9 9 8 8 12 10 6 5 19 26 97 100 100 98 38 28 29 37 52 74 83 87 92 96 93 95 82 62 48 39 36 47 52 37 36 50 68 68 61 52 47 42 39 35
8 8 8 9 9 11 7 6 6 23 48 100 100 100 98 40 27 35 60 61 74 74 93 100 100 93 90 67 52 39 36 35 34 33 43 58 63 60 52 58 50 41 35 33
8 9 12 16 14 13 8 5 6 8 42 97 100 100 100 96 31 28 43 53 73 65 59 86 100 100 100 85 72 63 45 42 49 47 58 58 60 60 55 44 42 46 44 41
7 10 18 18 15 13 10 6 7 9 39 90 100 100 100 100 97 39 29 44 50 73 63 54 69 96 100 99 88 83 75 63 60 58 60 61 59 56 50 47 51 43 44 58
7 13 16 15 12 8 5 7 10 27 60 85 100 97 97 98 100 96 34 28 40 51 72 61 44 40 49 55 68 87 85 84 76 72 68 66 64 62 61 57 55 54 44 47
9 13 13 14 8 4 8 9 18 99 90 76 100 100 100 100 98 100 100 56 27 40 54 65 55 44 38 31 29 28 28 36 56 65 67 64 63 63 60 58 53 48 44 41
9 12 13 9 8 25 16 15 96 100 100 100 88 98 88 89 95 100 100 100 94 28 36 51 56 54 51 38 35 30 27 29 30 29 35 38 44 50 53 54 50 43 42 41
7 9 7 7 34 65 95 100 100 100 100 90 82 69 68 67 42 53 63 92 100 100 33 27 36 50 50 47 49 53 39 31 28 31 32 33 31 33 37 43 44 43 38 39
8 7 9 22 84 100 100 100 100 95 88 57 58 63 53 46 43 37 36 57 85 89 100 75 43 38 33 41 47 61 60 49 39 26 24 26 24 23 23 25 30 38 34 34
11 36 48 74 97 100 100 99 100 91 95 70 45 43 41 36 34 33 33 35 58 74 82 98 100 98 66 37 37 45 52 52 46 36 21 18 22 23 17 19 23 23 32 35
81 96 100 94 100 100 95 100 100 78 58 52 29 32 78 65 76 93 54 62 59 51 61 61 58 60 75 54 38 40 44 47 46 40 28 20 22 21 17 15 21 27 22 29
99 93 90 81 100 98 89 100 100 81 65 85 99 100 100 100 73 88 100 100 81 53 77 97 76 68 99 59 43 38 37 40 43 38 32 21 19 19 19 16 18 34 35 24
96 79 97 99 97 95 95 100 95 83 90 92 100 100 100 99 100 100 100 94 100 89 99 80 87 100 82 76 71 60 48 44 41 40 31 25 20 16 16 18 27 26 31 31
94 82 93 96 97 94 99 100 90 80 90 87 100 100 100 100 100 94 99 100 98 100 100 100 100 90 86 79 77 72 66 57 50 42 33 27 20 16 18 34 53 49 46 40
83 95 100 92 99 96 99 97 86 65 92 95 96 100 100 100 100 100 97 100 100 99 100 100 100 100 95 83 98 100 100 81 60 50 46 48 58 65 65 63 63 65 67 62
83 92 95 87 83 92 100 88 62 60 57 70 100 97 95 100 100 100 100 100 100 100 100 100 100 100 100 100 100 100 100 100 100 100 100 100 96 92 88 86 84 86 93 87
78 75 84 85 70 65 71 74 79 76 60 54 75 100 98 97 93 98 100 100 100 100 100 100 100 100 100 100 100 100 100 100 100 100 100 100 100 100 100 100 100 100 100 100
88 83 80 84 70 66 58 48 44 44 56 47 49 82 100 88 95 100 100 100 100 94 88 82 98 97 93 98 97 96 98 100 100 100 100 100 100 100 100 100 99 100 100 100

GFSNW_500_rhum_075.txt.gz
RH
11 10 7 4 4 4 4 20 63 29 29 38 29 24 28 30 37 36 45 57 51 58 51 69 41 72 100 98 100 93 74 61 58 91 91 87 88 84 84 77 87 100 100 82
16 11 9 5 5 4 4 11 57 56 26 29 47 24 21 22 23 38 46 56 49 41 45 49 32 30 48 50 66 81 98 99 96 98 97 84 72 66 69 87 92 89 97 80
21 15 11 7 6 5 4 6 35 84 53 26 32 48 25 28 34 29 30 37 41 36 29 29 28 25 50 70 76 70 72 68 70 72 74 81 86 83 94 86 97 88 77 73
23 18 11 7 7 5 5 4 8 52 98 52 25 35 49 30 44 70 52 34 35 38 30 29 29 26 25 47 65 67 61 57 56 54 53 56 68 77 84 83 85 83 81 96
26 24 18 10 7 6 7 5 5 14 70 100 42 26 32 54 46 36 74 69 60 49 42 34 28 24 24 33 47 58 46 54 57 54 53 56 66 77 86 90 86 86 82 74
29 27 22 15 9 8 7 7 5 6 11 78 100 48 26 32 45 58 37 58 66 66 53 46 34 30 32 30 45 40 46 61 65 61 64 67 67 72 75 81 89 89 76 82
33 27 25 16 11 8 7 8 7 6 6 18 90 100 36 29 29 38 62 62 59 62 69 56 49 41 46 48 52 62 70 72 72 72 68 72 71 71 71 72 73 76 76 77
36 29 24 16 11 11 7 7 11 9 7 6 28 91 99 32 31 32 43 64 62 68 63 71 62 62 70 78 76 79 76 60 59 71 72 71 74 70 70 74 76 79 80 82
39 32 27 15 14 11 7 9 13 10 7 5 6 42 99 93 32 30 34 52 70 64 70 65 76 78 83 78 81 76 70 46 52 66 61 63 69 77 64 67 65 62 65 80
40 32 23 17 14 10 8 10 10 10 6 5 6 20 79 100 81 31 32 51 79 77 74 79 83 79 89 93 88 78 50 40 48 65 48 40 54 74 83 75 65 64 52 51
32 26 22 17 14 9 8 7 7 7 4 6 8 27 79 98 100 51 33 40 68 74 80 81 84 91 98 92 73 54 42 37 41 57 39 40 64 88 92 84 78 55 45 42
23 20 19 15 10 7 8 9 8 6 4 8 21 66 91 100 98 100 39 40 58 69 74 66 75 86 98 95 88 67 50 40 43 38 37 42 64 80 81 73 54 69 51 44
14 13 11 11 9 7 6 6 6 4 7 12 38 79 83 100 99 100 99 36 40 51 79 64 54 77 99 96 93 89 78 62 52 48 52 50 61 62 59 67 64 51 46 44
10 11 10 8 6 6 5 8 6 10 9 18 100 97 90 100 100 96 100 74 37 44 55 69 55 50 75 98 98 96 93 88 79 71 66 64 66 67 62 60 58 57 57 54
10 8 7 9 6 5 4 13 12 18 24 97 100 100 83 100 99 100 99 100 74 34 41 49 67 52 47 50 59 63 78 91 81 77 76 77 74 72 68 66 64 60 57 53
8 7 5 6 5 4 18 18 44 60 94 93 100 84 74 99 100 100 100 100 100 94 31 38 48 69 50 37 39 36 32 30 30 34 38 48 53 58 59 59 59 59 57 52
9 4 8 7 3 10 25 48 76 100 98 99 100 97 87 78 85 78 85 100 100 100 99 46 36 48 62 50 43 45 35 32 30 33 27 26 32 34 35 36 42 47 49 50
7 7 4 4 10 23 55 74 97 100 100 100 82 64 61 72 69 60 64 47 76 94 100 100 86 35 30 46 54 57 60 49 43 37 30 26 25 27 27 26 23 24 29 39
7 5 4 19 35 68 91 79 100 100 77 75 66 54 44 36 34 37 38 41 39 43 57 84 100 95 61 30 32 44 56 66 55 50 45 39 27 18 20 25 25 18 18 22
6 6 18 38 68 82 66 96 100 100 86 62 46 62 85 78 72 64 61 48 41 37 48 68 72 77 98 100 100 86 44 41 44 47 48 47 43 28 22 21 22 19 15 17
6 12 38 49 63 81 90 100 98 90 74 90 100 100 100 100 100 100 99 100 97 77 63 49 56 70 88 74 63 64 79 44 37 42 44 46 44 36 24 20 20 20 19 17
8 28 47 54 64 76 98 97 90 87 91 90 100 100 100 100 100 99 100 100 100 100 84 79 98 99 89 69 60 58 55 51 43 39 40 41 43 38 33 24 21 16 16 17
10 44 69 62 62 84 96 75 92 81 87 84 86 97 100 100 96 100 100 100 96 100 100 100 100 90 80 72 69 69 73 79 80 68 48 42 44 40 35 28 22 17 14 15
38 55 73 97 100 96 84 86 94 83 78 95 96 93 96 97 100 100 100 99 91 96 100 100 99 100 86 84 85 85 93 91 82 72 60 54 48 44 39 30 24 18 16 19
52 63 68 99 97 92 76 91 84 70 64 61 58 84 94 86 92 97 100 100 99 100 100 100 100 100 100 93 99 100 100 100 100 99 99 100 98 96 90 86 89 88 80 74
70 83 68 72 94 89 75 65 73 66 47 52 62 56 57 91 80 92 98 100 100 100 100 99 96 100 97 100 100 100 100 100 100 100 100 100 100 100 100 100 100 100 100 100
63 83 98 96 100 95 76 62 52 49 44 39 37 58 51 54 87 96 100 100 100 100 100 100 100 100 100 100 100 100 100 100 99 97 98 100 100 100 100 100 100 100 100 100

GFSNW_500_rhum_078.txt.gz
RH
38 30 24 22 18 16 15 10 7 4 11 50 33 27 35 24 22 38 39 41 48 45 54 41 44 100 91 71 77 86 86 88 71 50 39 35 41 29 41 49 57 70 63 49
44 34 31 25 22 19 18 12 10 5 5 26 70 30 39 40 24 27 32 42 37 33 36 44 32 63 100 91 87 50 47 43 32 30 38 59 36 38 57 58 59 64 67 61
45 39 37 32 28 25 23 15 12 8 7 6 34 68 26 44 36 45 49 35 36 36 31 32 27 30 83 100 100 100 100 100 93 94 97 95 90 80 77 80 66 61 68 74
47 45 35 30 28 28 27 20 14 9 8 6 6 47 78 26 48 41 48 65 47 34 32 29 25 23 44 92 82 97 98 92 99 94 76 73 74 69 60 59 64 60 63 72
52 49 44 34 29 30 29 24 16 11 8 8 6 6 40 83 28 50 53 41 73 58 41 33 30 26 23 26 50 49 55 53 54 53 54 52 50 60 78 69 62 63 57 72
52 49 42 40 35 34 30 28 20 12 8 7 6 6 5 51 68 30 46 65 43 59 62 48 29 27 23 23 30 56 48 43 57 64 61 55 45 48 57 72 77 76 62 87
51 49 45 39 38 37 31 25 21 16 10 8 6 4 5 5 78 44 33 58 68 55 57 67 54 37 26 28 29 41 40 44 58 64 62 59 64 68 68 70 70 73 78 81
52 52 48 42 42 38 32 27 21 18 12 8 5 5 6 5 19 99 38 40 62 68 68 68 71 58 47 37 41 50 64 70 72 65 65 65 67 71 72 70 68 68 69 70
61 54 40 42 41 37 28 26 24 16 11 9 4 4 6 9 21 97 62 40 56 66 76 72 73 82 70 64 66 74 78 79 66 54 62 68 69 70 72 72 69 71 68 67
61 47 43 43 37 30 28 22 18 16 11 8 4 4 6 11 58 99 87 56 54 67 85 88 83 79 82 79 78 77 79 79 57 48 63 63 53 63 80 71 68 66 61 62
57 46 43 32 26 32 28 22 16 12 6 5 7 7 9 74 100 100 100 55 51 66 81 94 94 95 94 88 90 90 83 70 44 43 64 54 43 54 74 79 80 81 72 60
52 26 22 32 32 32 24 19 14 6 9 14 7 9 14 100 100 100 100 76 50 53 68 88 93 96 100 100 100 85 67 49 42 44 58 47 42 73 87 98 95 88 70 55
34 28 14 23 26 24 21 18 11 6 7 27 12 13 57 96 98 100 100 100 53 54 70 80 78 71 89 100 100 97 73 59 46 45 44 40 48 68 95 98 94 67 83 90
38 17 9 15 20 19 21 16 6 5 9 12 36 54 85 80 91 100 100 100 100 54 61 66 74 68 66 93 100 100 93 82 69 57 55 57 59 62 67 72 67 86 67 61
24 11 13 13 22 22 18 8 4 8 13 43 90 78 92 90 90 100 100 100 100 98 40 47 62 77 60 59 90 100 98 100 94 86 80 76 70 67 68 70 68 65 65 62
20 12 6 12 15 15 9 5 5 16 17 71 88 80 74 99 100 96 91 100 92 99 95 43 51 65 73 54 62 82 87 92 90 95 94 87 80 77 72 70 68 65 62 59
20 11 9 10 15 10 5 6 14 48 35 69 87 95 96 98 98 100 100 100 100 100 100 98 43 44 54 62 67 61 48 43 43 39 37 40 40 41 41 42 45 49 52 53
17 13 10 11 10 6 6 21 58 65 55 63 94 94 69 75 71 66 86 77 83 98 88 94 100 48 34 34 68 73 61 46 41 36 31 29 30 30 29 28 26 25 25 27
17 11 7 7 7 9 21 54 61 68 73 72 64 57 50 46 43 47 60 62 69 69 95 99 96 88 60 42 36 61 88 69 54 44 41 34 34 31 28 28 26 24 22 21
16 10 8 9 8 11 33 63 66 73 74 59 54 73 72 65 72 59 41 43 45 55 55 56 72 82 100 100 89 38 35 55 61 58 58 54 48 45 42 31 23 20 18 21
17 14 10 8 9 22 47 58 64 60 69 61 76 90 100 95 99 96 85 87 70 61 49 47 45 56 85 84 86 89 83 68 47 36 38 42 46 47 48 45 40 26 22 22
19 14 10 9 11 36 52 68 68 65 73 71 75 91 96 99 100 95 100 100 99 99 86 69 86 61 58 62 77 84 77 69 66 80 85 70 48 36 38 39 45 42 34 22
19 15 10 12 26 44 46 56 74 74 76 82 86 83 91 96 100 99 100 100 100 99 100 100 100 100 100 99 90 78 73 77 74 72 65 55 47 39 36 37 42 42 36 33
18 14 12 15 36 71 83 94 81 84 78 71 90 96 93 87 97 93 99 95 100 100 99 100 100 97 84 88 85 80 76 75 77 76 78 80 75 68 54 42 40 38 38 35
17 15 12 17 48 80 92 95 90 92 83 62 58 55 62 96 99 100 99 99 100 100 100 100 97 99 100 100 83 96 98 98 100 100 99 99 96 88 71 53 45 39 33 30
16 12 14 46 71 64 78 98 96 82 66 70 49 41 44 56 74 100 100 100 100 100 99 99 100 100 100 94 96 100 94 100 100 100 100 100 100 100 100 100 100 100 99 98
13 14 27 72 82 82 87 96 93 90 72 53 44 39 37 34 49 60 100 100 100 100 100 100 96 99 100 100 100 100 100 100 100 100 100 96 96 96 100 100 100 100 100 100

GFSNW_500_rhum_084.txt.gz
RH
62 67 68 68 64 58 62 56 47 33 27 26 28 21 17 15 9 10 56 63 72 57 53 50 82 85 93 100 75 90 90 95 100 100 75 93 85 91 80 71 58 47 38 32
63 69 69 68 68 58 59 57 43 33 28 28 30 27 22 16 11 9 45 65 75 96 63 60 73 84 88 100 100 97 94 100 100 100 87 74 67 75 75 67 56 43 30 20
66 73 72 70 68 58 55 52 38 32 29 27 28 26 23 12 10 11 10 73 92 100 84 58 87 100 85 95 100 100 98 95 100 100 90 86 80 87 86 72 53 39 24 27
71 75 73 72 67 60 52 50 38 34 32 29 27 24 19 12 9 17 16 57 92 91 100 76 57 100 100 93 90 100 100 99 97 97 99 96 98 94 81 62 57 43 32 22
74 75 77 74 68 62 56 56 41 38 32 27 24 18 18 12 8 16 37 59 100 99 100 95 54 77 100 100 96 67 80 94 81 70 42 44 36 36 42 38 32 38 37 27
76 81 82 74 69 63 56 58 45 46 34 27 19 15 13 9 5 13 27 43 100 90 100 100 94 49 80 100 100 88 70 97 70 57 44 59 79 96 83 81 65 47 23 56
74 86 76 72 72 63 58 56 54 44 32 24 16 15 10 6 4 5 18 47 100 97 100 98 100 94 53 52 88 95 99 98 90 91 87 83 84 85 65 66 77 72 82 86
79 92 78 75 77 66 62 60 58 43 27 22 16 12 8 5 3 4 13 60 100 100 85 94 96 100 89 67 42 32 35 52 64 49 48 54 62 65 56 52 53 50 56 65
92 93 78 76 73 62 61 59 51 34 24 19 14 10 6 4 4 4 12 99 99 100 86 100 96 96 100 82 60 44 43 50 69 59 49 58 69 65 63 60 56 50 56 58
96 92 80 80 70 62 61 58 42 31 24 17 12 8 5 5 6 13 32 60 100 100 72 99 100 96 98 100 78 58 53 52 51 62 73 77 68 62 68 67 59 61 64 66
92 88 83 78 68 64 59 54 38 29 21 15 10 7 6 5 7 66 74 100 95 92 77 98 100 100 99 100 100 87 70 69 79 79 78 79 61 56 65 63 60 70 70 68
98 91 89 75 69 69 60 47 37 28 19 13 10 7 10 6 29 88 98 94 78 99 88 79 99 100 100 93 100 100 100 90 89 89 83 80 66 52 65 58 52 71 79 79
96 97 92 86 84 73 62 48 35 24 17 12 9 10 18 16 14 72 80 86 70 76 88 70 94 96 100 96 93 100 100 95 100 96 88 82 55 49 62 53 54 74 87 90
95 96 95 95 91 80 63 49 32 22 16 12 11 25 29 49 23 18 56 80 71 81 90 82 71 86 83 99 97 100 100 100 100 98 81 62 49 49 64 49 57 82 100 100
97 96 97 98 91 67 46 32 25 19 12 10 12 23 36 41 52 55 23 54 76 79 83 82 67 62 66 90 94 98 97 100 100 100 88 68 62 61 59 56 69 86 98 100
98 95 97 93 80 50 28 22 22 12 10 10 17 32 34 49 61 65 67 46 80 88 100 97 90 79 48 73 98 89 78 96 100 100 100 92 76 72 71 68 72 75 89 99
97 98 97 94 49 17 16 20 18 10 11 12 20 31 29 40 44 68 74 72 55 69 92 96 100 96 70 44 68 100 85 72 93 100 100 100 95 83 77 80 84 83 84 90
97 99 100 88 20 16 14 13 11 11 10 16 22 32 31 27 28 35 45 58 71 69 70 86 94 97 74 48 56 85 69 71 75 84 96 97 100 100 100 98 97 97 93 86
97 99 100 43 14 15 13 9 9 10 10 16 29 42 34 30 38 41 35 29 37 49 71 82 76 94 91 100 98 52 51 57 69 74 74 70 72 74 83 90 90 81 64 50
98 99 88 16 16 12 11 10 8 8 10 26 38 48 36 45 46 53 47 52 46 38 40 63 76 73 70 79 100 98 62 42 42 56 64 56 60 61 65 62 56 50 46 41
99 99 57 21 15 14 10 8 7 6 10 26 46 52 47 57 62 69 77 92 100 100 84 57 59 64 70 77 84 100 100 79 50 40 42 53 60 64 64 58 58 54 49 47
100 93 36 17 20 14 9 8 8 7 9 24 41 57 55 60 64 88 100 90 97 100 99 94 77 64 57 52 62 83 76 95 99 99 93 62 42 39 42 47 50 48 46 45
100 80 29 26 26 14 12 10 9 8 10 30 59 77 71 66 78 75 80 81 100 98 100 100 100 100 99 88 89 69 75 76 77 80 83 92 96 97 91 79 74 68 59 54
97 74 44 32 25 16 16 13 9 8 9 47 80 86 79 69 68 86 80 90 95 97 100 100 100 100 100 100 100 100 100 100 99 93 90 90 91 90 78 63 52 46 44 41
96 70 55 44 28 19 18 12 10 9 11 35 88 92 90 78 59 51 58 69 89 98 100 100 100 100 100 100 100 100 100 100 100 100 100 100 96 88 85 82 78 77 76 76
93 76 62 45 26 20 16 12 10 10 11 31 76 86 82 93 92 71 48 43 42 48 86 98 100 100 100 100 100 100 100 100 100 100 100 100 100 100 100 100 100 100 99 99
87 73 58 34 27 22 19 14 11 11 18 38 62 69 75 81 84 77 68 57 42 30 26 34 94 100 100 100 100 100 100 100 100 100 100 100 100 100 100 100 100 100 99 97

GFSNW_500_rhum_087.txt.gz
RH
62 61 60 62 63 61 60 48 47 47 45 46 42 33 25 18 13 12 51 75 88 80 65 68 99 100 100 52 40 40 68 96 100 100 95 81 69 71 76 72 63 58 62 68
59 62 68 64 61 62 55 51 48 42 44 47 43 29 20 14 10 8 29 82 78 91 88 64 100 100 100 69 64 78 76 89 100 91 64 52 58 68 74 65 68 66 63 69
66 66 72 67 65 61 54 52 48 41 43 43 32 20 14 11 8 6 40 77 92 100 100 57 99 100 100 100 99 100 80 78 94 94 99 96 85 75 80 76 72 68 67 74
76 74 75 74 66 61 53 50 50 44 46 38 24 17 12 9 6 5 8 56 84 100 91 71 81 100 100 97 100 100 100 100 92 100 96 78 81 80 70 62 74 69 66 57
82 80 82 80 69 63 59 53 54 44 44 33 23 15 10 7 5 5 6 26 76 100 97 83 70 100 100 100 100 100 100 100 100 95 89 84 76 70 66 67 72 64 67 68
82 86 90 88 72 65 58 52 49 47 44 30 20 13 9 6 5 4 3 17 71 97 93 82 75 69 100 100 100 97 99 100 95 85 92 86 76 80 82 76 73 65 54 49
82 86 88 93 77 65 55 54 48 51 45 27 18 12 8 5 5 3 3 19 100 97 88 85 88 72 65 99 100 100 88 98 100 92 66 47 52 54 55 61 58 49 62 65
79 90 90 96 79 70 57 52 49 51 39 24 17 11 8 6 5 3 3 26 100 100 94 89 78 88 78 57 73 99 100 92 100 100 99 86 87 90 84 82 66 63 68 76
93 93 95 92 80 67 57 50 52 48 34 24 16 10 7 6 5 4 17 100 78 83 85 72 81 80 92 70 65 50 43 52 75 91 66 56 56 58 63 62 53 52 57 53
95 97 97 88 76 64 54 50 53 49 30 22 14 10 7 7 7 20 89 72 62 66 69 88 91 80 80 87 79 52 36 35 37 49 69 52 51 60 64 60 55 59 60 62
93 96 96 82 81 65 54 48 53 46 29 21 14 9 7 8 11 24 49 78 88 73 73 60 67 73 81 86 90 81 59 45 40 39 43 59 68 72 66 56 60 62 62 64
96 97 97 89 84 63 52 55 61 42 28 21 14 9 9 10 10 18 69 81 76 72 59 61 62 80 74 73 86 90 87 71 58 58 69 70 68 70 66 56 64 60 62 74
93 98 97 93 85 58 53 59 61 39 28 19 13 9 9 11 14 13 28 65 61 54 53 77 66 67 84 81 77 85 95 99 100 90 80 77 78 78 76 53 63 52 54 77
95 97 96 94 85 59 60 61 58 36 30 20 13 10 9 15 22 25 24 55 68 69 58 50 70 63 64 85 90 93 90 95 95 91 92 94 83 80 62 48 62 58 58 78
96 97 97 95 89 66 66 67 52 36 31 23 13 11 9 13 18 36 56 51 29 61 76 78 74 83 64 54 94 89 93 99 100 100 97 100 91 67 58 53 63 57 57 76
96 97 96 95 94 80 76 62 42 38 33 22 15 10 10 16 21 26 50 60 63 50 80 89 92 83 79 59 83 93 92 86 90 95 96 96 100 92 67 64 71 65 70 76
97 98 97 96 95 90 74 47 43 37 34 22 15 10 10 16 22 17 23 53 68 74 76 78 95 96 93 91 89 97 81 82 82 77 87 96 100 100 97 73 75 78 78 83
97 98 97 96 96 89 65 37 29 33 30 22 13 10 9 15 24 21 23 29 36 48 60 80 70 77 87 86 100 94 64 64 72 81 79 84 96 100 100 100 95 94 95 96
97 100 97 97 97 89 57 30 30 22 22 21 15 9 9 21 28 30 32 31 31 31 34 38 53 71 72 79 100 98 68 52 47 63 74 80 82 94 100 100 100 100 100 100
97 99 98 98 99 81 51 25 24 16 16 18 14 8 8 25 40 37 39 55 68 74 72 62 43 42 70 76 74 76 96 99 78 48 48 53 76 92 95 96 89 86 81 76
98 99 98 98 98 78 33 26 16 15 16 14 10 8 10 32 48 44 65 90 95 100 94 97 95 70 60 66 71 71 74 91 93 100 79 49 42 49 88 93 76 72 71 70
100 99 98 98 97 76 44 25 20 15 14 8 10 7 9 30 54 54 60 74 76 83 94 99 100 100 99 73 60 58 65 86 98 100 100 100 96 85 61 50 60 52 45 52
99 99 99 97 96 71 44 34 26 14 9 10 7 6 10 36 64 64 60 64 70 76 90 85 99 98 99 94 98 97 92 82 86 82 76 95 100 100 100 100 99 95 83 68
99 99 99 97 96 77 54 52 22 14 13 13 8 6 10 43 73 70 62 58 69 77 85 92 91 100 100 93 87 99 100 100 100 97 89 89 87 94 98 98 93 88 78 68
99 99 99 99 96 72 72 59 19 16 16 14 14 8 10 42 77 87 82 66 51 42 42 51 76 91 99 100 92 100 100 100 100 100 100 100 100 100 100 99 95 90 93 87
99 98 100 98 90 87 79 39 20 21 22 20 15 9 9 23 65 83 88 91 82 59 48 42 32 28 63 96 100 100 100 100 100 100 100 100 100 100 100 100 100 100 100 100
98 100 98 91 92 89 68 31 26 30 24 18 13 10 11 21 45 68 76 84 84 79 73 66 48 29 26 26 53 98 100 100 100 100 100 100 100 100 100 100 100 100 100 100

GFSNW_500_rhum_090.txt.gz
RH
85 77 74 67 62 61 54 44 44 36 31 28 26 24 17 11 7 6 11 68 100 100 90 98 100 100 80 44 52 77 89 98 100 100 94 75 74 84 83 89 90 91 82 76
94 92 82 73 65 64 55 50 49 37 31 28 25 24 17 8 6 5 5 53 92 100 91 96 100 100 97 39 36 37 92 100 100 100 100 96 100 79 66 72 78 84 86 79
96 96 87 80 70 70 58 53 49 33 32 30 25 22 15 8 5 4 4 34 84 84 93 96 100 100 98 68 85 100 80 96 97 90 100 100 95 78 79 86 90 94 97 100
98 96 91 84 71 71 64 57 52 39 38 32 25 20 13 7 5 4 3 42 84 87 69 76 100 100 100 100 99 81 62 92 88 83 80 70 63 75 76 64 80 94 100 96
96 95 96 87 75 72 68 61 54 38 37 33 26 20 11 6 5 4 2 37 80 74 51 66 97 100 100 100 95 100 86 76 85 78 84 83 63 70 71 77 79 81 86 100
98 95 96 83 78 78 70 63 60 45 40 33 24 19 11 6 5 4 3 24 74 89 53 62 79 96 99 100 96 97 90 92 80 77 89 87 89 86 85 84 81 70 75 96
96 96 94 91 83 78 70 66 60 44 41 32 24 18 11 6 5 4 3 8 64 58 62 75 63 72 89 92 80 78 94 94 92 93 85 88 85 78 80 84 79 76 70 66
98 97 96 91 86 78 65 72 58 48 41 31 23 17 11 7 6 4 4 26 48 55 54 64 66 62 57 85 96 84 87 86 96 100 98 85 72 58 58 56 68 68 69 64
97 98 96 93 86 84 71 71 57 48 39 30 23 16 11 7 6 5 15 23 49 58 53 54 52 56 62 50 48 81 85 77 91 98 98 84 75 69 87 85 77 71 64 56
98 97 97 93 88 87 79 75 56 45 37 28 23 17 11 8 6 6 11 23 33 40 49 50 49 47 55 58 58 46 47 74 79 91 95 87 81 75 57 58 59 63 60 55
97 98 97 95 93 85 80 76 55 44 36 29 23 18 12 9 7 7 8 27 34 44 54 58 53 56 49 53 59 62 51 39 32 31 44 66 65 51 50 53 56 55 60 60
98 98 98 97 93 85 78 76 54 43 36 31 25 18 13 10 8 7 8 15 52 49 63 53 62 56 62 60 60 66 72 56 44 45 41 46 47 56 61 60 55 54 62 61
98 99 97 97 95 89 86 76 52 41 36 32 27 20 14 11 8 7 10 13 28 62 52 53 70 63 64 69 72 77 86 86 82 64 56 61 70 72 69 68 69 55 61 60
97 100 97 97 94 86 85 77 51 42 38 32 29 22 16 11 8 8 11 22 26 21 61 62 64 52 70 69 78 85 88 94 95 92 88 81 80 78 77 80 77 55 62 55
97 100 97 96 95 86 81 70 56 49 40 33 31 24 18 12 8 9 10 13 25 38 31 66 73 80 70 80 75 72 89 92 91 93 95 91 84 89 86 76 62 50 59 61
96 98 98 96 97 94 84 64 54 54 43 34 34 27 21 13 9 8 10 13 18 45 52 32 45 59 91 82 93 73 81 87 82 86 88 92 90 87 93 95 77 66 64 69
96 97 97 97 97 96 93 76 57 50 43 39 34 29 22 15 10 8 10 15 19 24 42 70 72 84 70 95 100 95 73 83 91 90 81 80 90 91 88 92 98 80 79 84
98 99 97 98 98 96 96 87 61 50 44 38 35 32 23 16 11 8 8 13 18 23 27 37 56 73 68 78 100 96 84 85 72 73 88 82 78 87 98 100 100 100 97 91
98 96 99 98 97 97 95 91 70 51 45 36 39 30 26 18 10 8 10 12 20 34 44 46 45 45 56 71 78 94 100 94 91 66 62 71 76 84 92 99 100 100 100 100
96 97 99 98 98 97 96 91 76 55 42 33 42 30 26 18 11 9 10 17 28 40 48 56 65 60 51 51 69 75 75 79 84 92 82 57 48 64 81 97 96 96 99 99
94 98 98 99 98 97 97 97 76 47 40 40 36 25 22 15 11 8 10 20 43 58 66 75 73 84 84 76 67 65 73 73 72 80 88 98 92 57 53 58 90 94 89 88
98 100 99 98 98 97 97 94 73 51 44 46 34 24 17 17 10 8 9 21 43 46 58 62 80 83 93 91 89 95 81 65 73 81 91 100 100 100 90 54 46 47 61 88
100 100 99 99 97 98 97 96 79 52 52 44 27 18 20 13 10 8 9 21 47 51 57 64 73 79 84 89 91 97 97 99 92 73 85 98 100 100 100 100 100 100 99 94
100 100 99 99 97 98 99 97 81 62 62 42 20 22 24 12 12 9 9 16 56 65 52 45 50 65 80 87 84 92 100 100 100 100 100 100 98 96 98 97 98 100 100 100
100 100 99 99 99 96 98 99 77 68 68 28 21 30 18 11 14 10 10 14 34 65 73 70 52 42 36 39 72 88 99 100 99 100 100 100 100 100 100 100 100 100 100 99
99 99 100 99 98 99 98 100 85 80 60 27 29 36 27 16 16 14 11 9 27 48 66 78 80 72 65 46 27 30 51 96 100 100 100 100 100 100 100 100 100 100 100 100
99 100 99 98 98 98 100 100 87 78 55 32 41 49 32 26 20 14 10 9 17 40 60 62 69 70 63 59 56 43 27 24 62 93 100 100 100 100 100 100 100 100 100 100

GFSNW_500_rhum_096.txt.gz
RH
99 95 98 94 92 86 66 56 59 50 39 33 27 19 14 10 8 4 4 10 43 60 71 83 71 53 78 53 64 82 71 90 70 93 88 78 91 83 89 93 99 94 100 77
100 95 98 97 94 88 69 60 60 51 44 37 29 20 14 11 8 5 4 7 33 49 58 77 64 56 73 98 72 94 59 74 80 86 84 83 89 87 93 100 100 100 100 97
96 96 97 97 90 85 73 61 59 54 48 40 28 20 15 12 9 6 4 6 31 48 47 66 73 36 44 63 83 72 70 84 100 99 95 100 96 85 98 100 100 98 98 100
97 96 97 97 93 91 71 64 58 53 52 41 29 20 16 13 9 6 4 5 14 45 44 61 76 83 95 86 74 71 77 97 100 100 100 92 76 87 100 100 100 100 100 100
97 94 97 97 94 94 75 66 58 55 55 43 30 21 16 14 10 7 5 5 12 39 44 54 67 79 94 84 74 73 69 69 91 100 97 100 87 98 97 96 98 100 100 98
98 98 97 95 94 95 82 73 59 57 58 46 34 23 18 15 11 7 5 6 9 30 54 56 59 64 82 93 83 97 100 92 98 94 96 95 100 100 89 85 97 99 100 92
98 95 96 96 95 96 93 78 61 56 59 50 36 24 19 16 12 8 6 6 8 20 43 58 67 71 69 78 61 65 75 86 91 98 94 81 86 78 65 70 72 73 68 78
98 96 94 98 97 93 92 77 64 59 63 51 35 26 21 17 13 9 6 6 7 12 31 40 45 56 64 69 61 56 65 72 73 70 70 79 76 80 84 84 80 74 76 75
98 96 96 98 95 92 88 82 69 62 64 50 34 26 22 19 14 10 7 6 6 9 16 32 37 40 47 47 50 53 68 73 78 80 77 58 83 72 72 75 70 62 56 54
95 97 97 97 96 87 86 80 68 62 65 48 36 28 24 20 16 12 8 6 6 7 10 16 38 48 51 51 51 49 45 47 75 86 81 83 92 86 82 73 66 71 60 63
96 97 97 97 92 86 80 76 67 64 60 47 37 31 26 21 17 14 10 7 6 6 8 16 22 50 52 53 61 65 64 60 50 80 95 92 100 100 95 84 78 70 61 58
97 97 98 96 95 88 78 75 73 65 58 45 35 31 26 22 19 15 11 8 6 6 6 9 16 34 57 56 56 76 81 85 80 66 58 73 90 100 100 96 84 71 59 53
97 98 98 97 94 84 82 75 77 74 57 44 41 34 28 24 21 17 13 9 6 6 5 7 10 14 24 51 56 75 75 89 85 95 83 60 50 46 52 78 89 74 57 58
98 98 98 96 93 89 81 78 74 68 53 55 47 36 29 25 22 19 14 10 7 6 5 5 6 12 25 48 61 71 79 79 93 91 91 96 87 74 58 52 52 55 55 64
97 97 94 97 92 89 87 86 84 68 67 64 58 42 31 27 24 20 15 12 8 6 5 5 5 7 16 38 63 86 78 85 83 98 100 100 100 100 98 91 84 79 74 69
97 97 97 98 94 93 90 93 89 80 72 72 65 44 32 29 26 22 18 13 9 7 5 5 5 5 12 20 50 53 58 68 100 78 91 100 100 100 100 100 100 96 91 86
97 97 98 98 96 97 94 91 87 84 78 65 63 50 34 32 28 23 20 15 11 8 6 6 5 5 8 16 25 54 83 93 98 100 99 81 100 100 100 100 100 100 100 100
99 97 97 94 97 96 97 91 88 83 65 69 63 53 38 35 30 26 22 18 14 10 7 7 7 6 7 10 26 36 43 69 80 100 100 96 99 100 100 100 98 100 100 100
97 99 97 97 97 97 96 94 94 87 80 78 64 52 42 38 34 29 25 21 17 13 9 8 8 8 7 11 22 33 48 45 54 72 89 100 100 94 93 85 92 99 98 100
98 98 97 96 97 97 96 96 95 94 85 75 66 56 52 41 38 32 28 23 21 16 12 11 10 8 8 9 18 34 58 71 63 50 61 77 87 100 100 100 96 89 97 96
97 98 100 98 98 98 97 97 97 95 76 72 66 63 55 45 41 36 32 27 25 22 18 15 14 11 9 8 14 29 43 53 71 74 64 61 73 90 91 100 99 77 73 75
100 100 99 98 97 96 96 98 96 95 72 65 62 64 62 48 46 40 36 31 30 28 25 23 17 15 12 9 12 25 38 53 61 67 67 77 69 63 82 90 100 100 96 89
99 97 97 98 96 96 100 98 98 95 86 74 61 66 62 53 49 45 38 37 37 34 31 28 23 17 13 10 9 24 40 39 44 68 72 72 86 88 83 77 97 100 100 100
97 96 96 96 96 96 99 98 97 96 93 76 62 64 69 61 55 50 41 39 41 41 36 32 30 20 16 12 11 12 31 58 54 35 43 62 70 98 96 100 96 93 100 100
96 98 97 96 99 97 98 98 98 97 94 79 60 70 80 71 60 59 46 42 45 46 41 37 33 27 16 13 13 12 16 27 56 69 61 37 30 75 100 99 99 100 100 100
96 94 92 96 97 99 99 98 96 94 89 69 62 76 83 78 70 64 56 44 48 55 49 44 43 27 21 14 15 11 13 19 34 59 61 58 52 42 60 96 100 100 100 100
92 88 99 98 98 99 98 97 93 90 82 68 67 78 89 80 81 71 62 54 55 62 58 52 48 29 27 19 14 10 12 19 28 31 26 24 27 30 30 32 49 96 100 100

GFSNW_500_rhum_099.txt.gz
RH
96 89 84 98 96 96 96 94 73 58 49 39 24 18 16 12 9 7 4 5 22 38 57 38 46 40 44 42 51 55 50 41 35 76 79 86 86 97 96 70 60 66 67 81
99 95 85 98 96 95 97 94 71 57 52 37 24 19 16 12 9 7 5 4 10 36 55 45 42 89 64 53 81 59 58 28 38 68 57 77 85 90 100 99 100 100 92 92
96 97 92 99 96 97 95 88 72 58 55 36 26 20 17 12 10 7 6 4 8 36 41 57 69 53 70 68 60 74 62 61 66 69 74 76 90 95 95 99 100 100 100 100
96 98 88 95 96 97 95 86 71 58 53 39 28 21 18 12 10 8 6 4 6 19 34 53 62 75 62 57 51 44 62 67 74 70 76 79 86 97 96 100 100 100 100 97
96 98 89 97 97 97 95 82 69 59 52 43 30 23 18 14 11 9 7 5 6 12 36 51 61 74 78 74 52 50 45 54 74 85 76 86 91 84 76 99 98 97 100 96
97 97 96 97 97 95 85 83 70 61 53 46 31 24 20 16 12 10 8 5 5 11 23 52 58 65 72 93 86 73 48 43 50 80 88 97 100 100 100 100 100 96 84 92
96 94 97 95 97 96 78 80 72 60 54 47 32 25 21 17 13 11 8 6 5 6 13 38 56 63 63 56 62 82 88 72 89 79 73 93 99 98 94 88 91 99 96 95
96 97 95 94 97 95 84 80 74 60 55 46 33 26 22 18 15 12 8 7 5 5 8 15 29 41 49 57 57 59 64 79 73 73 86 83 71 73 80 88 94 94 85 84
98 97 97 97 98 95 80 77 80 64 54 44 33 27 23 20 17 13 10 8 6 5 6 11 15 34 38 42 47 50 45 57 67 67 66 72 82 79 72 78 77 71 62 63
97 97 96 97 97 96 80 70 75 59 50 46 33 27 24 22 18 15 12 8 6 5 5 6 11 18 31 45 53 51 47 49 50 64 75 77 85 90 84 81 79 79 73 67
97 97 97 97 97 88 75 74 69 58 53 48 34 34 28 24 20 18 14 10 7 6 5 5 7 13 22 45 57 54 60 62 72 69 56 84 100 100 100 100 100 92 78 68
96 97 97 98 96 84 74 75 69 61 59 49 42 43 33 26 22 19 16 12 9 6 5 5 5 7 12 18 50 63 67 73 82 82 85 65 86 97 100 100 100 90 80 74
96 97 98 98 95 80 77 78 81 75 58 48 52 50 37 28 23 21 18 14 11 8 6 5 4 5 7 14 25 44 70 78 91 86 90 92 84 70 82 97 99 100 97 86
97 98 98 98 93 91 82 83 80 65 58 54 58 57 43 32 25 22 20 17 12 9 7 6 5 5 5 7 16 34 54 82 86 80 84 97 100 100 90 65 62 61 74 85
98 98 97 98 92 92 91 83 76 72 65 62 62 59 45 36 29 25 22 20 15 11 8 7 6 6 6 6 11 26 46 85 89 90 76 89 94 96 100 100 100 94 80 71
98 98 98 96 95 96 90 84 82 81 77 70 63 54 52 39 33 27 24 21 18 14 10 8 7 7 7 7 7 12 36 45 59 68 96 92 93 100 100 100 100 100 100 100
97 98 97 98 99 96 92 92 89 87 82 74 61 56 56 44 37 31 26 23 20 17 12 9 8 7 8 8 8 8 13 29 57 73 88 94 100 97 84 94 99 100 100 100
94 97 97 97 98 95 95 87 89 87 87 80 63 65 59 50 42 37 30 26 23 20 16 12 10 9 9 10 9 8 9 20 34 39 57 76 98 100 100 100 88 98 100 100
98 97 97 98 96 96 93 84 86 85 78 77 78 65 66 56 50 43 36 30 27 23 20 16 13 11 11 12 12 9 8 11 26 42 49 48 55 74 87 100 100 100 100 100
98 98 98 99 96 97 97 98 90 88 92 85 73 65 65 57 54 50 43 35 30 27 24 21 18 16 14 14 14 15 11 10 17 35 52 63 63 56 66 80 85 100 100 98
90 96 98 98 97 98 100 99 91 91 87 86 69 54 54 57 54 54 48 40 35 31 29 26 23 20 17 18 17 16 14 13 11 19 34 46 52 60 65 60 66 83 89 95
97 99 98 98 97 98 98 96 89 90 92 84 57 54 54 51 49 52 51 46 39 36 35 30 29 25 22 21 20 20 17 15 12 13 29 36 41 65 70 80 80 72 88 100
98 98 97 97 96 93 88 88 95 94 96 92 70 62 64 57 56 56 56 52 44 40 38 36 36 32 28 26 24 22 21 16 14 11 14 42 44 37 48 58 91 89 99 100
97 97 99 94 92 93 99 98 96 97 95 93 83 70 63 60 55 59 66 57 48 49 44 41 43 41 36 32 30 24 25 20 16 12 12 14 39 60 48 35 56 100 100 100
97 98 97 95 98 99 97 98 98 97 95 86 73 66 64 59 53 64 72 63 52 54 52 46 47 49 48 41 36 34 28 26 20 16 12 14 22 42 57 55 48 47 91 100
98 92 87 95 98 97 98 98 97 96 92 79 67 63 63 54 50 75 83 64 65 60 60 54 54 56 58 53 41 37 32 28 24 19 13 11 17 22 21 21 24 26 30 61
88 83 92 97 97 98 99 98 97 96 86 65 61 69 66 56 66 90 80 72 73 72 69 67 65 66 65 63 48 42 38 30 27 23 16 11 16 20 24 24 22 16 13 24

GFSNW_500_rhum_102.txt.gz
RH
98 98 96 97 92 87 97 96 93 69 58 37 24 18 14 11 8 6 5 4 6 23 34 40 29 39 47 54 42 57 57 72 97 100 72 93 100 69 49 52 40 42 49 40
96 98 98 97 86 91 97 96 85 66 55 34 24 18 15 11 9 7 5 4 5 24 32 46 32 42 58 64 30 34 39 47 51 76 94 74 99 96 81 70 62 54 48 45
87 97 97 97 89 93 98 96 78 64 54 35 24 18 15 12 9 8 6 5 5 15 32 48 43 37 38 47 27 30 28 27 34 62 70 79 94 79 85 70 63 53 47 51
99 97 97 87 90 93 98 93 73 63 51 37 26 18 16 13 10 8 7 5 4 7 31 36 48 39 38 54 50 32 33 22 25 49 68 79 89 86 92 100 100 96 79 91
98 97 97 94 95 96 97 93 68 58 49 38 27 19 16 14 11 9 8 6 5 5 16 46 40 46 48 48 42 36 40 42 42 53 52 55 62 86 89 80 91 100 98 96
98 98 97 97 95 97 97 90 66 56 52 38 27 20 17 15 13 10 9 7 5 5 9 33 51 46 52 48 46 30 36 40 44 55 52 71 80 91 85 94 100 88 100 100
95 98 97 96 92 97 97 84 62 55 51 36 26 20 18 17 14 11 9 7 6 5 6 18 36 52 50 50 54 66 66 63 66 77 76 92 100 100 98 99 98 92 98 100
78 96 98 96 97 98 93 83 60 56 49 35 26 21 20 18 15 13 10 8 7 6 5 7 15 23 39 50 56 57 58 73 89 86 95 88 93 100 100 82 86 98 100 100
97 97 97 97 98 98 90 81 65 61 51 36 27 23 24 20 17 14 11 11 8 6 5 5 7 12 19 34 46 46 51 54 63 71 82 98 99 86 80 80 81 85 100 94
98 98 97 97 98 98 96 78 73 66 50 40 29 32 30 22 18 16 13 11 9 8 6 5 5 7 18 26 35 46 50 53 48 58 75 83 88 91 92 90 88 92 82 74
96 97 97 96 97 99 91 76 72 60 52 44 35 41 35 25 21 18 15 13 12 8 7 6 6 5 8 12 18 25 46 54 59 60 54 67 93 96 97 97 91 83 82 81
95 97 98 97 98 96 87 84 74 60 59 47 43 46 41 27 22 20 17 15 14 10 8 8 7 6 5 6 8 16 34 47 65 77 69 79 74 84 100 100 100 97 94 92
96 98 97 97 98 95 81 85 72 80 78 49 49 53 44 32 25 22 19 17 16 14 10 8 7 7 6 6 6 8 14 28 57 71 83 90 97 95 80 89 100 100 100 100
97 96 98 98 98 94 89 80 75 76 63 50 53 59 49 39 29 24 22 20 18 16 14 11 9 8 7 6 6 6 10 23 41 71 79 76 80 92 98 97 83 79 95 98
97 97 98 99 97 90 84 77 76 67 60 55 60 60 50 46 35 30 25 22 21 19 16 13 11 9 8 7 6 6 6 8 21 56 72 79 71 76 94 98 100 100 99 85
98 98 98 97 97 88 88 78 78 69 72 68 66 63 53 49 41 36 31 26 24 22 20 17 14 11 10 8 7 7 7 7 8 15 42 67 68 97 100 100 100 100 100 100
98 97 97 96 97 95 94 91 81 73 74 77 72 63 57 59 52 42 38 32 28 26 23 21 19 15 12 9 8 8 9 8 8 8 19 45 62 75 90 95 93 99 92 100
97 97 97 94 96 94 96 86 82 80 83 82 79 71 63 67 65 54 48 40 35 30 27 25 23 19 16 12 9 9 10 11 9 8 9 15 30 55 70 78 80 90 100 99
97 97 97 97 97 96 94 87 77 76 76 84 78 65 72 73 71 62 53 49 42 37 32 30 28 24 21 16 10 10 11 12 12 10 10 11 14 31 42 46 67 80 86 97
97 97 96 97 97 96 90 85 72 70 73 74 73 73 74 69 64 60 54 51 47 40 38 33 31 30 26 23 15 12 13 13 14 13 11 10 10 16 28 42 50 50 66 78
97 94 90 98 96 94 96 91 78 77 79 76 69 66 70 69 57 51 52 52 48 45 42 38 36 34 32 30 26 19 16 16 16 17 15 12 10 9 14 27 44 53 56 58
97 99 99 99 86 95 97 89 84 84 87 78 75 71 71 54 54 57 58 55 50 50 46 42 41 39 37 36 33 30 24 20 20 20 20 17 13 10 11 17 29 37 44 64
98 98 98 100 95 91 84 84 91 93 92 81 74 73 58 58 65 68 65 61 56 53 53 52 47 46 43 40 39 38 36 28 23 24 24 23 19 12 10 11 17 34 36 45
97 96 97 92 93 83 96 100 98 92 84 84 79 80 82 73 71 69 70 68 59 52 59 58 53 50 47 46 46 46 46 42 30 28 28 28 25 17 11 11 12 15 41 50
98 97 97 84 81 92 99 95 97 96 94 91 83 78 78 71 65 70 68 70 52 56 62 62 59 55 54 56 55 55 54 54 42 33 32 31 30 24 15 11 14 17 18 24
99 94 85 89 92 98 98 99 98 97 94 90 87 82 78 69 65 68 71 64 61 62 66 72 69 62 60 62 62 62 64 62 54 41 35 33 32 31 22 12 14 21 24 23
92 94 98 100 96 96 99 98 97 95 80 80 89 88 76 66 63 67 74 63 63 73 75 78 76 71 67 68 68 68 70 66 60 49 41 36 34 34 29 18 12 16 22 22

GFSNW_500_rhum_105.txt.gz
RH
99 99 98 91 98 97 94 97 94 95 67 44 23 18 13 9 8 6 4 4 5 8 16 32 50 52 37 42 54 64 69 75 70 63 66 82 58 48 80 94 96 95 86 90
98 99 96 96 98 97 96 96 97 87 62 35 22 18 13 10 8 6 5 4 5 7 16 20 35 53 29 34 36 42 69 71 82 61 57 80 66 70 78 85 52 50 48 53
99 100 79 95 97 94 84 96 97 75 59 32 22 18 14 11 9 7 6 5 5 7 17 21 27 40 23 29 30 28 36 28 47 79 77 91 94 64 61 61 46 60 57 51
99 100 97 96 97 94 88 97 94 71 52 32 23 18 14 12 10 8 7 6 5 6 12 25 25 37 37 20 24 28 25 26 26 38 71 68 79 90 78 74 79 76 69 61
95 91 98 97 97 94 96 98 87 69 46 32 23 18 15 13 10 9 8 7 6 5 9 20 31 36 49 39 21 21 18 31 33 50 57 65 72 78 77 95 87 89 76 58
98 93 92 98 97 97 97 98 82 64 47 32 23 18 16 14 11 10 9 8 7 5 6 12 28 37 44 41 39 37 36 42 41 43 46 51 60 70 75 72 77 86 97 95
98 97 96 98 94 97 98 94 75 64 46 31 24 19 17 15 13 11 10 9 8 6 6 7 15 36 34 39 47 55 44 45 39 45 62 67 76 85 75 69 76 78 74 71
78 90 97 97 97 97 98 95 72 64 45 31 24 20 18 16 14 12 11 11 9 8 7 6 7 11 21 37 45 42 51 70 76 83 90 85 89 98 95 95 96 89 91 97
96 87 80 97 97 97 97 85 70 63 42 30 24 24 21 17 15 13 12 11 11 9 8 7 6 7 9 14 23 38 54 56 62 86 88 87 93 88 92 99 88 94 100 100
98 91 99 98 96 96 95 81 73 59 41 31 27 30 26 19 16 14 13 12 12 11 10 9 7 6 7 8 10 21 32 44 48 53 67 73 86 99 100 99 94 90 86 94
98 98 89 97 98 94 97 85 81 58 45 34 33 38 31 21 18 16 14 14 13 12 11 10 9 7 6 6 7 8 10 24 42 48 53 56 84 90 83 84 94 88 93 93
98 97 97 98 97 97 94 86 80 58 51 38 41 44 35 23 21 18 17 17 15 15 13 12 12 10 8 7 6 8 8 10 24 45 46 61 68 66 79 91 82 85 90 97
98 97 98 98 96 97 97 84 72 58 56 44 45 50 38 27 23 20 19 18 18 17 16 15 14 12 10 8 7 7 7 6 9 24 32 51 59 64 69 67 77 90 93 93
93 94 98 98 97 96 90 89 76 83 76 49 48 56 44 35 28 23 22 21 20 20 19 18 17 15 15 11 9 8 7 6 7 10 18 33 49 59 68 76 86 87 86 92
98 97 98 97 90 93 92 88 77 79 69 55 51 59 48 42 34 30 28 25 24 23 22 21 19 18 17 16 11 10 8 7 6 7 10 21 30 42 57 66 77 89 94 100
97 98 97 98 88 92 86 81 76 79 67 56 56 61 55 46 44 40 38 34 30 28 27 25 24 22 20 19 17 12 10 8 7 7 7 7 11 31 52 67 68 63 82 91
98 97 96 93 95 94 89 84 82 76 67 67 64 67 61 57 60 57 49 45 39 35 31 30 28 26 24 22 21 18 12 11 8 8 8 8 8 8 14 26 50 65 72 78
97 97 99 98 98 96 92 78 78 73 73 76 76 74 70 62 68 68 59 51 45 39 34 34 33 30 29 27 25 24 20 14 11 10 10 10 9 9 8 10 25 42 68 68
95 97 98 98 97 98 93 80 80 75 75 85 85 82 78 68 76 73 64 53 43 39 39 37 35 34 33 32 31 29 27 24 17 13 11 12 12 11 10 10 9 15 31 44
97 98 98 99 96 96 92 88 81 77 76 78 81 77 72 72 75 71 62 50 44 43 44 40 38 38 38 37 36 36 33 32 29 22 15 14 14 14 13 11 10 9 12 27
95 96 97 99 94 94 96 88 73 63 58 70 71 71 73 74 80 74 58 56 50 49 51 47 42 41 41 42 41 41 38 38 37 35 26 18 17 17 16 14 12 11 10 12
92 97 99 98 92 94 87 72 64 59 64 71 75 75 70 73 74 68 58 65 65 62 56 53 52 45 46 44 42 44 45 45 45 44 41 30 21 20 20 18 16 12 12 12
99 96 98 99 95 86 74 66 66 74 82 86 83 78 75 73 74 59 60 70 75 68 62 61 55 51 51 48 45 45 48 51 53 54 53 48 34 26 25 23 21 17 12 12
100 97 98 92 85 74 72 77 86 87 76 81 85 82 79 77 77 74 75 81 73 66 66 65 56 53 52 53 47 47 53 55 57 58 59 56 48 35 30 28 26 23 16 12
98 98 98 92 89 87 80 86 86 78 78 85 89 86 82 79 73 79 82 82 74 63 59 57 56 53 54 59 55 53 57 57 60 60 62 61 56 45 36 34 31 29 22 15
98 96 95 96 91 97 95 91 91 91 90 90 92 87 84 85 80 82 90 85 71 57 54 54 51 52 54 61 60 60 60 61 62 62 65 66 62 53 44 39 35 33 30 24
95 97 98 98 96 95 96 97 96 97 95 95 90 83 84 78 82 84 85 76 61 55 54 52 51 49 57 66 66 64 64 63 64 63 65 70 68 59 51 45 41 37 35 30

GFSNW_500_rhum_108.txt.gz
RH
15 10 18 86 99 98 94 96 98 96 94 77 32 16 11 8 7 6 5 4 4 5 9 25 17 18 35 53 52 49 35 31 38 47 62 74 88 100 91 80 80 81 61 57
7 16 22 95 98 99 97 99 97 96 85 52 23 16 11 8 7 6 6 5 5 5 8 20 19 15 29 38 45 59 62 25 24 35 50 64 56 66 100 100 100 100 100 98
13 30 46 84 99 96 94 96 95 96 76 35 20 15 11 9 8 7 6 6 5 5 7 15 28 16 21 25 27 26 29 52 56 24 44 50 66 67 77 85 64 92 74 66
52 61 96 98 91 86 96 97 97 94 67 28 20 15 12 10 8 8 7 6 6 6 6 13 25 27 17 19 22 24 22 32 29 57 84 89 76 74 66 52 51 46 42 39
100 96 97 96 98 78 97 96 97 93 50 26 20 16 13 10 9 9 8 7 6 6 6 8 20 30 26 16 18 20 21 29 31 39 54 54 50 63 69 63 54 42 46 55
98 99 82 100 96 96 91 96 96 82 42 25 20 16 14 12 9 10 10 8 8 6 6 7 11 23 36 33 34 27 24 26 38 48 50 56 58 58 66 66 63 70 51 56
97 89 98 90 97 97 96 96 93 65 39 25 21 17 15 13 11 10 10 10 9 8 6 6 8 11 31 38 42 33 32 40 44 37 43 51 52 61 71 78 84 77 73 79
100 100 98 98 98 97 92 94 92 56 36 26 22 19 16 14 12 11 11 11 10 10 8 7 6 8 10 17 30 43 47 48 36 39 54 63 79 82 92 79 81 81 89 83
95 84 96 98 96 97 88 93 75 54 36 26 23 20 17 15 13 12 12 12 11 11 10 8 7 7 6 6 8 14 34 51 55 65 59 72 78 84 91 98 100 94 95 94
88 83 91 96 97 96 92 82 73 52 34 26 24 23 19 17 15 13 13 12 12 12 12 12 10 8 8 7 6 6 7 13 33 48 53 60 72 75 82 95 92 99 96 97
96 98 98 96 98 93 82 82 70 50 33 27 27 27 21 18 16 15 14 14 13 13 13 13 13 12 10 9 9 7 6 7 10 23 39 47 52 58 70 80 85 86 85 88
97 98 96 98 99 93 79 79 64 47 35 29 34 32 25 21 18 17 17 16 16 16 15 15 15 14 14 12 11 10 8 7 7 8 11 20 34 49 50 56 64 68 69 70
96 97 97 98 98 93 85 74 64 56 40 32 42 41 30 23 20 19 19 19 19 19 19 18 17 16 16 16 15 14 11 10 8 8 7 9 19 33 43 47 52 55 67 74
98 98 98 97 99 95 83 81 71 73 54 37 47 47 37 28 24 21 21 22 22 23 23 22 21 20 19 18 17 17 16 14 11 9 8 7 7 16 34 44 48 55 64 64
98 98 97 100 96 89 88 86 78 82 62 44 50 55 41 36 29 27 28 27 27 27 26 26 25 24 22 21 20 20 19 18 16 12 10 9 8 8 9 16 36 44 51 54
97 98 98 96 95 91 90 87 74 76 68 48 50 56 49 42 38 41 42 40 34 32 30 28 30 28 26 25 24 23 23 22 21 16 12 11 10 10 9 7 9 24 46 57
98 97 98 96 96 97 94 89 96 89 77 58 52 61 57 46 55 58 56 48 41 34 32 31 31 31 30 29 28 26 26 26 26 24 18 12 11 12 11 10 9 8 10 21
98 97 93 96 99 98 97 93 91 84 77 64 60 64 69 53 55 67 65 52 42 37 33 34 33 34 34 34 30 30 29 29 30 30 29 23 14 13 14 13 12 11 9 8
98 98 98 99 98 96 91 84 84 82 73 68 73 76 76 69 61 70 65 56 42 36 39 41 39 37 37 36 32 30 30 30 30 34 34 35 31 18 16 15 14 13 12 12
97 97 98 100 99 91 83 81 78 78 72 73 80 85 84 73 64 68 67 59 44 43 49 52 51 44 42 40 37 33 32 31 33 34 36 40 42 39 26 20 18 16 16 14
97 96 98 99 99 99 86 81 75 74 70 70 75 78 77 71 70 72 74 60 47 54 64 59 63 54 45 44 43 41 36 35 36 37 40 44 48 49 42 31 25 21 18 18
97 100 100 98 97 99 88 76 72 68 68 74 68 66 69 71 67 71 73 63 50 62 66 67 65 55 50 47 47 47 43 40 41 40 40 46 52 53 51 46 36 30 24 21
98 96 94 87 92 88 70 67 74 80 79 73 69 72 73 69 71 74 75 69 61 66 76 71 62 56 52 50 48 51 49 46 45 45 44 47 54 56 56 54 47 38 32 27
98 98 97 93 94 78 75 78 92 88 74 68 74 75 75 76 75 75 83 80 77 76 85 70 61 56 51 49 51 52 54 52 52 51 49 51 56 58 60 60 56 47 40 34
98 98 93 84 86 86 86 82 92 84 75 73 74 72 73 76 76 82 80 86 80 81 82 66 59 51 49 50 52 52 54 57 57 56 55 55 57 61 63 66 62 55 48 42
98 93 85 96 95 97 93 95 96 88 80 74 78 78 77 80 79 79 86 91 90 80 75 62 54 51 50 49 50 50 52 57 62 63 61 60 61 62 64 68 66 61 56 50
97 95 95 100 98 96 97 94 94 91 83 81 79 79 85 83 75 77 81 78 76 69 63 59 56 54 51 51 50 50 53 60 68 70 67 65 65 63 64 67 68 65 63 59

GFSNW_500_rhum_114.txt.gz
RH
96 99 82 60 32 28 20 10 7 30 96 98 99 23 7 6 6 5 6 8 9 12 13 23 42 35 40 49 43 31 30 36 80 100 88 95 100 95 94 76 92 75 62 86
98 100 80 56 37 27 13 7 13 80 99 99 49 10 6 6 6 6 6 7 8 11 14 17 28 35 26 30 49 64 37 32 50 86 100 86 100 100 100 94 100 92 49 72
95 90 68 60 42 24 10 7 50 95 99 98 21 7 6 6 6 6 6 7 7 9 12 17 18 29 31 22 36 53 42 69 63 55 72 98 96 99 99 100 98 97 73 49
88 76 58 47 37 15 7 38 89 98 100 45 9 7 6 6 6 6 7 7 6 7 9 14 17 23 27 23 23 32 50 59 82 75 63 86 65 69 71 100 73 74 69 78
39 26 38 30 16 7 6 67 99 100 74 13 8 7 7 7 6 7 7 7 7 7 7 9 15 18 19 17 17 18 36 43 57 65 68 58 59 49 43 46 51 55 44 63
31 8 9 8 8 11 14 92 100 96 30 9 8 7 8 8 7 7 7 8 8 8 7 7 7 11 22 24 20 19 26 32 42 44 49 47 47 43 45 38 24 26 25 25
4 4 6 11 10 15 88 99 100 61 13 9 8 8 9 9 8 8 8 9 9 9 8 7 7 7 8 13 25 28 25 28 26 30 38 47 43 53 52 32 33 24 22 23
7 10 8 8 39 68 98 96 72 22 11 9 8 9 10 10 11 10 11 10 10 10 10 10 8 8 8 7 8 12 25 27 24 23 24 29 31 34 42 44 26 24 25 28
10 7 19 46 85 99 93 90 26 15 11 10 9 10 11 11 12 12 12 12 12 12 12 12 11 11 10 9 7 7 7 11 21 28 26 24 24 28 32 39 30 25 26 27
19 35 81 98 96 98 84 35 19 14 12 11 11 11 11 12 12 12 13 14 14 14 14 14 14 13 12 12 12 11 9 7 7 9 14 20 26 25 20 34 34 37 38 41
76 87 88 98 96 96 61 24 19 15 13 13 12 12 12 12 12 13 14 14 15 15 16 16 15 15 15 15 15 14 14 13 10 8 7 9 10 18 28 20 43 39 44 44
56 60 86 99 96 89 40 24 20 17 16 15 14 13 13 14 14 15 16 17 17 17 17 17 17 17 17 17 17 16 17 16 17 15 12 10 8 6 7 11 21 28 34 37
61 90 98 100 97 88 35 25 23 20 18 18 16 15 15 15 16 17 18 20 20 21 20 20 19 18 18 18 18 18 19 19 19 18 20 19 17 14 10 8 6 6 10 14
94 96 99 96 96 88 36 27 25 23 21 20 19 18 17 17 19 20 22 22 22 23 23 23 22 21 20 21 20 20 20 20 20 20 21 21 22 22 20 17 14 12 10 8
91 95 96 96 96 79 42 30 27 26 27 25 23 22 20 20 22 24 25 27 25 24 25 25 24 24 23 23 23 22 21 21 22 22 22 22 24 25 25 25 23 21 18 16
91 90 94 84 91 76 49 33 29 30 35 36 28 24 24 23 26 30 34 32 29 26 28 28 26 25 25 25 26 25 24 24 24 25 25 24 24 25 27 28 29 28 25 23
97 82 86 84 88 87 55 35 31 33 44 44 38 30 28 28 36 45 46 40 33 28 31 34 33 30 28 27 28 28 28 29 28 27 28 28 28 28 29 29 31 32 31 30
98 80 77 87 91 94 69 41 36 35 44 51 47 39 36 34 50 60 57 45 38 30 36 44 42 36 32 30 31 31 31 31 32 33 32 33 33 34 34 33 34 36 35 34
95 79 82 87 83 91 85 60 56 48 40 51 54 51 43 41 53 63 59 53 46 34 39 50 49 43 36 32 33 33 33 34 34 36 37 38 38 40 41 40 40 40 40 39
91 84 80 89 89 92 85 81 77 72 52 46 51 58 60 51 52 57 62 63 56 40 43 52 51 54 42 35 33 33 33 34 35 37 39 41 42 45 47 49 49 48 48 46
76 78 80 93 92 89 87 94 88 82 65 54 50 55 64 67 69 66 64 67 64 52 44 48 48 55 55 42 35 33 32 34 36 38 39 41 43 47 50 53 56 57 57 56
95 96 98 99 98 95 93 86 83 77 77 66 60 66 73 80 73 71 64 64 64 55 51 51 50 54 58 51 39 36 36 34 37 39 41 41 44 46 50 56 62 66 66 64
94 91 96 99 97 92 78 76 83 85 89 85 74 73 81 76 74 68 62 60 64 59 56 55 58 60 58 55 44 40 42 39 37 39 41 42 43 47 51 57 66 73 75 74
90 93 86 89 84 74 73 77 86 97 94 92 83 79 76 76 72 60 60 62 62 59 55 56 53 57 60 58 51 47 46 40 39 40 41 44 43 47 55 59 67 76 81 81
92 91 84 76 81 94 97 91 95 95 97 92 84 84 87 78 62 62 63 65 62 62 60 52 44 46 48 49 47 42 41 40 40 41 42 45 47 50 57 64 68 74 83 86
97 88 74 87 92 100 100 99 96 97 96 90 84 85 82 72 63 67 67 66 68 64 63 59 50 47 47 51 53 53 51 46 46 43 42 47 52 56 60 69 74 77 83 90
88 81 85 98 100 100 99 98 96 97 96 95 93 92 87 69 64 69 73 74 69 69 63 62 62 62 55 58 56 55 55 52 49 50 54 62 70 76 78 80 80 82 87 92

GFSNW_500_rhum_117.txt.gz
RH
100 100 100 100 65 37 32 16 9 8 9 37 72 96 64 10 7 9 10 13 12 17 39 33 30 32 40 55 35 28 58 99 82 90 100 93 76 72 93 93 100 98 100 100
100 100 100 84 44 27 23 11 8 8 35 68 94 78 15 8 7 8 10 11 15 14 25 33 33 29 24 53 36 31 49 84 100 62 100 99 85 87 100 100 100 80 68 86
90 100 95 48 29 24 15 9 19 32 82 100 93 23 8 7 7 8 9 10 12 18 17 22 30 29 22 45 40 60 56 80 100 76 99 100 100 100 100 100 100 86 45 46
75 94 70 32 27 17 11 23 56 63 98 100 34 9 7 7 7 7 8 8 9 14 22 20 20 27 23 24 52 64 56 74 100 83 68 83 100 84 80 90 88 82 64 65
68 69 48 26 18 9 21 57 61 94 100 65 10 7 7 7 8 8 8 7 8 10 13 18 21 24 21 17 33 53 62 62 72 72 58 44 59 61 66 49 62 66 64 68
45 29 27 19 8 13 33 53 76 100 87 22 7 7 7 7 8 8 8 8 8 8 8 10 16 24 26 20 24 36 52 52 49 49 53 54 53 44 30 33 28 27 26 35
10 10 13 11 10 21 34 76 100 86 20 8 7 7 7 7 8 8 9 9 9 8 8 8 9 10 14 25 23 28 34 43 46 47 51 46 52 50 44 30 24 22 20 20
14 14 12 9 12 29 59 99 81 27 10 8 7 8 7 8 9 9 10 11 11 11 10 9 8 8 8 8 12 21 27 25 28 35 33 35 43 48 49 31 25 20 17 16
20 22 16 15 17 58 90 84 30 12 8 8 8 9 10 11 10 11 12 12 12 13 13 12 11 11 9 8 7 9 11 16 24 27 27 28 34 32 37 38 25 20 16 14
24 23 19 19 50 89 70 27 14 9 8 8 10 11 12 12 13 13 13 14 14 14 14 14 14 13 13 12 10 8 7 8 9 11 13 16 20 22 20 32 20 23 21 22
25 38 49 66 80 73 32 16 10 8 8 10 10 11 12 13 14 14 14 14 15 15 15 15 15 15 15 15 14 13 12 10 9 8 10 12 10 12 11 8 10 12 14 18
90 97 90 78 74 42 20 13 11 10 10 10 11 12 12 13 14 15 15 16 16 16 16 16 16 16 16 16 16 15 16 16 14 12 11 11 11 11 10 8 8 8 7 8
74 80 78 69 49 24 18 13 12 12 12 11 12 13 14 15 16 17 18 19 19 18 17 17 17 17 18 17 17 18 18 18 17 16 17 16 15 14 14 13 12 11 10 9
73 68 64 62 30 22 19 16 15 14 13 13 13 14 15 17 18 19 20 20 21 20 19 20 20 19 19 18 18 19 19 19 18 18 19 19 19 18 17 17 16 16 15 13
71 67 66 64 34 24 21 18 17 16 15 15 15 16 17 19 21 23 22 21 22 22 21 21 22 21 21 21 20 20 20 20 21 21 20 20 20 22 22 22 20 19 20 19
68 59 60 62 52 30 24 20 20 19 18 18 18 17 19 21 23 26 27 24 22 24 24 22 22 22 22 23 24 23 22 22 22 23 23 24 24 24 25 26 27 27 26 26
69 64 66 65 63 38 28 23 24 25 22 22 22 20 22 24 30 37 36 30 24 25 30 30 26 24 23 24 25 25 25 24 25 26 26 26 27 29 30 32 33 35 36 34
60 60 63 66 66 46 32 25 27 32 32 28 25 25 26 30 40 48 47 38 31 26 33 38 36 29 26 25 26 27 28 27 28 29 29 29 30 32 34 36 38 40 41 42
64 58 63 67 69 52 39 28 28 35 40 40 34 30 30 31 46 55 51 45 38 31 31 42 41 39 33 27 26 27 28 29 30 32 32 32 31 32 34 36 39 44 46 48
55 59 60 71 71 66 49 35 31 31 41 48 43 36 36 35 48 52 52 50 51 48 35 34 39 45 43 38 32 28 28 29 31 34 33 33 33 33 35 36 40 45 52 55
56 62 64 73 78 77 63 44 47 41 37 43 49 50 47 41 46 47 52 56 52 49 41 37 37 42 49 51 45 35 32 32 34 33 35 34 33 34 36 38 40 44 51 57
68 72 84 76 80 79 71 52 49 52 55 50 45 48 55 60 61 64 61 57 51 44 39 39 45 46 50 50 53 47 37 38 41 36 36 36 34 34 37 40 43 48 53 59
68 78 76 68 75 76 64 59 51 51 65 84 68 49 50 61 71 72 68 60 50 48 47 48 49 43 41 44 48 49 47 46 42 36 36 37 36 38 43 48 54 59 65 69
60 71 74 69 56 54 60 68 79 79 90 92 82 67 58 67 74 70 64 54 53 50 50 53 54 46 40 40 42 43 42 39 39 39 38 39 40 46 54 62 70 75 79 81
76 68 63 56 54 58 70 81 91 93 98 89 87 80 72 72 72 71 61 55 50 55 61 59 60 54 45 42 42 44 47 49 50 49 43 43 48 54 60 66 75 83 91 95
96 74 58 54 63 68 77 86 92 98 96 96 97 91 78 73 70 67 60 52 58 69 61 61 63 62 57 53 52 50 53 53 53 52 51 51 53 54 60 66 75 86 99 99
91 78 72 74 79 86 82 76 87 93 96 92 96 96 94 88 73 68 66 67 77 67 62 66 67 65 59 58 56 54 58 61 62 61 60 60 59 62 67 74 83 90 99 99

GFSNW_500_rhum_120.txt.gz
RH
82 93 91 96 84 60 35 15 10 8 10 29 56 90 98 70 17 17 17 22 29 36 30 26 29 47 40 27 41 97 62 78 100 100 76 68 86 82 99 94 100 98 97 100
77 83 79 77 54 37 20 11 9 10 26 44 65 82 64 18 11 15 16 22 19 37 33 31 27 33 53 27 32 71 73 57 91 100 93 80 95 87 99 100 100 98 94 100
78 70 50 46 34 18 12 10 12 33 29 60 79 68 13 9 10 12 17 22 16 22 31 32 27 26 45 57 50 67 84 82 96 98 100 100 100 100 100 100 98 100 100 100
66 44 34 25 15 11 11 14 25 39 76 89 59 16 8 9 10 12 14 17 24 21 19 24 27 22 34 58 46 57 98 78 84 100 85 87 86 83 88 94 91 83 90 91
45 28 17 14 10 11 17 19 34 84 91 53 13 8 8 9 9 9 9 11 13 19 24 21 25 24 20 46 49 54 74 66 55 57 97 78 59 67 75 58 59 62 64 62
26 19 10 10 11 23 34 48 70 78 35 13 8 8 9 9 9 8 8 8 9 10 12 23 28 27 22 31 45 45 48 51 51 48 60 59 55 54 35 31 29 34 32 36
12 8 8 15 24 51 68 72 71 52 14 7 7 8 8 8 8 9 9 9 9 8 9 10 13 26 32 24 32 41 45 47 50 50 57 54 50 42 38 28 21 23 21 20
8 11 17 38 59 66 67 56 35 16 7 7 7 8 8 9 10 11 11 11 11 10 9 9 9 10 13 22 27 27 28 30 33 38 38 46 55 39 32 27 27 20 17 16
19 35 44 58 64 59 38 15 8 7 7 7 7 8 10 11 12 12 13 13 13 13 12 11 9 8 8 9 12 18 20 20 22 22 21 25 32 30 25 26 22 30 28 23
36 52 55 59 54 36 15 9 8 8 8 8 9 10 11 12 13 13 13 14 14 14 15 14 13 11 10 9 9 8 10 12 14 16 17 18 22 30 34 28 19 17 18 19
44 48 52 41 24 14 9 8 8 9 10 11 12 12 13 14 14 14 14 14 14 15 15 15 15 14 13 12 11 10 10 9 10 10 10 12 12 12 10 9 10 10 10 9
56 60 43 24 13 10 9 9 10 10 11 11 12 13 14 14 14 14 15 16 16 16 16 16 16 17 16 14 14 13 13 12 11 10 10 10 9 9 9 10 9 9 9 9
37 39 32 18 13 11 10 10 10 11 11 11 12 13 14 15 16 16 16 16 16 16 16 16 16 16 16 17 16 16 16 15 14 14 15 14 13 13 13 13 13 13 12 12
28 35 32 17 15 13 12 12 12 11 11 11 12 14 15 16 18 18 18 18 18 18 17 17 17 17 17 18 17 17 16 16 16 16 17 17 18 18 19 19 19 18 17 16
22 32 36 21 17 16 14 14 13 12 11 12 13 15 16 17 18 18 18 19 18 19 19 18 18 18 18 18 18 18 18 18 19 18 16 16 17 18 19 19 19 20 20 20
20 29 36 30 23 19 16 16 15 13 13 13 13 16 17 19 20 20 19 19 20 19 19 19 19 19 20 20 20 20 19 19 19 20 20 18 17 18 18 19 20 21 21 21
21 25 35 38 35 25 20 17 17 16 15 15 15 15 18 21 24 27 25 20 20 23 24 23 21 20 20 22 22 22 22 22 22 21 21 19 18 19 21 21 22 23 24 25
27 28 32 38 46 42 29 20 19 20 18 17 17 17 18 23 30 35 34 29 24 21 25 31 30 25 21 21 22 22 23 24 25 24 23 22 20 19 20 22 25 27 29 32
36 32 32 33 38 50 48 31 21 22 26 23 20 20 20 22 30 39 41 37 29 27 25 27 33 34 36 31 24 24 24 25 27 27 26 25 23 21 23 26 29 32 35 39
50 46 41 44 42 46 53 48 28 23 27 32 32 27 23 23 26 36 42 41 41 39 38 34 29 33 36 37 38 35 27 26 28 31 30 28 25 23 27 31 36 40 42 45
44 49 55 64 48 50 50 54 41 27 25 34 38 38 33 28 28 30 39 44 43 40 39 30 32 34 37 35 40 42 39 32 31 35 36 32 28 26 31 37 44 48 51 54
42 44 50 66 70 59 55 47 47 39 29 29 36 42 43 37 34 33 36 40 40 39 36 32 36 34 39 33 33 36 40 41 40 40 35 30 30 29 34 41 46 50 53 59
40 37 42 55 77 65 51 44 49 50 42 36 34 38 43 46 49 50 50 46 44 45 36 37 41 40 41 37 31 32 35 39 39 37 32 32 32 31 37 43 47 50 55 60
30 26 28 40 50 61 54 58 71 76 75 60 50 49 50 47 46 46 48 47 43 36 36 45 39 44 45 43 39 36 35 36 38 38 40 42 42 39 41 46 50 53 60 62
5 10 20 26 35 53 61 78 78 86 86 87 74 65 73 76 66 51 44 45 41 39 44 48 45 48 46 47 46 43 42 42 41 44 46 46 47 50 51 53 52 55 58 64
5 4 4 13 21 44 69 83 89 88 91 91 93 87 82 81 83 67 51 44 46 51 52 53 51 54 52 51 51 47 47 48 46 45 49 53 56 55 53 54 53 53 56 66
5 4 5 11 40 41 59 85 100 99 98 96 97 91 95 83 86 63 57 58 62 73 68 63 55 56 59 56 57 55 52 52 52 52 53 54 53 58 61 56 56 58 67 73

GFSNW_500_rhum_123.txt.gz
RH
62 59 64 72 56 34 20 23 30 41 23 32 49 98 100 97 27 28 27 35 39 35 34 40 32 24 30 72 96 85 100 100 64 49 90 100 100 100 99 100 100 99 100 99
45 63 64 41 26 14 12 13 15 18 30 57 85 99 76 21 28 27 23 32 35 33 31 31 42 32 32 38 85 86 93 97 64 65 80 95 84 86 97 99 100 93 95 100
53 44 30 16 10 11 14 16 25 41 60 71 89 45 14 15 18 22 24 22 35 34 33 26 39 43 48 42 95 99 96 92 74 73 77 87 95 82 87 97 100 98 97 100
23 14 10 10 11 15 21 36 46 57 56 49 14 10 10 13 16 20 24 20 20 26 30 26 22 50 49 55 95 95 100 88 87 71 69 80 75 79 91 85 88 87 91 100
9 9 11 15 17 29 42 46 49 44 18 8 8 9 10 11 11 13 16 21 26 19 22 25 21 38 41 60 92 77 62 85 67 64 70 73 71 69 66 66 64 62 64 70
16 13 17 22 36 39 48 50 32 13 8 8 8 9 9 9 10 10 10 12 16 19 22 22 21 20 41 43 48 45 44 44 66 57 58 47 43 36 37 36 40 40 50 46
16 19 33 38 45 42 36 18 9 8 8 8 8 9 9 10 11 10 10 10 10 11 12 16 22 16 22 35 37 31 29 29 30 26 30 35 33 24 25 24 22 22 20 24
35 43 44 39 26 21 10 7 7 7 8 9 9 10 11 12 12 12 12 11 11 11 10 10 13 18 20 19 25 31 34 28 26 27 28 25 25 24 26 23 28 25 22 23
41 33 24 16 10 7 6 6 7 7 8 10 10 12 12 13 13 13 13 12 11 11 11 11 10 10 11 16 19 20 20 23 21 19 25 21 17 18 21 22 16 20 23 24
24 18 10 8 7 6 6 7 8 8 9 11 12 12 13 13 14 14 14 14 13 12 12 12 11 11 11 10 10 12 15 15 14 16 18 18 16 22 28 20 24 18 17 14
10 9 8 8 8 8 9 10 10 10 11 12 12 13 13 13 13 13 14 14 14 13 13 12 12 12 11 11 10 10 9 9 12 13 16 14 10 10 10 8 8 8 9 8
8 8 8 8 8 9 9 10 10 11 12 12 12 13 13 13 14 14 14 14 15 15 15 14 13 13 12 12 12 11 11 10 10 10 10 11 11 11 11 10 10 10 11 12
10 9 8 8 9 9 9 9 9 10 11 12 12 14 14 14 14 14 14 13 14 14 14 14 14 13 14 14 13 14 13 13 13 13 16 16 17 17 17 17 16 15 15 16
13 11 11 10 9 9 9 9 9 10 10 11 12 14 14 15 14 14 14 14 13 14 15 14 13 12 12 14 14 15 14 15 14 15 15 16 17 18 17 19 19 18 18 18
14 13 12 12 12 11 10 10 10 10 10 11 12 13 14 14 15 14 15 15 15 14 14 15 15 15 15 13 12 12 14 14 14 15 14 14 15 15 14 16 16 16 16 16
19 17 14 12 13 14 14 13 11 11 11 11 13 13 14 14 14 15 15 16 15 15 16 15 16 16 17 17 17 16 14 12 12 13 13 14 16 17 17 18 19 19 19 20
22 25 22 22 17 15 15 15 15 13 12 12 12 13 15 17 18 18 17 16 17 18 19 18 17 17 18 18 19 19 20 19 16 14 14 14 16 18 19 20 20 20 24 24
23 26 33 27 26 28 24 19 17 16 17 15 14 14 14 16 19 24 27 24 21 18 19 21 25 23 19 19 20 20 20 22 22 21 18 16 16 19 22 24 25 23 24 23
23 24 33 37 37 42 39 35 29 22 18 20 20 17 16 16 17 23 30 32 29 25 23 24 25 27 30 30 28 22 21 21 23 26 24 22 19 20 24 28 29 25 26 30
28 25 28 44 50 51 49 49 44 39 32 21 22 24 22 19 19 20 23 31 35 34 33 32 33 28 27 29 30 31 33 30 24 26 29 29 24 20 24 30 34 33 33 33
34 42 51 51 55 62 57 54 48 49 44 38 24 27 30 29 26 23 23 26 32 34 38 29 29 23 23 26 26 25 25 29 32 30 30 34 31 26 23 28 35 38 39 40
25 47 48 49 47 45 45 44 42 43 47 53 39 26 32 38 38 35 28 27 28 29 34 32 31 23 27 29 28 25 24 24 28 31 34 34 30 28 28 27 34 39 40 42
17 33 41 42 51 48 44 41 39 57 62 66 71 45 28 34 42 42 39 30 28 29 30 31 41 30 33 33 35 32 29 28 28 28 31 32 32 35 36 32 30 33 40 43
5 10 25 31 32 32 35 34 37 44 65 76 76 76 56 32 32 40 41 38 34 29 28 41 52 45 34 37 40 38 35 33 32 32 31 32 34 37 40 40 40 43 44 45
6 6 4 4 5 7 13 29 34 31 36 64 86 86 92 82 39 36 37 36 33 28 32 47 54 54 46 41 41 43 42 38 36 38 38 37 37 38 42 44 47 48 50 53
8 5 7 7 6 7 7 7 10 21 29 55 76 96 98 98 94 62 46 48 45 50 56 55 58 65 65 52 47 47 48 48 45 42 42 42 44 47 48 50 51 50 54 59
6 6 9 10 10 9 8 7 7 8 18 56 98 91 99 95 94 80 72 61 59 70 85 93 93 86 79 75 59 57 56 55 54 53 51 52 55 57 58 56 54 54 57 64

GFSNW_500_rhum_126.txt.gz
RH
16 18 18 21 37 48 65 60 32 41 66 94 100 82 31 32 29 42 49 48 50 48 46 33 30 36 73 92 93 80 62 51 64 89 85 87 90 100 100 100 96 100 91 97
13 18 23 25 30 41 43 35 38 69 93 80 32 26 31 25 31 39 38 34 33 34 38 45 38 34 64 66 72 83 44 41 51 58 70 81 99 98 100 100 100 97 92 99
26 27 27 30 42 40 36 45 61 61 29 15 18 21 24 27 25 33 36 35 34 32 27 50 62 46 69 54 53 65 54 51 66 63 65 77 82 90 100 98 98 100 98 100
27 28 35 39 35 36 35 36 22 12 10 11 12 15 17 19 23 19 24 31 31 29 24 43 52 45 74 73 66 64 56 54 55 58 61 70 80 96 86 98 98 99 98 100
21 20 20 22 19 14 10 9 8 8 9 10 10 12 12 13 14 17 20 18 26 28 26 31 36 66 78 70 74 60 48 50 50 51 56 68 72 72 67 64 69 96 96 100
10 11 10 9 8 8 8 8 9 9 10 10 11 11 11 12 11 11 12 16 20 20 23 21 34 52 60 45 49 43 38 36 54 53 58 58 53 46 45 45 46 50 77 90
6 7 7 7 8 8 9 10 10 10 11 12 12 12 12 12 11 11 11 10 12 17 18 17 24 28 28 26 27 36 31 29 48 51 47 39 34 26 25 24 22 24 34 55
5 5 6 6 7 8 9 10 10 11 11 12 12 12 12 12 12 12 12 12 11 11 14 15 15 20 23 18 21 17 21 23 26 30 27 24 23 23 21 16 21 18 21 18
4 4 5 5 6 7 8 10 10 10 11 12 12 12 13 13 13 13 12 12 12 12 10 10 14 13 14 17 18 15 14 14 15 15 15 16 19 19 22 20 20 19 20 16
4 4 5 6 8 9 9 10 10 10 11 11 11 12 12 12 13 12 12 13 12 11 11 11 10 10 12 12 12 11 9 9 9 9 12 14 17 20 17 15 17 14 11 10
4 5 5 6 8 9 10 10 10 10 10 11 11 12 12 12 12 11 12 12 12 12 11 11 11 11 10 9 9 10 11 11 12 11 10 10 10 10 9 10 10 10 9 10
5 6 6 7 7 8 9 10 10 10 11 11 11 12 12 11 12 12 11 12 12 12 12 11 11 11 10 11 11 11 11 11 12 12 13 13 13 13 14 14 14 15 15 15
8 7 6 7 7 7 8 8 9 10 11 12 12 12 12 12 11 12 12 12 11 10 10 10 11 12 12 11 11 12 12 12 12 13 14 14 15 16 17 18 19 18 18 17
14 12 9 8 7 7 7 7 8 9 10 11 12 12 13 13 12 12 11 12 13 11 9 8 8 8 9 12 13 13 12 12 11 12 11 13 13 12 12 13 12 12 13 15
13 16 15 11 10 8 8 8 8 8 9 10 10 11 12 13 13 14 14 12 12 13 13 12 11 9 9 8 10 10 10 10 10 10 10 10 11 10 12 15 15 13 12 12
15 12 20 17 12 12 11 10 10 10 9 10 11 12 12 12 13 14 14 14 15 14 13 14 14 15 14 12 10 10 10 11 12 12 12 13 13 12 12 11 11 12 12 12
23 20 18 26 20 15 14 14 13 13 12 11 11 11 12 14 16 17 16 15 16 17 18 18 15 15 16 16 17 17 14 12 12 12 14 15 15 14 14 12 12 12 13 13
22 24 22 21 28 24 20 17 16 16 15 15 13 13 13 13 14 17 20 24 23 20 18 19 21 23 19 17 17 18 18 20 20 16 14 14 16 17 18 16 14 17 19 18
24 26 30 31 25 33 35 28 26 23 20 18 18 18 16 16 15 15 17 20 25 29 27 24 23 24 26 27 26 23 20 20 21 21 24 22 17 16 19 19 20 20 22 26
25 25 26 33 42 38 38 40 41 37 35 35 27 22 20 20 20 19 18 18 20 23 31 30 30 32 26 26 25 26 26 27 29 25 23 25 28 26 20 18 22 26 30 30
10 18 23 30 50 53 48 37 30 34 40 49 55 46 35 25 23 25 26 24 21 20 24 32 34 33 23 25 25 27 24 23 23 26 30 29 29 32 31 25 22 23 30 32
4 8 11 17 32 44 49 45 41 41 45 57 60 57 61 59 41 28 27 31 31 27 23 25 34 52 36 28 29 28 29 26 24 23 25 28 34 34 29 26 28 28 26 26
5 4 5 10 17 22 30 34 40 45 47 46 47 60 66 65 66 59 40 29 30 34 29 25 31 44 51 43 36 34 36 36 32 29 28 29 28 29 31 32 34 35 36 36
8 6 4 4 4 6 12 33 37 39 41 42 41 39 40 56 67 70 65 55 35 29 32 38 42 46 56 62 55 44 42 42 42 40 36 34 34 34 35 36 36 36 39 41
11 9 6 6 4 5 7 10 14 17 12 11 11 21 30 34 41 67 69 65 56 49 31 32 40 53 65 65 67 66 61 52 50 50 49 47 42 40 40 41 42 43 46 50
18 12 11 7 8 8 8 8 7 7 6 5 5 5 6 10 16 25 48 68 76 90 86 62 47 40 51 84 65 54 73 76 63 57 58 57 57 53 48 48 49 51 55 59
16 8 18 15 12 10 11 10 11 11 9 7 6 6 6 6 6 5 12 57 87 93 96 94 95 90 78 91 94 89 75 74 84 76 67 64 67 66 67 63 57 60 63 67